Darstellungsparameter: Aktuell verwendete Einstellungen:
Skalierung der Graphiken ... ?
xyx+y,   Skalierungsfaktor:      Skalierung: Modus: x, Faktor: 1
Darstellungszeitraum ... ?
Vom - - bis: - -   Zeitraum: 25.04.2010 - 24.04.2020
Min/Max/Avg-Anzeige ... ?
Zeige MMA aktuell
Zeige MMA Monat
Zeige MMA alles
Zeige --A aktuell
Zeige --A Monat
Zeige --A alles
Keine MMA-Anzeige
MMA:
Keine MMA-Graphiken
MMA-Basis: 25.04.2010 - 24.04.2020
Quicknavigation für Darstellung... ?
Tage:      1T, 2T, 3T, 5T -1T -2T -3T -5T +1T +2T +3T +5T
Wochen: 1W, 2W, 3W -1W -2W -3W +1W +2W +3W
Monate: 1M, 3M, 6M -1M -3M -6M +1M +3M +6M
Jahre:    1J, 3J, 5J, 10J -1J -3J -5J -10J +1J +3J +5J +10J
Nutze für die Darstellung ... ?
Originaldaten oder ...
Mittelwerte Minima Maxima auf...
Stundenbasis Tagesbasis Wochenbasis
Monatsbasis Jahresbasis      Datenbasis: Mittelwerte auf Tagesbasis
Darstellen als:
Statistik (Auto) Statistik J:M      Darstellung:
Zur Graphik,    zurück zur Übersicht aller Sensoren.
 
Tabellarische Datenbersicht: ?
 
Sensor: Nr:Datum:Temp:Feuchte:
Aussen-T/F 1 05-02-2012 00:00:00 -11.01053 C 50.5263 %
2 06-02-2012 00:00:00 -11.77292 C 51.3681 %
3 07-02-2012 00:00:00 -11.66667 C 47.3889 %
4 08-02-2012 00:00:00 -6.72708 C 55.8611 %
5 09-02-2012 00:00:00 -9.12847 C 71.6042 %
6 10-02-2012 00:00:00 -7.30139 C 59.7361 %
7 11-02-2012 00:00:00 -9.82639 C 52.3403 %
8 12-02-2012 00:00:00 -7.57708 C 54.3611 %
9 13-02-2012 00:00:00 -1.24825 C 69.9301 %
10 14-02-2012 00:00:00 1.12889 C 88.7333 %
11 15-02-2012 00:00:00 3.28333 C 73.1061 %
12 16-02-2012 00:00:00 3.16597 C 83.5069 %
13 17-02-2012 00:00:00 5.25903 C 77.1111 %
14 18-02-2012 00:00:00 6.29375 C 75.6944 %
15 19-02-2012 00:00:00 2.6625 C 77.4444 %
16 20-02-2012 00:00:00 0.70764 C 72.5764 %
17 21-02-2012 00:00:00 1.11944 C 66.4722 %
18 22-02-2012 00:00:00 2.66944 C 70.1319 %
19 23-02-2012 00:00:00 6.04722 C 67.4306 %
20 24-02-2012 00:00:00 9.31528 C 72.5903 %
21 25-02-2012 00:00:00 8.56944 C 68.1319 %
22 26-02-2012 00:00:00 4.97014 C 79.2708 %
23 27-02-2012 00:00:00 5.84685 C 70.5175 %
24 28-02-2012 00:00:00 8.57222 C 71.4861 %
25 29-02-2012 00:00:00 9.57569 C 81.8472 %
Sensor: Nr:Datum:Temp:Feuchte:
Aussen-T/F 26 01-03-2012 00:00:00 9.2625 C 82.6458 %
27 02-03-2012 00:00:00 8.76389 C 81.5278 %
28 03-03-2012 00:00:00 7.89653 C 78.8472 %
29 04-03-2012 00:00:00 8.64755 C 68.0350 %
30 05-03-2012 00:00:00 5.54514 C 63.7153 %
31 06-03-2012 00:00:00 4.87361 C 61.6528 %
32 07-03-2012 00:00:00 2.42014 C 70.4583 %
33 08-03-2012 00:00:00 5.07986 C 68.9375 %
34 09-03-2012 00:00:00 4.87014 C 67.3403 %
35 10-03-2012 00:00:00 8.51458 C 65.3958 %
36 11-03-2012 00:00:00 9.26042 C 69.2847 %
37 12-03-2012 00:00:00 8.08403 C 73.7569 %
38 13-03-2012 00:00:00 7.70486 C 69.8889 %
39 14-03-2012 00:00:00 7.11667 C 62.9653 %
40 15-03-2012 00:00:00 7.27639 C 67.4375 %
41 16-03-2012 00:00:00 9.59514 C 62.4167 %
42 17-03-2012 00:00:00 8.80417 C 67.7500 %
43 18-03-2012 00:00:00 8.31806 C 74.2847 %
44 19-03-2012 00:00:00 6.79583 C 62.0833 %
45 20-03-2012 00:00:00 5.14931 C 63.2917 %
46 21-03-2012 00:00:00 7.34792 C 61.4375 %
47 22-03-2012 00:00:00 9.86319 C 62.9722 %
48 23-03-2012 00:00:00 11.76853 C 62.2727 %
49 24-03-2012 00:00:00 11.44861 C 61.5347 %
50 25-03-2012 00:00:00 12.91232 C 55.5145 %
Sensor: Nr:Datum:Temp:Feuchte:
Aussen-T/F 51 26-03-2012 00:00:00 10.94583 C 50.9514 %
52 27-03-2012 00:00:00 10.81806 C 56.7153 %
53 28-03-2012 00:00:00 11.50556 C 59.6736 %
54 29-03-2012 00:00:00 9.53611 C 59.4722 %
55 30-03-2012 00:00:00 9.36389 C 66.3958 %
56 31-03-2012 00:00:00 7.74931 C 64.1667 %
57 01-04-2012 00:00:00 4.40417 C 55.4167 %
58 02-04-2012 00:00:00 7.06597 C 57.8958 %
59 03-04-2012 00:00:00 11.21319 C 53.1806 %
60 04-04-2012 00:00:00 10.02083 C 70.4722 %
61 05-04-2012 00:00:00 7.80069 C 68.0556 %
62 06-04-2012 00:00:00 8.57014 C 50.2292 %
63 07-04-2012 00:00:00 5.4875 C 59.3333 %
64 08-04-2012 00:00:00 5.63889 C 40.5556 %
65 09-04-2012 00:00:00 7.04653 C 73.3750 %
66 10-04-2012 00:00:00 11.46111 C 64.7917 %
67 11-04-2012 00:00:00 10.0035 C 60.2657 %
68 12-04-2012 00:00:00 6.34097 C 73.8750 %
69 13-04-2012 00:00:00 7.45417 C 69.2500 %
70 14-04-2012 00:00:00 7.41736 C 61.6250 %
71 15-04-2012 00:00:00 8.55625 C 60.3681 %
72 16-04-2012 00:00:00 6.46528 C 45.5764 %
73 17-04-2012 00:00:00 5.79097 C 50.2708 %
74 18-04-2012 00:00:00 9.04028 C 58.5486 %
75 19-04-2012 00:00:00 8.42847 C 68.8194 %
Sensor: Nr:Datum:Temp:Feuchte:
Aussen-T/F 76 20-04-2012 00:00:00 8.52986 C 68.9583 %
77 21-04-2012 00:00:00 7.63694 C 72.9099 %
78 22-04-2012 00:00:00 7.97778 C 68.7500 %
79 23-04-2012 00:00:00 8.72153 C 67.3542 %
80 24-04-2012 00:00:00 9.08542 C 72.7292 %
81 25-04-2012 00:00:00 10.22778 C 65.7917 %
82 26-04-2012 00:00:00 11.7625 C 66.5278 %
83 27-04-2012 00:00:00 12.82083 C 69.2778 %
84 28-04-2012 00:00:00 19.28252 C 61.3986 %
85 29-04-2012 00:00:00 17.49444 C 60.0694 %
86 30-04-2012 00:00:00 18.75486 C 52.0139 %
87 01-05-2012 00:00:00 18.01458 C 56.5625 %
88 02-05-2012 00:00:00 15.82917 C 72.3889 %
89 03-05-2012 00:00:00 14.14167 C 62.3750 %
90 04-05-2012 00:00:00 14.925 C 62.7847 %
91 05-05-2012 00:00:00 11.49375 C 83.2500 %
92 06-05-2012 00:00:00 10.99097 C 80.5000 %
93 07-05-2012 00:00:00 11.35556 C 65.4861 %
94 08-05-2012 00:00:00 14.14861 C 61.9375 %
95 09-05-2012 00:00:00 17.33403 C 66.0833 %
96 10-05-2012 00:00:00 20.14097 C 62.4097 %
97 11-05-2012 00:00:00 19.49861 C 66.1319 %
98 12-05-2012 00:00:00 11.91111 C 52.6458 %
99 13-05-2012 00:00:00 10.12014 C 55.5139 %
100 14-05-2012 00:00:00 11.94444 C 53.8125 %
Sensor: Nr:Datum:Temp:Feuchte:
Aussen-T/F 101 15-05-2012 00:00:00 9.62238 C 61.7972 %
102 16-05-2012 00:00:00 9.17708 C 62.0903 %
103 17-05-2012 00:00:00 9.82917 C 58.1944 %
104 18-05-2012 00:00:00 12.75625 C 64.9653 %
105 19-05-2012 00:00:00 17.06944 C 65.8819 %
106 20-05-2012 00:00:00 18.94722 C 62.2153 %
107 21-05-2012 00:00:00 19.91875 C 63.6042 %
108 22-05-2012 00:00:00 22.59236 C 55.5625 %
109 23-05-2012 00:00:00 19.76875 C 73.1528 %
110 24-05-2012 00:00:00 22.69722 C 58.5347 %
111 25-05-2012 00:00:00 20.44236 C 36.0486 %
112 26-05-2012 00:00:00 18.90486 C 42.7917 %
113 27-05-2012 00:00:00 19.43472 C 45.8125 %
114 28-05-2012 00:00:00 20.02014 C 50.0972 %
115 29-05-2012 00:00:00 19.32708 C 50.4375 %
116 30-05-2012 00:00:00 18.83889 C 62.4306 %
117 31-05-2012 00:00:00 16.34097 C 70.9861 %
118 01-06-2012 00:00:00 16.49511 C 59.6294 %
119 02-06-2012 00:00:00 16.49861 C 53.5069 %
120 03-06-2012 00:00:00 12.71319 C 77.7847 %
121 04-06-2012 00:00:00 13.70347 C 72.7569 %
122 05-06-2012 00:00:00 13.39444 C 52.4583 %
123 06-06-2012 00:00:00 13.49236 C 73.0139 %
124 07-06-2012 00:00:00 17.61528 C 73.7083 %
125 08-06-2012 00:00:00 17.99444 C 59.0764 %
Sensor: Nr:Datum:Temp:Feuchte:
Aussen-T/F 126 09-06-2012 00:00:00 14.95385 C 54.9021 %
127 10-06-2012 00:00:00 16.57708 C 49.6806 %
128 11-06-2012 00:00:00 15.05486 C 69.0972 %
129 12-06-2012 00:00:00 14.86458 C 73.1181 %
130 13-06-2012 00:00:00 12.72153 C 81.1458 %
131 14-06-2012 00:00:00 15.70833 C 63.2917 %
132 15-06-2012 00:00:00 16.89236 C 69.2500 %
133 16-06-2012 00:00:00 15.43472 C 82.5278 %
134 17-06-2012 00:00:00 18.60486 C 54.8681 %
135 18-06-2012 00:00:00 19.32083 C 58.7431 %
136 19-06-2012 00:00:00 18.33611 C 66.3125 %
137 20-06-2012 00:00:00 16.65874 C 87.2657 %
138 21-06-2012 00:00:00 19.69028 C 71.6667 %
139 22-06-2012 00:00:00 16.81944 C 61.6042 %
140 23-06-2012 00:00:00 17.08333 C 57.2847 %
141 24-06-2012 00:00:00 14.75208 C 70.2986 %
142 25-06-2012 00:00:00 15.49493 C 63.4420 %
143 26-06-2012 00:00:00 22.46724 C 41.7069 %
144 27-06-2012 00:00:00 18.77083 C 68.3681 %
145 28-06-2012 00:00:00 23.29167 C 62.1319 %
146 29-06-2012 00:00:00 21.28194 C 73.8472 %
147 30-06-2012 00:00:00 21.40417 C 60.9028 %
148 01-07-2012 00:00:00 18.77778 C 64.7986 %
149 02-07-2012 00:00:00 15.6 C 72.6875 %
150 03-07-2012 00:00:00 19.79792 C 60.6597 %
Sensor: Nr:Datum:Temp:Feuchte:
Aussen-T/F 151 04-07-2012 00:00:00 21.29306 C 57.6944 %
152 05-07-2012 00:00:00 19.7 C 76.8889 %
153 06-07-2012 00:00:00 20.40417 C 65.3681 %
154 07-07-2012 00:00:00 20.66111 C 56.9792 %
155 08-07-2012 00:00:00 18.39931 C 65.6597 %
156 09-07-2012 00:00:00 19.65385 C 52.5524 %
157 10-07-2012 00:00:00 20.275 C 59.7292 %
158 11-07-2012 00:00:00 16.47222 C 64.9514 %
159 12-07-2012 00:00:00 15.36319 C 62.7708 %
160 13-07-2012 00:00:00 15.93958 C 76.1597 %
161 14-07-2012 00:00:00 15.80417 C 74.2361 %
162 15-07-2012 00:00:00 14.79931 C 73.4306 %
163 16-07-2012 00:00:00 15.32778 C 64.5556 %
164 17-07-2012 00:00:00 18.04514 C 58.8750 %
165 18-07-2012 00:00:00 20.66944 C 55.1806 %
166 19-07-2012 00:00:00 18.71597 C 53.6319 %
167 20-07-2012 00:00:00 15.17778 C 72.3819 %
168 21-07-2012 00:00:00 15.89375 C 65.7917 %
169 22-07-2012 00:00:00 15.82153 C 59.5069 %
170 23-07-2012 00:00:00 17.80347 C 56.9375 %
171 24-07-2012 00:00:00 20.81319 C 56.8333 %
172 25-07-2012 00:00:00 23.60069 C 57.2708 %
173 26-07-2012 00:00:00 24.88403 C 55.4583 %
174 27-07-2012 00:00:00 23.54722 C 66.3681 %
175 28-07-2012 00:00:00 19.83542 C 76.9236 %
Sensor: Nr:Datum:Temp:Feuchte:
Aussen-T/F 176 29-07-2012 00:00:00 18.15903 C 62.5208 %
177 30-07-2012 00:00:00 16.59653 C 56.5417 %
178 31-07-2012 00:00:00 16.70069 C 64.9722 %
179 01-08-2012 00:00:00 21.12361 C 60.6528 %
180 02-08-2012 00:00:00 21.18611 C 58.5764 %
181 03-08-2012 00:00:00 19.56528 C 59.1875 %
182 04-08-2012 00:00:00 19.64514 C 58.3681 %
183 05-08-2012 00:00:00 20.43819 C 66.6389 %
184 06-08-2012 00:00:00 19.08322 C 64.3217 %
185 07-08-2012 00:00:00 17.64792 C 56.2500 %
186 08-08-2012 00:00:00 17.33264 C 62.5833 %
187 09-08-2012 00:00:00 19.625 C 61.6389 %
188 10-08-2012 00:00:00 18.16111 C 57.5278 %
189 11-08-2012 00:00:00 16.93264 C 60.0069 %
190 12-08-2012 00:00:00 18.15347 C 55.7708 %
191 13-08-2012 00:00:00 18.95625 C 59.5278 %
192 14-08-2012 00:00:00 20.79653 C 61.0208 %
193 15-08-2012 00:00:00 23.575 C 52.8889 %
194 16-08-2012 00:00:00 22.48264 C 52.1528 %
195 17-08-2012 00:00:00 21.23819 C 55.8819 %
196 18-08-2012 00:00:00 24.04097 C 54.4444 %
197 19-08-2012 00:00:00 26.03264 C 55.2153 %
198 20-08-2012 00:00:00 24.02778 C 63.6319 %
199 21-08-2012 00:00:00 23.80625 C 65.9097 %
200 22-08-2012 00:00:00 21.79028 C 48.9306 %
Sensor: Nr:Datum:Temp:Feuchte:
Aussen-T/F 201 23-08-2012 00:00:00 18.57083 C 55.1042 %
202 24-08-2012 00:00:00 19.47692 C 65.3077 %
203 25-08-2012 00:00:00 18.93472 C 65.5764 %
204 26-08-2012 00:00:00 16.21944 C 64.3472 %
205 27-08-2012 00:00:00 16.78403 C 66.9514 %
206 28-08-2012 00:00:00 18.19444 C 60.9653 %
207 29-08-2012 00:00:00 20.81667 C 62.3403 %
208 30-08-2012 00:00:00 17.79375 C 67.3542 %
209 31-08-2012 00:00:00 14.23319 C 71.6549 %
210 01-09-2012 00:00:00 15.06597 C 60.5694 %
211 02-09-2012 00:00:00 14.34931 C 68.2222 %
212 03-09-2012 00:00:00 16.25278 C 67.9167 %
213 04-09-2012 00:00:00 16.37119 C 71.0988 %
214 05-09-2012 00:00:00 16.55069 C 66.5347 %
215 06-09-2012 00:00:00 15.49722 C 55.4722 %
216 07-09-2012 00:00:00 14.79028 C 63.9722 %
217 08-09-2012 00:00:00 17.21181 C 59.2986 %
218 09-09-2012 00:00:00 18.72517 C 58.2028 %
219 10-09-2012 00:00:00 19.82083 C 55.4444 %
220 11-09-2012 00:00:00 18.01389 C 70.4722 %
221 12-09-2012 00:00:00 11.20625 C 83.4028 %
222 13-09-2012 00:00:00 10.85486 C 80.0486 %
223 14-09-2012 00:00:00 13.02083 C 72.9583 %
224 15-09-2012 00:00:00 13.61458 C 76.2986 %
225 16-09-2012 00:00:00 13.8331 C 73.2042 %
Sensor: Nr:Datum:Temp:Feuchte:
Aussen-T/F 226 17-09-2012 00:00:00 15.30694 C 71.9097 %
227 18-09-2012 00:00:00 14.1 C 71.4583 %
228 19-09-2012 00:00:00 11.49236 C 58.6458 %
229 20-09-2012 00:00:00 9.62986 C 63.7361 %
230 21-09-2012 00:00:00 10.49931 C 68.7083 %
231 22-09-2012 00:00:00 11.48403 C 68.8125 %
232 23-09-2012 00:00:00 11.73333 C 66.2986 %
233 24-09-2012 00:00:00 15.00139 C 71.6181 %
234 25-09-2012 00:00:00 12.84653 C 76.6667 %
235 26-09-2012 00:00:00 12.43403 C 85.4861 %
236 27-09-2012 00:00:00 12.98889 C 74.0208 %
237 28-09-2012 00:00:00 12.7958 C 72.6573 %
238 29-09-2012 00:00:00 11.74792 C 73.0139 %
239 30-09-2012 00:00:00 9.45417 C 78.4375 %
240 01-10-2012 00:00:00 9.45764 C 75.9653 %
241 02-10-2012 00:00:00 12.22361 C 73.7014 %
242 03-10-2012 00:00:00 14.67361 C 67.8125 %
243 04-10-2012 00:00:00 12.97292 C 69.8889 %
244 05-10-2012 00:00:00 13.69861 C 72.7292 %
245 06-10-2012 00:00:00 14.49861 C 73.0278 %
246 07-10-2012 00:00:00 10.07847 C 76.6250 %
247 08-10-2012 00:00:00 7.57361 C 80.6319 %
248 09-10-2012 00:00:00 10.33681 C 75.4306 %
249 10-10-2012 00:00:00 6.10417 C 81.1250 %
250 11-10-2012 00:00:00 6.67778 C 83.4653 %
Sensor: Nr:Datum:Temp:Feuchte:
Aussen-T/F 251 12-10-2012 00:00:00 10.84653 C 79.3194 %
252 13-10-2012 00:00:00 8.99236 C 75.4097 %
253 14-10-2012 00:00:00 8.02778 C 81.9028 %
254 15-10-2012 00:00:00 7.31319 C 84.2083 %
255 16-10-2012 00:00:00 7.39375 C 81.9375 %
256 17-10-2012 00:00:00 11.04722 C 78.6597 %
257 18-10-2012 00:00:00 14.58811 C 70.7133 %
258 19-10-2012 00:00:00 14.68819 C 75.3472 %
259 20-10-2012 00:00:00 13.92292 C 80.8611 %
260 21-10-2012 00:00:00 13.38056 C 82.5000 %
261 22-10-2012 00:00:00 11.66181 C 83.5972 %
262 23-10-2012 00:00:00 11.39444 C 74.7778 %
263 24-10-2012 00:00:00 9.69792 C 80.7708 %
264 25-10-2012 00:00:00 10.225 C 81.0278 %
265 26-10-2012 00:00:00 6.46181 C 85.6667 %
266 27-10-2012 00:00:00 2.65764 C 65.8472 %
267 28-10-2012 00:00:00 -0.226 C 80.0067 %
268 29-10-2012 00:00:00 0.00694 C 83.1250 %
269 30-10-2012 00:00:00 5.74514 C 81.6111 %
270 31-10-2012 00:00:00 5.77014 C 82.5139 %
271 01-11-2012 00:00:00 7.26597 C 75.0833 %
272 02-11-2012 00:00:00 7.51597 C 68.9722 %
273 03-11-2012 00:00:00 7.07083 C 87.1042 %
274 04-11-2012 00:00:00 7.35139 C 84.1111 %
275 05-11-2012 00:00:00 7.75903 C 72.2361 %
Sensor: Nr:Datum:Temp:Feuchte:
Aussen-T/F 276 06-11-2012 00:00:00 5.72569 C 77.1181 %
277 07-11-2012 00:00:00 8.42098 C 73.5175 %
278 08-11-2012 00:00:00 8.77361 C 64.8194 %
279 09-11-2012 00:00:00 8.02292 C 70.6528 %
280 10-11-2012 00:00:00 8.71319 C 83.3750 %
281 11-11-2012 00:00:00 7.93056 C 84.1181 %
282 12-11-2012 00:00:00 5.23194 C 78.7986 %
283 13-11-2012 00:00:00 2.14306 C 89.1597 %
284 14-11-2012 00:00:00 2.29444 C 86.6597 %
285 15-11-2012 00:00:00 4.39097 C 75.2222 %
286 16-11-2012 00:00:00 2.77292 C 75.1667 %
287 17-11-2012 00:00:00 4.16806 C 85.0417 %
288 18-11-2012 00:00:00 7.46389 C 87.8750 %
289 19-11-2012 00:00:00 7.42083 C 87.6181 %
290 20-11-2012 00:00:00 5.23611 C 84.9097 %
291 21-11-2012 00:00:00 4.33472 C 80.3472 %
292 22-11-2012 00:00:00 4.71528 C 90.8750 %
293 23-11-2012 00:00:00 6.44097 C 88.0347 %
294 24-11-2012 00:00:00 9.14444 C 76.9167 %
295 25-11-2012 00:00:00 10.26944 C 58.2917 %
296 26-11-2012 00:00:00 5.54615 C 90.3846 %
297 27-11-2012 00:00:00 7.47986 C 78.1736 %
298 28-11-2012 00:00:00 5.11111 C 82.2847 %
299 29-11-2012 00:00:00 3.57986 C 75.6944 %
300 30-11-2012 00:00:00 0.50764 C 88.5208 %
Sensor: Nr:Datum:Temp:Feuchte:
Aussen-T/F 301 01-12-2012 00:00:00 -0.75139 C 86.3056 %
302 02-12-2012 00:00:00 1.94375 C 79.1528 %
303 03-12-2012 00:00:00 1.81736 C 79.7778 %
304 04-12-2012 00:00:00 3.30903 C 79.7431 %
305 05-12-2012 00:00:00 2.375 C 81.8542 %
306 06-12-2012 00:00:00 -0.15556 C 72.8472 %
307 07-12-2012 00:00:00 -1.75139 C 82.6319 %
308 08-12-2012 00:00:00 -5.99097 C 83.7431 %
309 09-12-2012 00:00:00 -0.15625 C 79.7708 %
310 10-12-2012 00:00:00 2.14514 C 76.3194 %
311 11-12-2012 00:00:00 -1.48333 C 75.0347 %
312 12-12-2012 00:00:00 -4.58264 C 71.3681 %
313 13-12-2012 00:00:00 -4.49167 C 74.8819 %
314 14-12-2012 00:00:00 2.54792 C 83.5556 %
315 15-12-2012 00:00:00 6.71958 C 84.4336 %
316 16-12-2012 00:00:00 6.03472 C 82.4514 %
317 17-12-2012 00:00:00 5.72292 C 87.5000 %
318 18-12-2012 00:00:00 4.65764 C 86.0694 %
319 19-12-2012 00:00:00 2.93889 C 91.6806 %
320 20-12-2012 00:00:00 0.50903 C 89.5556 %
321 21-12-2012 00:00:00 2.98681 C 93.7153 %
322 22-12-2012 00:00:00 5.92292 C 88.8889 %
323 23-12-2012 00:00:00 11.87708 C 78.1806 %
324 24-12-2012 00:00:00 10.90694 C 68.6944 %
325 25-12-2012 00:00:00 9.12639 C 68.9792 %
Sensor: Nr:Datum:Temp:Feuchte:
Aussen-T/F 326 26-12-2012 00:00:00 7.86713 C 70.9161 %
327 27-12-2012 00:00:00 7.49167 C 75.2778 %
328 28-12-2012 00:00:00 5.83889 C 86.5903 %
329 29-12-2012 00:00:00 7.89306 C 83.5000 %
330 30-12-2012 00:00:00 8.23194 C 60.0000 %
331 31-12-2012 00:00:00 8.71736 C 60.0833 %
332 01-01-2013 00:00:00 6.08611 C 73.8056 %
333 02-01-2013 00:00:00 4.35704 C 74.3239 %
334 03-01-2013 00:00:00 7.44476 C 79.7832 %
335 04-01-2013 00:00:00 9.80069 C 80.8819 %
336 05-01-2013 00:00:00 7.65417 C 79.9236 %
337 06-01-2013 00:00:00 7.98611 C 77.3542 %
338 07-01-2013 00:00:00 7.06181 C 76.4375 %
339 08-01-2013 00:00:00 6 C 72.4722 %
340 09-01-2013 00:00:00 4.46042 C 75.9167 %
341 10-01-2013 00:00:00 4.00972 C 81.2639 %
342 11-01-2013 00:00:00 0.56389 C 65.4444 %
343 12-01-2013 00:00:00 -4.40694 C 75.9931 %
344 13-01-2013 00:00:00 -4.79861 C 69.0347 %
345 14-01-2013 00:00:00 -5.6625 C 76.9792 %
346 15-01-2013 00:00:00 -2.6875 C 75.8403 %
347 16-01-2013 00:00:00 -2.99444 C 76.5972 %
348 17-01-2013 00:00:00 -2.95208 C 73.2014 %
349 18-01-2013 00:00:00 -2.19514 C 71.4028 %
350 19-01-2013 00:00:00 -2.73958 C 61.8403 %
Sensor: Nr:Datum:Temp:Feuchte:
Aussen-T/F 351 20-01-2013 00:00:00 -3.47708 C 70.3819 %
352 21-01-2013 00:00:00 -1.05069 C 80.7500 %
353 22-01-2013 00:00:00 -1.4049 C 78.5455 %
354 23-01-2013 00:00:00 -1.40278 C 78.9514 %
355 24-01-2013 00:00:00 -2.70347 C 70.0486 %
356 25-01-2013 00:00:00 -2.67153 C 66.6736 %
357 26-01-2013 00:00:00 -2.29861 C 66.5833 %
358 27-01-2013 00:00:00 1.85347 C 75.8681 %
359 28-01-2013 00:00:00 3.68958 C 75.3333 %
360 29-01-2013 00:00:00 8.86181 C 73.1944 %
361 30-01-2013 00:00:00 11.23611 C 66.5833 %
362 31-01-2013 00:00:00 7.45833 C 59.8472 %
363 01-02-2013 00:00:00 6.19375 C 76.4444 %
364 02-02-2013 00:00:00 2.65486 C 77.5000 %
365 03-02-2013 00:00:00 3.0125 C 70.5556 %
366 04-02-2013 00:00:00 5.57431 C 78.0278 %
367 05-02-2013 00:00:00 4.00486 C 64.4861 %
368 06-02-2013 00:00:00 1.06667 C 83.2292 %
369 07-02-2013 00:00:00 1.36319 C 81.7708 %
370 08-02-2013 00:00:00 0.09792 C 83.2500 %
371 09-02-2013 00:00:00 -1.47343 C 76.3916 %
372 10-02-2013 00:00:00 -3.07222 C 69.4722 %
373 11-02-2013 00:00:00 -1.32153 C 51.0972 %
374 12-02-2013 00:00:00 -1.39028 C 53.3056 %
375 13-02-2013 00:00:00 -1.57222 C 53.8194 %
Sensor: Nr:Datum:Temp:Feuchte:
Aussen-T/F 376 14-02-2013 00:00:00 -3.37639 C 67.7708 %
377 15-02-2013 00:00:00 0.94931 C 82.4097 %
378 16-02-2013 00:00:00 2.78085 C 88.9645 %
379 17-02-2013 00:00:00 2.925 C 83.0417 %
380 18-02-2013 00:00:00 1.57083 C 77.8403 %
381 19-02-2013 00:00:00 0.15139 C 82.6458 %
382 20-02-2013 00:00:00 -0.24653 C 65.5764 %
383 21-02-2013 00:00:00 -1.92083 C 59.0069 %
384 22-02-2013 00:00:00 -2.83958 C 52.2361 %
385 23-02-2013 00:00:00 -3.16806 C 68.3819 %
386 24-02-2013 00:00:00 -0.70417 C 78.2153 %
387 25-02-2013 00:00:00 0.64236 C 88.1875 %
388 26-02-2013 00:00:00 2.61806 C 84.0625 %
389 27-02-2013 00:00:00 1.68681 C 77.1042 %
390 28-02-2013 00:00:00 2.58542 C 71.4375 %
391 01-03-2013 00:00:00 2.88811 C 65.2937 %
392 02-03-2013 00:00:00 3.1625 C 54.8542 %
393 03-03-2013 00:00:00 1.75278 C 67.9931 %
394 04-03-2013 00:00:00 1.69375 C 67.5556 %
395 05-03-2013 00:00:00 2.58819 C 67.1736 %
396 06-03-2013 00:00:00 5.39792 C 64.6250 %
397 07-03-2013 00:00:00 9.49028 C 62.3403 %
398 08-03-2013 00:00:00 11.17361 C 70.4028 %
399 09-03-2013 00:00:00 10.40764 C 71.5208 %
400 10-03-2013 00:00:00 3.59444 C 82.1875 %
Sensor: Nr:Datum:Temp:Feuchte:
Aussen-T/F 401 11-03-2013 00:00:00 -0.74375 C 79.2569 %
402 12-03-2013 00:00:00 -2.85347 C 75.0139 %
403 13-03-2013 00:00:00 -2.41111 C 60.0625 %
404 14-03-2013 00:00:00 -1.75833 C 69.3542 %
405 15-03-2013 00:00:00 -2.97708 C 62.1736 %
406 16-03-2013 00:00:00 2.54861 C 47.0764 %
407 17-03-2013 00:00:00 3.17222 C 74.0347 %
408 18-03-2013 00:00:00 4.03125 C 71.8819 %
409 19-03-2013 00:00:00 3.65594 C 70.3357 %
410 20-03-2013 00:00:00 3.27292 C 82.8819 %
411 21-03-2013 00:00:00 1.43958 C 72.0625 %
412 22-03-2013 00:00:00 1.39583 C 62.5069 %
413 23-03-2013 00:00:00 1.44236 C 48.3403 %
414 24-03-2013 00:00:00 0.675 C 29.5486 %
415 25-03-2013 00:00:00 0.3125 C 36.0486 %
416 26-03-2013 00:00:00 0.20486 C 37.3889 %
417 27-03-2013 00:00:00 1.03264 C 40.2014 %
418 28-03-2013 00:00:00 2.12083 C 52.0347 %
419 29-03-2013 00:00:00 0.38125 C 76.0764 %
420 30-03-2013 00:00:00 1.72083 C 58.0833 %
421 31-03-2013 00:00:00 1.08043 C 61.3043 %
422 01-04-2013 00:00:00 1.26458 C 52.8194 %
423 02-04-2013 00:00:00 2.99236 C 46.8681 %
424 03-04-2013 00:00:00 1.67014 C 53.5556 %
425 04-04-2013 00:00:00 4.70069 C 46.9167 %
Sensor: Nr:Datum:Temp:Feuchte:
Aussen-T/F 426 05-04-2013 00:00:00 2.0049 C 61.1329 %
427 06-04-2013 00:00:00 3.43056 C 68.8194 %
428 07-04-2013 00:00:00 3.95833 C 57.7639 %
429 08-04-2013 00:00:00 4.23194 C 56.9653 %
430 09-04-2013 00:00:00 5.92361 C 76.8264 %
431 10-04-2013 00:00:00 8.38056 C 74.3819 %
432 11-04-2013 00:00:00 12.50625 C 62.5278 %
433 12-04-2013 00:00:00 10.52639 C 71.1944 %
434 13-04-2013 00:00:00 12.08819 C 51.3958 %
435 14-04-2013 00:00:00 16.62986 C 51.9375 %
436 15-04-2013 00:00:00 15.77986 C 60.2778 %
437 16-04-2013 00:00:00 16.60486 C 59.1458 %
438 17-04-2013 00:00:00 18.4125 C 45.6111 %
439 18-04-2013 00:00:00 16.07986 C 47.2917 %
440 19-04-2013 00:00:00 11.975 C 39.9167 %
441 20-04-2013 00:00:00 10.53889 C 46.2014 %
442 21-04-2013 00:00:00 11.39514 C 41.3333 %
443 22-04-2013 00:00:00 13.25139 C 42.5208 %
444 23-04-2013 00:00:00 12.81667 C 46.6389 %
445 24-04-2013 00:00:00 15.12867 C 56.3427 %
446 25-04-2013 00:00:00 18.15694 C 50.5486 %
447 26-04-2013 00:00:00 12.27431 C 74.2222 %
448 27-04-2013 00:00:00 6.43542 C 78.7708 %
449 28-04-2013 00:00:00 8.05972 C 66.6458 %
450 29-04-2013 00:00:00 11.76042 C 51.9653 %
Sensor: Nr:Datum:Temp:Feuchte:
Aussen-T/F 451 30-04-2013 00:00:00 9.65208 C 65.1597 %
452 01-05-2013 00:00:00 13.66458 C 62.9097 %
453 02-05-2013 00:00:00 16.29167 C 53.0278 %
454 03-05-2013 00:00:00 15.27778 C 58.0278 %
455 04-05-2013 00:00:00 16.33264 C 50.6389 %
456 05-05-2013 00:00:00 15.40278 C 54.8056 %
457 06-05-2013 00:00:00 15.86319 C 55.9931 %
458 07-05-2013 00:00:00 14.92847 C 71.1458 %
459 08-05-2013 00:00:00 16.0875 C 66.1389 %
460 09-05-2013 00:00:00 16.62222 C 62.8611 %
461 10-05-2013 00:00:00 13.32222 C 55.0833 %
462 11-05-2013 00:00:00 13.16853 C 63.6154 %
463 12-05-2013 00:00:00 9.82014 C 73.2639 %
464 13-05-2013 00:00:00 11.35347 C 74.8472 %
465 14-05-2013 00:00:00 13.34583 C 63.8889 %
466 15-05-2013 00:00:00 13.35417 C 70.4236 %
467 16-05-2013 00:00:00 13.82153 C 79.2292 %
468 17-05-2013 00:00:00 10.43403 C 83.2292 %
469 18-05-2013 00:00:00 14.60972 C 64.4861 %
470 19-05-2013 00:00:00 13.5 C 70.6806 %
471 20-05-2013 00:00:00 11.05625 C 79.8958 %
472 21-05-2013 00:00:00 13.16806 C 70.2778 %
473 22-05-2013 00:00:00 9.41736 C 73.9167 %
474 23-05-2013 00:00:00 8.15208 C 71.0625 %
475 24-05-2013 00:00:00 7.98125 C 62.9722 %
Sensor: Nr:Datum:Temp:Feuchte:
Aussen-T/F 476 25-05-2013 00:00:00 8.69931 C 66.3819 %
477 26-05-2013 00:00:00 7.77014 C 87.2431 %
478 27-05-2013 00:00:00 13.93681 C 60.6806 %
479 28-05-2013 00:00:00 15.01875 C 60.7778 %
480 29-05-2013 00:00:00 10.22153 C 82.0417 %
481 30-05-2013 00:00:00 12.77832 C 64.0909 %
482 31-05-2013 00:00:00 13.20069 C 79.1111 %
483 01-06-2013 00:00:00 12.25972 C 73.6111 %
484 02-06-2013 00:00:00 13.91667 C 47.6458 %
485 03-06-2013 00:00:00 13.48125 C 45.5347 %
486 04-06-2013 00:00:00 14.93958 C 55.2153 %
487 05-06-2013 00:00:00 17.78403 C 57.3958 %
488 06-06-2013 00:00:00 19.66389 C 48.9097 %
489 07-06-2013 00:00:00 20.09097 C 52.1458 %
490 08-06-2013 00:00:00 19.80972 C 59.0625 %
491 09-06-2013 00:00:00 15.60972 C 74.0556 %
492 10-06-2013 00:00:00 12.94306 C 84.2222 %
493 11-06-2013 00:00:00 16.67847 C 67.4792 %
494 12-06-2013 00:00:00 18.42569 C 65.2014 %
495 13-06-2013 00:00:00 19.32708 C 68.4306 %
496 14-06-2013 00:00:00 15.12292 C 61.3403 %
497 15-06-2013 00:00:00 15.60625 C 62.2778 %
498 16-06-2013 00:00:00 18.03264 C 52.4375 %
499 17-06-2013 00:00:00 22.87222 C 53.5833 %
500 18-06-2013 00:00:00 26.92587 C 55.8531 %
Sensor: Nr:Datum:Temp:Feuchte:
Aussen-T/F 501 19-06-2013 00:00:00 27.2 C 58.5208 %
502 20-06-2013 00:00:00 23.39722 C 62.9306 %
503 21-06-2013 00:00:00 18.39097 C 64.0347 %
504 22-06-2013 00:00:00 18.89028 C 56.5486 %
505 23-06-2013 00:00:00 16.52153 C 59.8472 %
506 24-06-2013 00:00:00 14.99375 C 62.9375 %
507 25-06-2013 00:00:00 13.88264 C 64.0069 %
508 26-06-2013 00:00:00 12.57986 C 63.3264 %
509 27-06-2013 00:00:00 13.54375 C 69.2986 %
510 28-06-2013 00:00:00 12.81528 C 77.3681 %
511 29-06-2013 00:00:00 15.88125 C 67.4167 %
512 30-06-2013 00:00:00 15.26597 C 61.9861 %
513 01-07-2013 00:00:00 19.18819 C 59.8681 %
514 02-07-2013 00:00:00 20.10486 C 58.7292 %
515 03-07-2013 00:00:00 17.71181 C 79.3611 %
516 04-07-2013 00:00:00 19.37778 C 69.5000 %
517 05-07-2013 00:00:00 20.70139 C 59.4583 %
518 06-07-2013 00:00:00 21.36111 C 60.2639 %
519 07-07-2013 00:00:00 22.71458 C 55.8819 %
520 08-07-2013 00:00:00 22.21678 C 54.2308 %
521 09-07-2013 00:00:00 22.76667 C 53.8750 %
522 10-07-2013 00:00:00 20.87361 C 55.0556 %
523 11-07-2013 00:00:00 18.37569 C 48.4861 %
524 12-07-2013 00:00:00 17.78611 C 57.3819 %
525 13-07-2013 00:00:00 18.05278 C 58.2361 %
Sensor: Nr:Datum:Temp:Feuchte:
Aussen-T/F 526 14-07-2013 00:00:00 19.14306 C 57.9931 %
527 15-07-2013 00:00:00 20.30903 C 57.1528 %
528 16-07-2013 00:00:00 21.81597 C 54.7361 %
529 17-07-2013 00:00:00 22.06944 C 55.5833 %
530 18-07-2013 00:00:00 23.45208 C 53.4306 %
531 19-07-2013 00:00:00 23.24722 C 50.9792 %
532 20-07-2013 00:00:00 22.52847 C 53.0903 %
533 21-07-2013 00:00:00 23.96319 C 52.4097 %
534 22-07-2013 00:00:00 24.82569 C 52.7500 %
535 23-07-2013 00:00:00 23.49792 C 64.9653 %
536 24-07-2013 00:00:00 22.89301 C 59.6434 %
537 25-07-2013 00:00:00 22.33333 C 68.0278 %
538 26-07-2013 00:00:00 23.15417 C 74.3611 %
539 27-07-2013 00:00:00 25.88681 C 63.8681 %
540 28-07-2013 00:00:00 22.16736 C 65.2847 %
541 29-07-2013 00:00:00 20.35486 C 70.6667 %
542 30-07-2013 00:00:00 19.51875 C 62.1597 %
543 31-07-2013 00:00:00 21.525 C 57.2014 %
544 01-08-2013 00:00:00 23.85972 C 57.8194 %
545 02-08-2013 00:00:00 25.45903 C 54.0556 %
546 03-08-2013 00:00:00 22.23056 C 66.9583 %
547 04-08-2013 00:00:00 21.61944 C 58.5347 %
548 05-08-2013 00:00:00 22.35417 C 59.6458 %
549 06-08-2013 00:00:00 21.0375 C 69.9514 %
550 07-08-2013 00:00:00 19.9375 C 74.9583 %
Sensor: Nr:Datum:Temp:Feuchte:
Aussen-T/F 551 08-08-2013 00:00:00 17.49861 C 69.0278 %
552 09-08-2013 00:00:00 17.84306 C 66.3819 %
553 10-08-2013 00:00:00 18.44722 C 59.2569 %
554 11-08-2013 00:00:00 18.45105 C 52.2937 %
555 12-08-2013 00:00:00 16.21528 C 69.3403 %
556 13-08-2013 00:00:00 16.09097 C 67.8056 %
557 14-08-2013 00:00:00 15.09931 C 67.4583 %
558 15-08-2013 00:00:00 17.06944 C 63.1181 %
559 16-08-2013 00:00:00 19.12708 C 60.3542 %
560 17-08-2013 00:00:00 21.38889 C 53.5764 %
561 18-08-2013 00:00:00 19.78542 C 65.1736 %
562 19-08-2013 00:00:00 18.24583 C 66.1181 %
563 20-08-2013 00:00:00 15.25486 C 64.9306 %
564 21-08-2013 00:00:00 16.76875 C 64.0000 %
565 22-08-2013 00:00:00 17.78819 C 63.1458 %
566 23-08-2013 00:00:00 20.25625 C 56.4722 %
567 24-08-2013 00:00:00 16.26667 C 76.0417 %
568 25-08-2013 00:00:00 16.27153 C 83.2222 %
569 26-08-2013 00:00:00 15.62569 C 83.7361 %
570 27-08-2013 00:00:00 17.50417 C 69.7847 %
571 28-08-2013 00:00:00 16.01875 C 71.9722 %
572 29-08-2013 00:00:00 15.73776 C 74.8951 %
573 30-08-2013 00:00:00 16 C 75.8194 %
574 31-08-2013 00:00:00 16.81667 C 72.5833 %
575 01-09-2013 00:00:00 15.05 C 59.2083 %
Sensor: Nr:Datum:Temp:Feuchte:
Aussen-T/F 576 02-09-2013 00:00:00 17.9625 C 54.6875 %
577 03-09-2013 00:00:00 18.93056 C 63.8403 %
578 04-09-2013 00:00:00 18.69931 C 68.9514 %
579 05-09-2013 00:00:00 19.92708 C 66.9236 %
580 06-09-2013 00:00:00 20.51102 C 65.9764 %
581 07-09-2013 00:00:00 18.64234 C 79.3604 %
582 08-09-2013 00:00:00 14.95 C 83.7417 %
583 09-09-2013 00:00:00 14.2225 C 76.3667 %
584 10-09-2013 00:00:00 13.27583 C 72.1833 %
585 11-09-2013 00:00:00 12.97417 C 76.4167 %
586 12-09-2013 00:00:00 13.33 C 85.7917 %
587 13-09-2013 00:00:00 15.08833 C 75.0583 %
588 14-09-2013 00:00:00 15.775 C 82.0167 %
589 15-09-2013 00:00:00 14.7375 C 73.7167 %
590 16-09-2013 00:00:00 13.17583 C 70.0250 %
591 17-09-2013 00:00:00 10.4675 C 69.2667 %
592 18-09-2013 00:00:00 12.2325 C 85.2000 %
593 19-09-2013 00:00:00 11.74667 C 76.8500 %
594 20-09-2013 00:00:00 13.82083 C 72.7833 %
595 21-09-2013 00:00:00 12.73083 C 78.2417 %
596 22-09-2013 00:00:00 13.99917 C 77.0083 %
597 23-09-2013 00:00:00 15.68667 C 75.1167 %
598 24-09-2013 00:00:00 12.605 C 82.3000 %
599 25-09-2013 00:00:00 14.53667 C 81.2500 %
600 26-09-2013 00:00:00 14.6175 C 79.6083 %
Sensor: Nr:Datum:Temp:Feuchte:
Aussen-T/F 601 27-09-2013 00:00:00 11.11083 C 79.6083 %
602 28-09-2013 00:00:00 10.5125 C 78.2167 %
603 29-09-2013 00:00:00 12.19917 C 71.2583 %
604 30-09-2013 00:00:00 9.5475 C 76.1583 %
605 01-10-2013 00:00:00 11.49417 C 65.3750 %
606 02-10-2013 00:00:00 8.68667 C 71.2250 %
607 03-10-2013 00:00:00 8.14083 C 71.4500 %
608 04-10-2013 00:00:00 11.28583 C 79.8833 %
609 05-10-2013 00:00:00 12.3875 C 90.5833 %
610 06-10-2013 00:00:00 13.47167 C 82.4667 %
611 07-10-2013 00:00:00 13.27917 C 82.1167 %
612 08-10-2013 00:00:00 13.52083 C 83.5667 %
613 09-10-2013 00:00:00 13.74167 C 80.1083 %
614 10-10-2013 00:00:00 8.21833 C 91.2667 %
615 11-10-2013 00:00:00 6.70083 C 94.0083 %
616 12-10-2013 00:00:00 6.50917 C 88.3000 %
617 13-10-2013 00:00:00 7.4 C 80.6330 %
618 14-10-2013 00:00:00 9.37833 C 83.5000 %
619 15-10-2013 00:00:00 9.93083 C 88.3000 %
620 16-10-2013 00:00:00 9.74917 C 89.4417 %
621 17-10-2013 00:00:00 12.01833 C 79.5833 %
622 18-10-2013 00:00:00 12.17833 C 87.2917 %
623 19-10-2013 00:00:00 10.08333 C 90.9667 %
624 20-10-2013 00:00:00 15.1725 C 80.6833 %
625 21-10-2013 00:00:00 17.5 C 64.0000 %
Sensor: Nr:Datum:Temp:Feuchte:
Aussen-T/F 626 22-10-2013 00:00:00 17.15686 C 75.1569 %
627 23-10-2013 00:00:00 15.29833 C 84.3583 %
628 24-10-2013 00:00:00 13.13167 C 88.7667 %
629 25-10-2013 00:00:00 12.41833 C 90.9333 %
630 26-10-2013 00:00:00 15.91333 C 85.3500 %
631 27-10-2013 00:00:00 14.4504 C 73.1120 %
632 28-10-2013 00:00:00 14.83667 C 65.6833 %
633 29-10-2013 00:00:00 10.60917 C 64.8833 %
634 30-10-2013 00:00:00 7.015 C 78.7833 %
635 31-10-2013 00:00:00 4.92833 C 88.6833 %
636 01-11-2013 00:00:00 8.92667 C 81.6083 %
637 02-11-2013 00:00:00 12.1225 C 82.6250 %
638 03-11-2013 00:00:00 9.2675 C 74.3250 %
639 04-11-2013 00:00:00 9.02333 C 80.1750 %
640 05-11-2013 00:00:00 6.13833 C 79.2333 %
641 06-11-2013 00:00:00 10.18224 C 79.8692 %
642 07-11-2013 00:00:00 14.62917 C 71.4333 %
643 08-11-2013 00:00:00 11.35333 C 87.9333 %
644 09-11-2013 00:00:00 8.7625 C 70.1000 %
645 10-11-2013 00:00:00 6.00833 C 86.3667 %
646 11-11-2013 00:00:00 3.58417 C 92.7333 %
647 12-11-2013 00:00:00 4.075 C 88.3417 %
648 13-11-2013 00:00:00 5.45 C 90.5917 %
649 14-11-2013 00:00:00 2.6082 C 94.2951 %
650 15-11-2013 00:00:00 4.1125 C 87.3000 %
Sensor: Nr:Datum:Temp:Feuchte:
Aussen-T/F 651 16-11-2013 00:00:00 2.4475 C 87.7917 %
652 17-11-2013 00:00:00 2.81667 C 90.1500 %
653 18-11-2013 00:00:00 4.84528 C 88.3962 %
654 19-11-2013 00:00:00 5.75917 C 86.2833 %
655 20-11-2013 00:00:00 3.865 C 89.1833 %
656 21-11-2013 00:00:00 3.22917 C 84.2000 %
657 22-11-2013 00:00:00 3.46667 C 81.1417 %
658 23-11-2013 00:00:00 5.55167 C 79.5333 %
659 24-11-2013 00:00:00 4.62583 C 78.1167 %
660 25-11-2013 00:00:00 0.67417 C 90.7083 %
661 26-11-2013 00:00:00 -0.05417 C 93.6750 %
662 27-11-2013 00:00:00 0.145 C 86.7250 %
663 28-11-2013 00:00:00 2.9425 C 89.9583 %
664 29-11-2013 00:00:00 4.855 C 86.5583 %
665 30-11-2013 00:00:00 3.43333 C 91.4417 %
666 01-12-2013 00:00:00 4.45417 C 91.0333 %
667 02-12-2013 00:00:00 3.74167 C 89.7750 %
668 03-12-2013 00:00:00 -1.565 C 94.9583 %
669 04-12-2013 00:00:00 2.52333 C 85.8750 %
670 05-12-2013 00:00:00 2.80777 C 84.3883 %
671 06-12-2013 00:00:00 2.81083 C 64.4333 %
672 07-12-2013 00:00:00 3.56667 C 77.3333 %
673 08-12-2013 00:00:00 6.17083 C 77.8333 %
674 09-12-2013 00:00:00 5.42583 C 74.5750 %
675 10-12-2013 00:00:00 2.79083 C 92.1333 %
Sensor: Nr:Datum:Temp:Feuchte:
Aussen-T/F 676 11-12-2013 00:00:00 3.43083 C 90.8917 %
677 12-12-2013 00:00:00 3.735 C 82.8250 %
678 13-12-2013 00:00:00 2.27167 C 79.6583 %
679 14-12-2013 00:00:00 2.95243 C 86.3398 %
680 15-12-2013 00:00:00 4.013 C 78.2600 %
681 16-12-2013 00:00:00 0.29146 C 93.7805 %
682 17-12-2013 00:00:00 -0.25083 C 93.6250 %
683 18-12-2013 00:00:00 3.16167 C 91.8417 %
684 19-12-2013 00:00:00 7.02667 C 82.2333 %
685 20-12-2013 00:00:00 3.31417 C 88.7667 %
686 21-12-2013 00:00:00 3.82833 C 72.9833 %
687 22-12-2013 00:00:00 7.96917 C 72.8000 %
688 23-12-2013 00:00:00 7.35333 C 79.1583 %
689 24-12-2013 00:00:00 10.13333 C 64.9667 %
690 25-12-2013 00:00:00 7.49583 C 90.2250 %
691 26-12-2013 00:00:00 5.44833 C 92.3583 %
692 27-12-2013 00:00:00 5.99333 C 75.8250 %
693 28-12-2013 00:00:00 8.23167 C 84.7000 %
694 29-12-2013 00:00:00 4.16 C 88.9833 %
695 30-12-2013 00:00:00 3.43083 C 81.6250 %
696 31-12-2013 00:00:00 2.19333 C 84.4750 %
697 01-01-2014 00:00:00 5.50667 C 78.1250 %
698 02-01-2014 00:00:00 7.305 C 83.0417 %
699 03-01-2014 00:00:00 7.61917 C 80.7083 %
700 04-01-2014 00:00:00 6.67083 C 81.1667 %
Sensor: Nr:Datum:Temp:Feuchte:
Aussen-T/F 701 05-01-2014 00:00:00 5.215 C 84.7750 %
702 06-01-2014 00:00:00 7.40083 C 82.0917 %
703 07-01-2014 00:00:00 9.8425 C 76.9000 %
704 08-01-2014 00:00:00 9.20583 C 78.7000 %
705 09-01-2014 00:00:00 8.2425 C 80.7417 %
706 10-01-2014 00:00:00 4.4125 C 80.8167 %
707 11-01-2014 00:00:00 2.6025 C 91.7167 %
708 12-01-2014 00:00:00 -0.045 C 94.9833 %
709 13-01-2014 00:00:00 2.99667 C 91.8750 %
710 14-01-2014 00:00:00 4.04583 C 92.4333 %
711 15-01-2014 00:00:00 3.3125 C 89.9583 %
712 16-01-2014 00:00:00 5.705 C 89.2750 %
713 17-01-2014 00:00:00 5.83833 C 89.3000 %
714 18-01-2014 00:00:00 3.36667 C 87.7667 %
715 19-01-2014 00:00:00 3.87 C 86.0250 %
716 20-01-2014 00:00:00 3.7075 C 91.5000 %
717 21-01-2014 00:00:00 2.94917 C 87.6250 %
718 22-01-2014 00:00:00 2.84 C 88.4083 %
719 23-01-2014 00:00:00 2.7675 C 88.6083 %
720 24-01-2014 00:00:00 3.13667 C 90.7667 %
721 25-01-2014 00:00:00 2.6675 C 86.8750 %
722 26-01-2014 00:00:00 4.29417 C 73.8417 %
723 27-01-2014 00:00:00 3.30417 C 81.3333 %
724 28-01-2014 00:00:00 2.44917 C 80.9750 %
725 29-01-2014 00:00:00 1.085 C 77.1500 %
Sensor: Nr:Datum:Temp:Feuchte:
Aussen-T/F 726 30-01-2014 00:00:00 1.07833 C 75.1167 %
727 31-01-2014 00:00:00 -0.26083 C 87.9000 %
728 01-02-2014 00:00:00 3.49583 C 85.1333 %
729 02-02-2014 00:00:00 2.86667 C 86.3083 %
730 03-02-2014 00:00:00 0.1375 C 93.6583 %
731 04-02-2014 00:00:00 3.19167 C 83.8000 %
732 05-02-2014 00:00:00 3.58 C 86.2667 %
733 06-02-2014 00:00:00 7.54583 C 64.0667 %
734 07-02-2014 00:00:00 7.695 C 68.6333 %
735 08-02-2014 00:00:00 5.565 C 76.7167 %
736 09-02-2014 00:00:00 4.44583 C 71.4333 %
737 10-02-2014 00:00:00 2.5125 C 82.2667 %
738 11-02-2014 00:00:00 4.48833 C 73.8417 %
739 12-02-2014 00:00:00 4.4 C 72.4167 %
740 13-02-2014 00:00:00 4.64333 C 83.1917 %
741 14-02-2014 00:00:00 4.95667 C 76.4083 %
742 15-02-2014 00:00:00 8.83083 C 70.1000 %
743 16-02-2014 00:00:00 6.62417 C 69.2000 %
744 17-02-2014 00:00:00 2.95917 C 85.3083 %
745 18-02-2014 00:00:00 3.01333 C 88.3333 %
746 19-02-2014 00:00:00 7.12 C 74.4167 %
747 20-02-2014 00:00:00 8.25417 C 69.8917 %
748 21-02-2014 00:00:00 6.84167 C 74.6500 %
749 22-02-2014 00:00:00 4.36667 C 79.1333 %
750 23-02-2014 00:00:00 5.66583 C 71.6167 %
Sensor: Nr:Datum:Temp:Feuchte:
Aussen-T/F 751 24-02-2014 00:00:00 4.7475 C 73.8083 %
752 25-02-2014 00:00:00 5.91417 C 73.5417 %
753 26-02-2014 00:00:00 8.12167 C 68.4083 %
754 27-02-2014 00:00:00 4.9375 C 77.7583 %
755 28-02-2014 00:00:00 5.94417 C 78.4083 %
756 01-03-2014 00:00:00 5.01417 C 81.1167 %
757 02-03-2014 00:00:00 3.36083 C 78.8167 %
758 03-03-2014 00:00:00 4.525 C 77.9167 %
759 04-03-2014 00:00:00 3.62583 C 78.8167 %
760 05-03-2014 00:00:00 4.83083 C 74.8750 %
761 06-03-2014 00:00:00 3.69167 C 80.2333 %
762 07-03-2014 00:00:00 4.4395 C 75.8151 %
763 08-03-2014 00:00:00 6.50583 C 72.3833 %
764 09-03-2014 00:00:00 6.5075 C 69.7750 %
765 10-03-2014 00:00:00 6.72583 C 67.7083 %
766 11-03-2014 00:00:00 7.665 C 70.2000 %
767 12-03-2014 00:00:00 8.435 C 65.1333 %
768 13-03-2014 00:00:00 7.41 C 66.7667 %
769 14-03-2014 00:00:00 7.39833 C 68.3167 %
770 15-03-2014 00:00:00 8.405 C 65.7000 %
771 16-03-2014 00:00:00 11.44167 C 61.8500 %
772 17-03-2014 00:00:00 10.15 C 68.0000 %
773 18-03-2014 00:00:00 9.12167 C 70.5083 %
774 19-03-2014 00:00:00 12.3525 C 55.3000 %
775 20-03-2014 00:00:00 12.49917 C 57.2000 %
Sensor: Nr:Datum:Temp:Feuchte:
Aussen-T/F 776 21-03-2014 00:00:00 12.845 C 52.9667 %
777 22-03-2014 00:00:00 8.38917 C 74.2417 %
778 23-03-2014 00:00:00 5.71167 C 72.8250 %
779 24-03-2014 00:00:00 5.77583 C 66.6500 %
780 25-03-2014 00:00:00 4.55417 C 70.1917 %
781 26-03-2014 00:00:00 4.3175 C 69.4500 %
782 27-03-2014 00:00:00 7.81 C 64.2333 %
783 28-03-2014 00:00:00 10.475 C 55.4333 %
784 29-03-2014 00:00:00 10.83583 C 59.0833 %
785 30-03-2014 00:00:00 10.71391 C 60.6957 %
786 31-03-2014 00:00:00 13.25667 C 54.7500 %
787 01-04-2014 00:00:00 14.30833 C 53.5667 %
788 02-04-2014 00:00:00 14.02083 C 57.7250 %
789 03-04-2014 00:00:00 14.61917 C 56.6417 %
790 04-04-2014 00:00:00 15.37833 C 58.2833 %
791 05-04-2014 00:00:00 13.515 C 69.1583 %
792 06-04-2014 00:00:00 12.56833 C 67.4750 %
793 07-04-2014 00:00:00 17.47333 C 54.4333 %
794 08-04-2014 00:00:00 12.06833 C 53.4083 %
795 09-04-2014 00:00:00 8.37167 C 77.6667 %
796 10-04-2014 00:00:00 11.6175 C 64.2333 %
797 11-04-2014 00:00:00 12.46 C 65.9000 %
798 12-04-2014 00:00:00 13.47667 C 54.7250 %
799 13-04-2014 00:00:00 11.77 C 56.6917 %
800 14-04-2014 00:00:00 10.39833 C 56.4750 %
Sensor: Nr:Datum:Temp:Feuchte:
Aussen-T/F 801 15-04-2014 00:00:00 7.21917 C 60.6750 %
802 16-04-2014 00:00:00 8.42083 C 58.9667 %
803 17-04-2014 00:00:00 10.6725 C 52.8167 %
804 18-04-2014 00:00:00 11.72333 C 49.8833 %
805 19-04-2014 00:00:00 11.07333 C 57.7083 %
806 20-04-2014 00:00:00 15.2525 C 56.9667 %
807 21-04-2014 00:00:00 12.4075 C 66.8500 %
808 22-04-2014 00:00:00 13.85083 C 70.9167 %
809 23-04-2014 00:00:00 14.20417 C 68.9250 %
810 24-04-2014 00:00:00 16.0275 C 64.6750 %
811 25-04-2014 00:00:00 17.41917 C 61.3833 %
812 26-04-2014 00:00:00 15.7325 C 58.6167 %
813 27-04-2014 00:00:00 13.7605 C 68.0420 %
814 28-04-2014 00:00:00 13.58417 C 63.8250 %
815 29-04-2014 00:00:00 13.94417 C 76.6167 %
816 30-04-2014 00:00:00 14.89091 C 71.2231 %
817 01-05-2014 00:00:00 15.1 C 66.5417 %
818 02-05-2014 00:00:00 12.12917 C 71.6667 %
819 03-05-2014 00:00:00 12.01833 C 46.6583 %
820 04-05-2014 00:00:00 11.0725 C 53.3500 %
821 05-05-2014 00:00:00 13.77083 C 53.8583 %
822 06-05-2014 00:00:00 14.19417 C 57.6333 %
823 07-05-2014 00:00:00 13.45917 C 72.5500 %
824 08-05-2014 00:00:00 12.2475 C 73.3750 %
825 09-05-2014 00:00:00 13.70083 C 71.2167 %
Sensor: Nr:Datum:Temp:Feuchte:
Aussen-T/F 826 10-05-2014 00:00:00 12.32167 C 67.7917 %
827 11-05-2014 00:00:00 11.89 C 66.5333 %
828 12-05-2014 00:00:00 11.46167 C 58.3000 %
829 13-05-2014 00:00:00 10.64583 C 70.4750 %
830 14-05-2014 00:00:00 11.03083 C 64.9333 %
831 15-05-2014 00:00:00 10.38417 C 64.4083 %
832 16-05-2014 00:00:00 14.005 C 56.9083 %
833 17-05-2014 00:00:00 14.52 C 58.3083 %
834 18-05-2014 00:00:00 15.88333 C 57.9583 %
835 19-05-2014 00:00:00 18.905 C 54.6000 %
836 20-05-2014 00:00:00 20.5625 C 47.7167 %
837 21-05-2014 00:00:00 21.21417 C 49.9583 %
838 22-05-2014 00:00:00 20.7625 C 51.8667 %
839 23-05-2014 00:00:00 16.46 C 76.2500 %
840 24-05-2014 00:00:00 15.36083 C 67.1083 %
841 25-05-2014 00:00:00 16.33583 C 60.2917 %
842 26-05-2014 00:00:00 17.66917 C 61.6250 %
843 27-05-2014 00:00:00 15.22667 C 84.1333 %
844 28-05-2014 00:00:00 14.83333 C 69.7833 %
845 29-05-2014 00:00:00 13.815 C 72.2083 %
846 30-05-2014 00:00:00 14.52583 C 50.4083 %
847 31-05-2014 00:00:00 14.00583 C 58.2833 %
848 01-06-2014 00:00:00 16.22167 C 52.6000 %
849 02-06-2014 00:00:00 17.8275 C 49.1333 %
850 03-06-2014 00:00:00 16.55417 C 55.6250 %
Sensor: Nr:Datum:Temp:Feuchte:
Aussen-T/F 851 04-06-2014 00:00:00 15.92417 C 69.9083 %
852 05-06-2014 00:00:00 15.26 C 55.0083 %
853 06-06-2014 00:00:00 17.89417 C 53.9500 %
854 07-06-2014 00:00:00 21.3125 C 55.1667 %
855 08-06-2014 00:00:00 25.15833 C 53.3583 %
856 09-06-2014 00:00:00 26.89917 C 51.4583 %
857 10-06-2014 00:00:00 24.50083 C 52.5333 %
858 11-06-2014 00:00:00 21.1525 C 63.8667 %
859 12-06-2014 00:00:00 21.07 C 51.5917 %
860 13-06-2014 00:00:00 19.54333 C 51.4250 %
861 14-06-2014 00:00:00 18.24833 C 47.8083 %
862 15-06-2014 00:00:00 17.39 C 51.1500 %
863 16-06-2014 00:00:00 16.1625 C 57.3417 %
864 17-06-2014 00:00:00 18.13 C 49.2417 %
865 18-06-2014 00:00:00 18.77417 C 54.6167 %
866 19-06-2014 00:00:00 16.59667 C 57.9417 %
867 20-06-2014 00:00:00 15.5075 C 59.4083 %
868 21-06-2014 00:00:00 17.8575 C 48.0167 %
869 22-06-2014 00:00:00 17.71833 C 49.3250 %
870 23-06-2014 00:00:00 17.73917 C 49.0750 %
871 24-06-2014 00:00:00 16.37083 C 62.7333 %
872 25-06-2014 00:00:00 16.6625 C 55.5583 %
873 26-06-2014 00:00:00 17.295 C 48.7333 %
874 27-06-2014 00:00:00 17.98 C 51.8500 %
875 28-06-2014 00:00:00 16.63583 C 73.8917 %
Sensor: Nr:Datum:Temp:Feuchte:
Aussen-T/F 876 29-06-2014 00:00:00 14.55333 C 85.9917 %
877 30-06-2014 00:00:00 16.2075 C 65.0917 %
878 01-07-2014 00:00:00 15.93 C 56.7500 %
879 02-07-2014 00:00:00 17.66083 C 51.8083 %
880 03-07-2014 00:00:00 20.67083 C 47.1750 %
881 04-07-2014 00:00:00 20.79667 C 51.3667 %
882 05-07-2014 00:00:00 20.7075 C 60.1333 %
883 06-07-2014 00:00:00 24.195 C 55.3667 %
884 07-07-2014 00:00:00 21.00667 C 52.2417 %
885 08-07-2014 00:00:00 15.4325 C 81.9333 %
886 09-07-2014 00:00:00 12.565 C 90.3333 %
887 10-07-2014 00:00:00 17.89833 C 77.5917 %
888 11-07-2014 00:00:00 19.6525 C 72.4000 %
889 12-07-2014 00:00:00 19.19417 C 71.7500 %
890 13-07-2014 00:00:00 19.30917 C 70.4417 %
891 14-07-2014 00:00:00 19.5325 C 63.9500 %
892 15-07-2014 00:00:00 20.23167 C 61.1500 %
893 16-07-2014 00:00:00 23.38417 C 54.8917 %
894 17-07-2014 00:00:00 23.18167 C 56.1500 %
895 18-07-2014 00:00:00 24.74583 C 52.4583 %
896 19-07-2014 00:00:00 25.02083 C 49.1667 %
897 20-07-2014 00:00:00 23.255 C 62.9250 %
898 21-07-2014 00:00:00 20.67917 C 76.0833 %
899 22-07-2014 00:00:00 23.93167 C 66.2750 %
900 23-07-2014 00:00:00 24.08167 C 57.3583 %
Sensor: Nr:Datum:Temp:Feuchte:
Aussen-T/F 901 24-07-2014 00:00:00 20.5825 C 59.2333 %
902 25-07-2014 00:00:00 20.035 C 65.2583 %
903 26-07-2014 00:00:00 21.4275 C 61.7750 %
904 27-07-2014 00:00:00 22.06667 C 60.3583 %
905 28-07-2014 00:00:00 21.97917 C 62.9167 %
906 29-07-2014 00:00:00 20.16333 C 85.0500 %
907 30-07-2014 00:00:00 20.2625 C 72.3750 %
908 31-07-2014 00:00:00 21.765 C 58.8083 %
909 01-08-2014 00:00:00 21.43167 C 62.8000 %
910 02-08-2014 00:00:00 20.69 C 68.4917 %
911 03-08-2014 00:00:00 21.8375 C 62.9583 %
912 04-08-2014 00:00:00 19.43667 C 70.3250 %
913 05-08-2014 00:00:00 19.66167 C 65.3333 %
914 06-08-2014 00:00:00 17.87 C 70.1750 %
915 07-08-2014 00:00:00 19.71583 C 71.2417 %
916 08-08-2014 00:00:00 18.99244 C 76.3109 %
917 09-08-2014 00:00:00 20.905 C 64.4167 %
918 10-08-2014 00:00:00 19.14333 C 76.2833 %
919 11-08-2014 00:00:00 17.42917 C 68.8917 %
920 12-08-2014 00:00:00 18.35 C 56.2083 %
921 13-08-2014 00:00:00 16.19917 C 76.1250 %
922 14-08-2014 00:00:00 16.49917 C 71.6750 %
923 15-08-2014 00:00:00 14.77167 C 80.5083 %
924 16-08-2014 00:00:00 15.25667 C 79.6417 %
925 17-08-2014 00:00:00 15.9275 C 65.1333 %
Sensor: Nr:Datum:Temp:Feuchte:
Aussen-T/F 926 18-08-2014 00:00:00 16.58583 C 59.3583 %
927 19-08-2014 00:00:00 13.895 C 70.0500 %
928 20-08-2014 00:00:00 13.07083 C 69.7583 %
929 21-08-2014 00:00:00 13.27167 C 69.0000 %
930 22-08-2014 00:00:00 14.33583 C 63.0167 %
931 23-08-2014 00:00:00 14.56 C 69.4917 %
932 24-08-2014 00:00:00 11.57667 C 85.1000 %
933 25-08-2014 00:00:00 13.18167 C 84.9333 %
934 26-08-2014 00:00:00 14.67667 C 89.2083 %
935 27-08-2014 00:00:00 15.95583 C 79.6417 %
936 28-08-2014 00:00:00 15.91167 C 80.5250 %
937 29-08-2014 00:00:00 18.03333 C 76.0000 %
938 30-08-2014 00:00:00 16.32917 C 79.4417 %
939 31-08-2014 00:00:00 14.66 C 83.3833 %
940 01-09-2014 00:00:00 14.71333 C 80.6500 %
941 02-09-2014 00:00:00 14.64 C 78.9167 %
942 03-09-2014 00:00:00 15.14 C 76.4500 %
943 04-09-2014 00:00:00 17.0775 C 74.2667 %
944 05-09-2014 00:00:00 18.66833 C 75.6083 %
945 06-09-2014 00:00:00 18.33917 C 76.5167 %
946 07-09-2014 00:00:00 19.26417 C 69.1417 %
947 08-09-2014 00:00:00 18.5175 C 67.4917 %
948 09-09-2014 00:00:00 16.67417 C 64.7000 %
949 10-09-2014 00:00:00 14.83583 C 66.0250 %
950 11-09-2014 00:00:00 15.42417 C 66.8583 %
Sensor: Nr:Datum:Temp:Feuchte:
Aussen-T/F 951 12-09-2014 00:00:00 14.2075 C 70.2000 %
952 13-09-2014 00:00:00 16.16167 C 74.0667 %
953 14-09-2014 00:00:00 17.56417 C 69.1833 %
954 15-09-2014 00:00:00 16.5525 C 75.1833 %
955 16-09-2014 00:00:00 17.40583 C 74.2083 %
956 17-09-2014 00:00:00 16.28917 C 78.0000 %
957 18-09-2014 00:00:00 17.725 C 83.2083 %
958 19-09-2014 00:00:00 18.6325 C 82.2083 %
959 20-09-2014 00:00:00 17.03083 C 86.5333 %
960 21-09-2014 00:00:00 15.27583 C 87.6250 %
961 22-09-2014 00:00:00 12.79333 C 73.3750 %
962 23-09-2014 00:00:00 10.37083 C 78.9833 %
963 24-09-2014 00:00:00 11.275 C 78.3750 %
964 25-09-2014 00:00:00 13.71917 C 72.4500 %
965 26-09-2014 00:00:00 14.2225 C 76.1083 %
966 27-09-2014 00:00:00 15.72083 C 78.0000 %
967 28-09-2014 00:00:00 14.60417 C 81.9750 %
968 29-09-2014 00:00:00 15.5 C 83.5250 %
969 30-09-2014 00:00:00 16.74667 C 82.0667 %
970 01-10-2014 00:00:00 15.65667 C 83.6083 %
971 02-10-2014 00:00:00 14.43333 C 84.2583 %
972 03-10-2014 00:00:00 13.82917 C 83.5917 %
973 04-10-2014 00:00:00 12.6425 C 83.8250 %
974 05-10-2014 00:00:00 13.02917 C 82.9917 %
975 06-10-2014 00:00:00 14.35833 C 77.2833 %
Sensor: Nr:Datum:Temp:Feuchte:
Aussen-T/F 976 07-10-2014 00:00:00 13.26667 C 84.4833 %
977 08-10-2014 00:00:00 13.03417 C 92.3583 %
978 09-10-2014 00:00:00 15.08333 C 91.5583 %
979 10-10-2014 00:00:00 13.88 C 89.8167 %
980 11-10-2014 00:00:00 14.66417 C 86.5417 %
981 12-10-2014 00:00:00 12.50333 C 86.5667 %
982 13-10-2014 00:00:00 14.65667 C 87.5917 %
983 14-10-2014 00:00:00 12.4325 C 86.2667 %
984 15-10-2014 00:00:00 11.4075 C 89.0583 %
985 16-10-2014 00:00:00 13.5925 C 88.3917 %
986 17-10-2014 00:00:00 13.47833 C 86.3917 %
987 18-10-2014 00:00:00 12.195 C 90.8167 %
988 19-10-2014 00:00:00 14.28333 C 85.3750 %
989 20-10-2014 00:00:00 14.38917 C 74.1667 %
990 21-10-2014 00:00:00 11.20083 C 75.2750 %
991 22-10-2014 00:00:00 8.1 C 78.4833 %
992 23-10-2014 00:00:00 9.89667 C 79.4333 %
993 24-10-2014 00:00:00 10.00333 C 83.3000 %
994 25-10-2014 00:00:00 11.1725 C 86.7750 %
995 26-10-2014 00:00:00 10.8064 C 88.2400 %
996 27-10-2014 00:00:00 8.985 C 88.6167 %
997 28-10-2014 00:00:00 7.8375 C 74.6167 %
998 29-10-2014 00:00:00 8.90333 C 82.7167 %
999 30-10-2014 00:00:00 11.62417 C 89.8833 %
1000 31-10-2014 00:00:00 11.50917 C 89.3417 %
Sensor: Nr:Datum:Temp:Feuchte:
Aussen-T/F 1001 01-11-2014 00:00:00 10.5225 C 91.9333 %
1002 02-11-2014 00:00:00 10.71667 C 90.0417 %
1003 03-11-2014 00:00:00 13.025 C 80.6083 %
1004 04-11-2014 00:00:00 10.72833 C 91.1417 %
1005 05-11-2014 00:00:00 8.93667 C 89.0583 %
1006 06-11-2014 00:00:00 5.9725 C 85.6667 %
1007 07-11-2014 00:00:00 5.22917 C 87.8250 %
1008 08-11-2014 00:00:00 7.955 C 83.9750 %
1009 09-11-2014 00:00:00 6.18667 C 91.2250 %
1010 10-11-2014 00:00:00 8.08 C 90.5167 %
1011 11-11-2014 00:00:00 8.05167 C 86.8417 %
1012 12-11-2014 00:00:00 9.01917 C 87.1250 %
1013 13-11-2014 00:00:00 9.21 C 90.1667 %
1014 14-11-2014 00:00:00 9.9875 C 79.0833 %
1015 15-11-2014 00:00:00 9.22083 C 87.0500 %
1016 16-11-2014 00:00:00 8.2275 C 94.2500 %
1017 17-11-2014 00:00:00 8.16083 C 93.8250 %
1018 18-11-2014 00:00:00 8.18583 C 91.6083 %
1019 19-11-2014 00:00:00 7.55 C 90.6417 %
1020 20-11-2014 00:00:00 6.13167 C 86.5333 %
1021 21-11-2014 00:00:00 4.68583 C 89.6833 %
1022 22-11-2014 00:00:00 5.0825 C 90.6667 %
1023 23-11-2014 00:00:00 5.43667 C 93.0500 %
1024 24-11-2014 00:00:00 6.43417 C 88.6917 %
1025 25-11-2014 00:00:00 2.7725 C 94.0417 %
Sensor: Nr:Datum:Temp:Feuchte:
Aussen-T/F 1026 26-11-2014 00:00:00 4.77167 C 78.6500 %
1027 27-11-2014 00:00:00 5.515 C 84.1250 %
1028 28-11-2014 00:00:00 5.085 C 80.9083 %
1029 29-11-2014 00:00:00 4.1225 C 76.3000 %
1030 30-11-2014 00:00:00 3.5875 C 80.5583 %
1031 01-12-2014 00:00:00 2.88167 C 80.1500 %
1032 02-12-2014 00:00:00 1.2775 C 80.5167 %
1033 03-12-2014 00:00:00 1.37917 C 88.1667 %
1034 04-12-2014 00:00:00 1.855 C 84.1917 %
1035 05-12-2014 00:00:00 3.6275 C 84.5500 %
1036 06-12-2014 00:00:00 3.9425 C 88.7167 %
1037 07-12-2014 00:00:00 3.6 C 85.1667 %
1038 08-12-2014 00:00:00 2.20167 C 88.2083 %
1039 09-12-2014 00:00:00 1.87333 C 93.5500 %
1040 10-12-2014 00:00:00 3.53667 C 82.2500 %
1041 11-12-2014 00:00:00 5.345 C 81.6500 %
1042 12-12-2014 00:00:00 8.3375 C 73.7417 %
1043 13-12-2014 00:00:00 3.93083 C 94.2750 %
1044 14-12-2014 00:00:00 2.09344 C 93.4344 %
1045 15-12-2014 00:00:00 2.64417 C 88.8417 %
1046 16-12-2014 00:00:00 5.34454 C 84.8403 %
1047 17-12-2014 00:00:00 5.2575 C 85.2500 %
1048 18-12-2014 00:00:00 11.2075 C 79.4583 %
1049 19-12-2014 00:00:00 9.8525 C 74.0083 %
1050 20-12-2014 00:00:00 5.07917 C 74.9583 %
Sensor: Nr:Datum:Temp:Feuchte:
Aussen-T/F 1051 21-12-2014 00:00:00 5.61176 C 78.9496 %
1052 22-12-2014 00:00:00 7.795 C 74.1500 %
1053 23-12-2014 00:00:00 9.51333 C 70.7417 %
1054 24-12-2014 00:00:00 7.80833 C 72.6167 %
1055 25-12-2014 00:00:00 4.1625 C 78.4917 %
1056 26-12-2014 00:00:00 2.16667 C 93.7917 %
1057 27-12-2014 00:00:00 0.65333 C 91.3250 %
1058 28-12-2014 00:00:00 -3.11 C 63.8667 %
1059 29-12-2014 00:00:00 -1.09417 C 80.2000 %
1060 30-12-2014 00:00:00 1.00917 C 85.8333 %
1061 31-12-2014 00:00:00 2.03667 C 89.7917 %
1062 01-01-2015 00:00:00 1.09917 C 91.6083 %
1063 02-01-2015 00:00:00 2.28833 C 81.9083 %
1064 03-01-2015 00:00:00 1.56917 C 89.7000 %
1065 04-01-2015 00:00:00 2.34 C 88.6583 %
1066 05-01-2015 00:00:00 -1.0425 C 91.8583 %
1067 06-01-2015 00:00:00 -1.56083 C 89.2667 %
1068 07-01-2015 00:00:00 1.58583 C 87.1583 %
1069 08-01-2015 00:00:00 5.70417 C 86.5583 %
1070 09-01-2015 00:00:00 8.4875 C 74.8583 %
1071 10-01-2015 00:00:00 12.01667 C 67.4167 %
1072 11-01-2015 00:00:00 4.37 C 61.3667 %
1073 12-01-2015 00:00:00 6.34917 C 69.2250 %
1074 13-01-2015 00:00:00 9.21583 C 60.7333 %
1075 14-01-2015 00:00:00 4.66 C 76.2917 %
Sensor: Nr:Datum:Temp:Feuchte:
Aussen-T/F 1076 15-01-2015 00:00:00 8.05 C 67.8417 %
1077 16-01-2015 00:00:00 6.22 C 78.4250 %
1078 17-01-2015 00:00:00 2.72417 C 85.6167 %
1079 18-01-2015 00:00:00 1.15 C 74.1750 %
1080 19-01-2015 00:00:00 0.40417 C 80.5083 %
1081 20-01-2015 00:00:00 0.44833 C 82.7833 %
1082 21-01-2015 00:00:00 -0.72 C 78.1000 %
1083 22-01-2015 00:00:00 0.885 C 71.2833 %
1084 23-01-2015 00:00:00 0.86333 C 79.0417 %
1085 24-01-2015 00:00:00 0.37417 C 85.8500 %
1086 25-01-2015 00:00:00 1.53333 C 90.9000 %
1087 26-01-2015 00:00:00 2.28917 C 93.3167 %
1088 27-01-2015 00:00:00 3.08417 C 89.7167 %
1089 28-01-2015 00:00:00 3.30667 C 85.1833 %
1090 29-01-2015 00:00:00 2.22083 C 80.0167 %
1091 30-01-2015 00:00:00 1.16333 C 84.4583 %
1092 31-01-2015 00:00:00 1.24833 C 77.4833 %
1093 01-02-2015 00:00:00 0.8025 C 88.2167 %
1094 02-02-2015 00:00:00 1.6425 C 81.6583 %
1095 03-02-2015 00:00:00 0.70917 C 78.3833 %
1096 04-02-2015 00:00:00 -0.89583 C 77.4417 %
1097 05-02-2015 00:00:00 -1.95583 C 67.3417 %
1098 06-02-2015 00:00:00 -0.53833 C 54.3833 %
1099 07-02-2015 00:00:00 -1.495 C 65.9833 %
1100 08-02-2015 00:00:00 2.14833 C 71.8583 %
Sensor: Nr:Datum:Temp:Feuchte:
Aussen-T/F 1101 09-02-2015 00:00:00 3.22167 C 83.9500 %
1102 10-02-2015 00:00:00 4.31833 C 84.9917 %
1103 11-02-2015 00:00:00 3.44417 C 74.2167 %
1104 12-02-2015 00:00:00 2.35583 C 77.4917 %
1105 13-02-2015 00:00:00 1.6825 C 78.6167 %
1106 14-02-2015 00:00:00 2.955 C 76.5583 %
1107 15-02-2015 00:00:00 0.83417 C 79.7083 %
1108 16-02-2015 00:00:00 1.375 C 77.0917 %
1109 17-02-2015 00:00:00 2.8875 C 76.0583 %
1110 18-02-2015 00:00:00 3.53167 C 78.0250 %
1111 19-02-2015 00:00:00 0.41083 C 77.0500 %
1112 20-02-2015 00:00:00 6.3125 C 63.5083 %
1113 21-02-2015 00:00:00 4.67167 C 74.6833 %
1114 22-02-2015 00:00:00 3.25333 C 72.5333 %
1115 23-02-2015 00:00:00 2.82333 C 82.9333 %
1116 24-02-2015 00:00:00 4.16917 C 75.1833 %
1117 25-02-2015 00:00:00 3.6775 C 82.3250 %
1118 26-02-2015 00:00:00 5.68083 C 82.3917 %
1119 27-02-2015 00:00:00 4.77667 C 85.3250 %
1120 28-02-2015 00:00:00 2.12083 C 77.7167 %
1121 01-03-2015 00:00:00 7.28917 C 69.4583 %
1122 02-03-2015 00:00:00 5.68167 C 69.3917 %
1123 03-03-2015 00:00:00 4.9725 C 68.5583 %
1124 04-03-2015 00:00:00 3.96333 C 75.3500 %
1125 05-03-2015 00:00:00 4.70417 C 71.3750 %
Sensor: Nr:Datum:Temp:Feuchte:
Aussen-T/F 1126 06-03-2015 00:00:00 3.62667 C 75.5083 %
1127 07-03-2015 00:00:00 4.36667 C 72.3417 %
1128 08-03-2015 00:00:00 5.24417 C 74.3417 %
1129 09-03-2015 00:00:00 7.20833 C 73.7333 %
1130 10-03-2015 00:00:00 5.26667 C 93.7583 %
1131 11-03-2015 00:00:00 3.94917 C 79.4417 %
1132 12-03-2015 00:00:00 3.2625 C 73.6750 %
1133 13-03-2015 00:00:00 3.52667 C 65.1000 %
1134 14-03-2015 00:00:00 4.09417 C 70.8833 %
1135 15-03-2015 00:00:00 4.17667 C 81.2500 %
1136 16-03-2015 00:00:00 4.02833 C 78.7833 %
1137 17-03-2015 00:00:00 6.42917 C 74.4250 %
1138 18-03-2015 00:00:00 8.1825 C 73.3667 %
1139 19-03-2015 00:00:00 7.68583 C 80.3250 %
1140 20-03-2015 00:00:00 7.97833 C 68.2250 %
1141 21-03-2015 00:00:00 5.58917 C 79.9000 %
1142 22-03-2015 00:00:00 4.97851 C 70.1157 %
1143 23-03-2015 00:00:00 3.63333 C 72.3083 %
1144 24-03-2015 00:00:00 6.91333 C 68.1583 %
1145 25-03-2015 00:00:00 7.45167 C 69.7333 %
1146 26-03-2015 00:00:00 6.89083 C 64.1917 %
1147 27-03-2015 00:00:00 7.275 C 60.9667 %
1148 28-03-2015 00:00:00 8.14583 C 66.5167 %
1149 29-03-2015 00:00:00 11.21043 C 69.8870 %
1150 30-03-2015 00:00:00 7.73417 C 58.6750 %
Sensor: Nr:Datum:Temp:Feuchte:
Aussen-T/F 1151 31-03-2015 00:00:00 9.57083 C 61.3917 %
1152 01-04-2015 00:00:00 5.7575 C 57.7667 %
1153 02-04-2015 00:00:00 5.965 C 61.6500 %
1154 03-04-2015 00:00:00 5.47917 C 60.3083 %
1155 04-04-2015 00:00:00 5.84833 C 65.1583 %
1156 05-04-2015 00:00:00 4.70167 C 58.9667 %
1157 06-04-2015 00:00:00 5.09667 C 62.3833 %
1158 07-04-2015 00:00:00 5.6075 C 66.7833 %
1159 08-04-2015 00:00:00 8.03333 C 65.2833 %
1160 09-04-2015 00:00:00 10.68333 C 66.2667 %
1161 10-04-2015 00:00:00 12.5975 C 58.8333 %
1162 11-04-2015 00:00:00 12.1425 C 55.4250 %
1163 12-04-2015 00:00:00 11.29917 C 58.6333 %
1164 13-04-2015 00:00:00 11.2925 C 53.8667 %
1165 14-04-2015 00:00:00 13.26667 C 54.8333 %
1166 15-04-2015 00:00:00 16.03583 C 52.5500 %
1167 16-04-2015 00:00:00 14.85667 C 54.9750 %
1168 17-04-2015 00:00:00 11.28 C 53.7833 %
1169 18-04-2015 00:00:00 8.30333 C 53.1250 %
1170 19-04-2015 00:00:00 9.43083 C 51.3583 %
1171 20-04-2015 00:00:00 11.8275 C 49.4500 %
1172 21-04-2015 00:00:00 13.27833 C 49.4167 %
1173 22-04-2015 00:00:00 10.60917 C 54.1250 %
1174 23-04-2015 00:00:00 10.63083 C 58.6417 %
1175 24-04-2015 00:00:00 13.17667 C 52.5417 %
Sensor: Nr:Datum:Temp:Feuchte:
Aussen-T/F 1176 25-04-2015 00:00:00 12.9125 C 66.3667 %
1177 26-04-2015 00:00:00 15.42667 C 65.8083 %
1178 27-04-2015 00:00:00 10.30417 C 87.7167 %
1179 28-04-2015 00:00:00 8.89333 C 63.8833 %
1180 29-04-2015 00:00:00 8.29083 C 62.8750 %
1181 30-04-2015 00:00:00 9.585 C 68.6333 %
1182 01-05-2015 00:00:00 8.0975 C 73.7083 %
1183 02-05-2015 00:00:00 9.81083 C 66.7417 %
1184 03-05-2015 00:00:00 13.81833 C 78.0667 %
1185 04-05-2015 00:00:00 16.06417 C 72.1250 %
1186 05-05-2015 00:00:00 18.12917 C 62.4750 %
1187 06-05-2015 00:00:00 13.25833 C 57.6083 %
1188 07-05-2015 00:00:00 13.39 C 52.4500 %
1189 08-05-2015 00:00:00 14.455 C 53.7000 %
1190 09-05-2015 00:00:00 15.36583 C 62.0667 %
1191 10-05-2015 00:00:00 14.795 C 62.0917 %
1192 11-05-2015 00:00:00 17.42583 C 57.7500 %
1193 12-05-2015 00:00:00 17.955 C 59.3167 %
1194 13-05-2015 00:00:00 14.00083 C 55.4667 %
1195 14-05-2015 00:00:00 13.93833 C 58.5750 %
1196 15-05-2015 00:00:00 15.25583 C 63.9333 %
1197 16-05-2015 00:00:00 12.21167 C 62.2833 %
1198 17-05-2015 00:00:00 14.40083 C 55.0333 %
1199 18-05-2015 00:00:00 15.42833 C 52.3583 %
1200 19-05-2015 00:00:00 13.43277 C 49.9160 %
Sensor: Nr:Datum:Temp:Feuchte:
Aussen-T/F 1201 20-05-2015 00:00:00 11.94083 C 55.4083 %
1202 21-05-2015 00:00:00 11.78 C 56.4083 %
1203 22-05-2015 00:00:00 15.78583 C 47.5667 %
1204 23-05-2015 00:00:00 16.27917 C 52.1083 %
1205 24-05-2015 00:00:00 17.4275 C 57.6750 %
1206 25-05-2015 00:00:00 13.7775 C 75.4667 %
1207 26-05-2015 00:00:00 11.96333 C 58.6000 %
1208 27-05-2015 00:00:00 12.29333 C 53.7917 %
1209 28-05-2015 00:00:00 14.33917 C 53.4000 %
1210 29-05-2015 00:00:00 13.34417 C 59.1167 %
1211 30-05-2015 00:00:00 12.57583 C 59.2667 %
1212 31-05-2015 00:00:00 14.7625 C 58.4500 %
1213 01-06-2015 00:00:00 15.34667 C 64.0000 %
1214 02-06-2015 00:00:00 17.45167 C 60.0000 %
1215 03-06-2015 00:00:00 18.26417 C 53.1417 %
1216 04-06-2015 00:00:00 19.22 C 49.2167 %
1217 05-06-2015 00:00:00 23.11167 C 51.2333 %
1218 06-06-2015 00:00:00 20.8725 C 60.6750 %
1219 07-06-2015 00:00:00 18.5075 C 45.7667 %
1220 08-06-2015 00:00:00 16.31333 C 46.7083 %
1221 09-06-2015 00:00:00 15.34083 C 43.8833 %
1222 10-06-2015 00:00:00 17.59417 C 47.5417 %
1223 11-06-2015 00:00:00 20.22167 C 43.8250 %
1224 12-06-2015 00:00:00 19.73167 C 62.0667 %
1225 13-06-2015 00:00:00 19.42333 C 70.8167 %
Sensor: Nr:Datum:Temp:Feuchte:
Aussen-T/F 1226 14-06-2015 00:00:00 19.36333 C 56.1083 %
1227 15-06-2015 00:00:00 18.30667 C 55.0333 %
1228 16-06-2015 00:00:00 16.365 C 45.2083 %
1229 17-06-2015 00:00:00 16.1175 C 49.9583 %
1230 18-06-2015 00:00:00 17.6175 C 59.4333 %
1231 19-06-2015 00:00:00 12.8725 C 67.0250 %
1232 20-06-2015 00:00:00 13.48333 C 66.2250 %
1233 21-06-2015 00:00:00 15.8562 C 67.7025 %
1234 22-06-2015 00:00:00 12.87 C 76.3000 %
1235 23-06-2015 00:00:00 11.54917 C 84.2667 %
1236 24-06-2015 00:00:00 15.69333 C 64.0667 %
1237 25-06-2015 00:00:00 18.91333 C 58.4917 %
1238 26-06-2015 00:00:00 19.88167 C 59.7083 %
1239 27-06-2015 00:00:00 20.10862 C 61.3448 %
1240 28-06-2015 00:00:00 18.18333 C 57.8250 %
1241 29-06-2015 00:00:00 22.07 C 49.5167 %
1242 30-06-2015 00:00:00 22.66333 C 50.9083 %
1243 01-07-2015 00:00:00 25.10083 C 48.9333 %
1244 02-07-2015 00:00:00 27.395 C 48.2250 %
1245 03-07-2015 00:00:00 27.8825 C 47.1750 %
1246 04-07-2015 00:00:00 28.28667 C 49.8167 %
1247 05-07-2015 00:00:00 27.28 C 47.5083 %
1248 06-07-2015 00:00:00 22.0075 C 56.0833 %
1249 07-07-2015 00:00:00 22.37583 C 51.2500 %
1250 08-07-2015 00:00:00 17.825 C 55.9333 %
Sensor: Nr:Datum:Temp:Feuchte:
Aussen-T/F 1251 09-07-2015 00:00:00 17.09917 C 50.3417 %
1252 10-07-2015 00:00:00 17.43417 C 47.0417 %
1253 11-07-2015 00:00:00 21.45167 C 42.0333 %
1254 12-07-2015 00:00:00 18.76167 C 56.9083 %
1255 13-07-2015 00:00:00 17.3875 C 71.7500 %
1256 14-07-2015 00:00:00 20.77083 C 57.6583 %
1257 15-07-2015 00:00:00 21.76333 C 57.2167 %
1258 16-07-2015 00:00:00 24.265 C 54.6750 %
1259 17-07-2015 00:00:00 28.4475 C 37.8417 %
1260 18-07-2015 00:00:00 24.14833 C 42.5417 %
1261 19-07-2015 00:00:00 20.34667 C 63.1167 %
1262 20-07-2015 00:00:00 21.0825 C 72.4167 %
1263 21-07-2015 00:00:00 24.695 C 58.8083 %
1264 22-07-2015 00:00:00 23.58083 C 55.3333 %
1265 23-07-2015 00:00:00 20.82917 C 45.8417 %
1266 24-07-2015 00:00:00 21.54 C 51.6667 %
1267 25-07-2015 00:00:00 17.33667 C 64.7667 %
1268 26-07-2015 00:00:00 15.33782 C 62.9412 %
1269 27-07-2015 00:00:00 17.56583 C 67.1833 %
1270 28-07-2015 00:00:00 17.15417 C 47.7833 %
1271 29-07-2015 00:00:00 16.69 C 46.4167 %
1272 30-07-2015 00:00:00 13.83583 C 60.6417 %
1273 31-07-2015 00:00:00 16.04333 C 56.5167 %
1274 01-08-2015 00:00:00 19.1175 C 44.3917 %
1275 02-08-2015 00:00:00 20.51583 C 47.2333 %
Sensor: Nr:Datum:Temp:Feuchte:
Aussen-T/F 1276 03-08-2015 00:00:00 23.50333 C 44.3083 %
1277 04-08-2015 00:00:00 19.1575 C 64.7917 %
1278 05-08-2015 00:00:00 20.32667 C 60.8500 %
1279 06-08-2015 00:00:00 24.22667 C 51.2917 %
1280 07-08-2015 00:00:00 26.84583 C 43.1000 %
1281 08-08-2015 00:00:00 23.22583 C 56.8250 %
1282 09-08-2015 00:00:00 22.54 C 54.8750 %
1283 10-08-2015 00:00:00 20.13583 C 63.9667 %
1284 11-08-2015 00:00:00 22.12917 C 54.1167 %
1285 12-08-2015 00:00:00 23.5925 C 55.8667 %
1286 13-08-2015 00:00:00 25.41083 C 52.2583 %
1287 14-08-2015 00:00:00 24.8725 C 48.6583 %
1288 15-08-2015 00:00:00 21.19667 C 51.7000 %
1289 16-08-2015 00:00:00 15.85333 C 76.6667 %
1290 17-08-2015 00:00:00 14.77917 C 76.5750 %
1291 18-08-2015 00:00:00 15.985 C 67.1167 %
1292 19-08-2015 00:00:00 15.55667 C 62.6583 %
1293 20-08-2015 00:00:00 17.8975 C 56.5500 %
1294 21-08-2015 00:00:00 18.76 C 55.2583 %
1295 22-08-2015 00:00:00 18.9875 C 50.1583 %
1296 23-08-2015 00:00:00 19.48417 C 48.7167 %
1297 24-08-2015 00:00:00 19.7175 C 67.7583 %
1298 25-08-2015 00:00:00 17.94583 C 48.2417 %
1299 26-08-2015 00:00:00 19.86833 C 48.8500 %
1300 27-08-2015 00:00:00 18.44167 C 67.6167 %
Sensor: Nr:Datum:Temp:Feuchte:
Aussen-T/F 1301 28-08-2015 00:00:00 17.17167 C 72.7583 %
1302 29-08-2015 00:00:00 20.18333 C 69.6583 %
1303 30-08-2015 00:00:00 23.21917 C 66.6083 %
1304 31-08-2015 00:00:00 24.31417 C 55.9917 %
1305 01-09-2015 00:00:00 17.54 C 77.1833 %
1306 02-09-2015 00:00:00 15.07917 C 71.6750 %
1307 03-09-2015 00:00:00 14.1425 C 71.6833 %
1308 04-09-2015 00:00:00 13.65917 C 64.6833 %
1309 05-09-2015 00:00:00 13.05583 C 69.7417 %
1310 06-09-2015 00:00:00 13.10917 C 56.4833 %
1311 07-09-2015 00:00:00 13.455 C 71.1750 %
1312 08-09-2015 00:00:00 15.4175 C 67.9250 %
1313 09-09-2015 00:00:00 15.76167 C 57.9417 %
1314 10-09-2015 00:00:00 12.94833 C 61.4583 %
1315 11-09-2015 00:00:00 13.1675 C 62.5833 %
1316 12-09-2015 00:00:00 15.18667 C 66.6583 %
1317 13-09-2015 00:00:00 16.93167 C 79.4833 %
1318 14-09-2015 00:00:00 15.35833 C 80.5417 %
1319 15-09-2015 00:00:00 13.065 C 73.8583 %
1320 16-09-2015 00:00:00 14.7 C 83.4250 %
1321 17-09-2015 00:00:00 14.20833 C 80.5000 %
1322 18-09-2015 00:00:00 14.38667 C 73.0167 %
1323 19-09-2015 00:00:00 14.08917 C 73.5250 %
1324 20-09-2015 00:00:00 13.44417 C 70.9167 %
1325 21-09-2015 00:00:00 12.42583 C 74.5917 %
Sensor: Nr:Datum:Temp:Feuchte:
Aussen-T/F 1326 22-09-2015 00:00:00 12.75833 C 80.1333 %
1327 23-09-2015 00:00:00 11.50667 C 85.6250 %
1328 24-09-2015 00:00:00 13.10833 C 79.6333 %
1329 25-09-2015 00:00:00 13.78333 C 71.6917 %
1330 26-09-2015 00:00:00 12.60917 C 72.9083 %
1331 27-09-2015 00:00:00 11.13167 C 71.3417 %
1332 28-09-2015 00:00:00 10.20667 C 70.9417 %
1333 29-09-2015 00:00:00 10.215 C 70.4167 %
1334 30-09-2015 00:00:00 10.06583 C 66.1000 %
1335 01-10-2015 00:00:00 9.29917 C 61.2667 %
1336 02-10-2015 00:00:00 8.59917 C 74.0083 %
1337 03-10-2015 00:00:00 10.44917 C 75.1833 %
1338 04-10-2015 00:00:00 12.28417 C 78.5750 %
1339 05-10-2015 00:00:00 11.84583 C 79.5750 %
1340 06-10-2015 00:00:00 15.80167 C 83.4417 %
1341 07-10-2015 00:00:00 14.7 C 74.2167 %
1342 08-10-2015 00:00:00 13.32333 C 68.8000 %
1343 09-10-2015 00:00:00 12.07083 C 80.7417 %
1344 10-10-2015 00:00:00 12.105 C 72.4833 %
1345 11-10-2015 00:00:00 7.89833 C 59.4083 %
1346 12-10-2015 00:00:00 4.42167 C 68.4750 %
1347 13-10-2015 00:00:00 3.95167 C 78.6917 %
1348 14-10-2015 00:00:00 3.28417 C 89.8583 %
1349 15-10-2015 00:00:00 3.80417 C 90.4250 %
1350 16-10-2015 00:00:00 6.35 C 81.6917 %
Sensor: Nr:Datum:Temp:Feuchte:
Aussen-T/F 1351 17-10-2015 00:00:00 6.735 C 73.5833 %
1352 18-10-2015 00:00:00 7.18 C 77.1667 %
1353 19-10-2015 00:00:00 8.16667 C 76.7333 %
1354 20-10-2015 00:00:00 9.0175 C 82.7417 %
1355 21-10-2015 00:00:00 9.47 C 80.4667 %
1356 22-10-2015 00:00:00 10.8575 C 70.3000 %
1357 23-10-2015 00:00:00 9.86917 C 85.9750 %
1358 24-10-2015 00:00:00 10.69583 C 72.8083 %
1359 25-10-2015 00:00:00 11.2568 C 79.4000 %
1360 26-10-2015 00:00:00 8.69667 C 85.5250 %
1361 27-10-2015 00:00:00 8.0525 C 82.0167 %
1362 28-10-2015 00:00:00 9.38917 C 72.9917 %
1363 29-10-2015 00:00:00 9.7475 C 80.2750 %
1364 30-10-2015 00:00:00 7.32333 C 86.3250 %
1365 31-10-2015 00:00:00 6.77583 C 83.6250 %
1366 01-11-2015 00:00:00 6.29 C 87.0333 %
1367 02-11-2015 00:00:00 4.25083 C 91.1250 %
1368 03-11-2015 00:00:00 4.7125 C 84.8500 %
1369 04-11-2015 00:00:00 7.2225 C 83.8667 %
1370 05-11-2015 00:00:00 9.55417 C 87.5250 %
1371 06-11-2015 00:00:00 12.8575 C 78.4333 %
1372 07-11-2015 00:00:00 15.96833 C 79.7667 %
1373 08-11-2015 00:00:00 12.09333 C 87.1417 %
1374 09-11-2015 00:00:00 14.4975 C 61.9250 %
1375 10-11-2015 00:00:00 12.95167 C 58.9500 %
Sensor: Nr:Datum:Temp:Feuchte:
Aussen-T/F 1376 11-11-2015 00:00:00 11.47167 C 60.8250 %
1377 12-11-2015 00:00:00 11.10833 C 67.1417 %
1378 13-11-2015 00:00:00 10.18 C 68.2667 %
1379 14-11-2015 00:00:00 8.45667 C 58.9833 %
1380 15-11-2015 00:00:00 12.26417 C 57.5667 %
1381 16-11-2015 00:00:00 11.36917 C 57.1750 %
1382 17-11-2015 00:00:00 13.67167 C 66.9000 %
1383 18-11-2015 00:00:00 13.59083 C 45.0667 %
1384 19-11-2015 00:00:00 11.8225 C 65.8333 %
1385 20-11-2015 00:00:00 7.22083 C 84.0833 %
1386 21-11-2015 00:00:00 3.41917 C 75.5000 %
1387 22-11-2015 00:00:00 2.13833 C 82.4667 %
1388 23-11-2015 00:00:00 1.88 C 76.4500 %
1389 24-11-2015 00:00:00 1.28583 C 77.3333 %
1390 25-11-2015 00:00:00 4.00833 C 74.3167 %
1391 26-11-2015 00:00:00 4.22333 C 78.5917 %
1392 27-11-2015 00:00:00 1.90417 C 82.8750 %
1393 28-11-2015 00:00:00 3.72167 C 64.4917 %
1394 29-11-2015 00:00:00 8.60917 C 59.6500 %
1395 30-11-2015 00:00:00 9.42083 C 70.1917 %
1396 01-12-2015 00:00:00 10.81583 C 72.9000 %
1397 02-12-2015 00:00:00 9.32917 C 63.8917 %
1398 03-12-2015 00:00:00 6.91 C 65.0667 %
1399 04-12-2015 00:00:00 6.15833 C 77.1333 %
1400 05-12-2015 00:00:00 5.30417 C 71.3500 %
Sensor: Nr:Datum:Temp:Feuchte:
Aussen-T/F 1401 06-12-2015 00:00:00 7.65083 C 65.3750 %
1402 07-12-2015 00:00:00 7.24333 C 79.5333 %
1403 08-12-2015 00:00:00 3.85333 C 92.6417 %
1404 09-12-2015 00:00:00 5.81417 C 86.4083 %
1405 10-12-2015 00:00:00 2.24167 C 82.4000 %
1406 11-12-2015 00:00:00 4.06583 C 76.6167 %
1407 12-12-2015 00:00:00 7.5325 C 83.2833 %
1408 13-12-2015 00:00:00 8.14 C 69.1250 %
1409 14-12-2015 00:00:00 5.15417 C 90.8417 %
1410 15-12-2015 00:00:00 4.89833 C 89.1833 %
1411 16-12-2015 00:00:00 9.15083 C 89.9750 %
1412 17-12-2015 00:00:00 11.63417 C 75.1167 %
1413 18-12-2015 00:00:00 10.56667 C 76.0500 %
1414 19-12-2015 00:00:00 10.50417 C 68.5583 %
1415 20-12-2015 00:00:00 7.115 C 88.6750 %
1416 21-12-2015 00:00:00 9.43583 C 63.8417 %
1417 22-12-2015 00:00:00 11.1725 C 48.5000 %
1418 23-12-2015 00:00:00 9.01167 C 57.9417 %
1419 24-12-2015 00:00:00 8.45833 C 72.2833 %
1420 25-12-2015 00:00:00 10.48417 C 60.2500 %
1421 26-12-2015 00:00:00 9.345 C 61.1667 %
1422 27-12-2015 00:00:00 6.45333 C 76.4917 %
1423 28-12-2015 00:00:00 2.05083 C 89.9000 %
1424 29-12-2015 00:00:00 2.285 C 91.8750 %
1425 30-12-2015 00:00:00 3.93417 C 81.2500 %
Sensor: Nr:Datum:Temp:Feuchte:
Aussen-T/F 1426 31-12-2015 00:00:00 4.05417 C 73.4333 %
1427 01-01-2016 00:00:00 3.65167 C 83.7833 %
1428 02-01-2016 00:00:00 3.92083 C 70.8833 %
1429 03-01-2016 00:00:00 4.92917 C 64.7583 %
1430 04-01-2016 00:00:00 4.6675 C 74.2000 %
1431 05-01-2016 00:00:00 5.86833 C 64.5917 %
1432 06-01-2016 00:00:00 5.34667 C 76.1417 %
1433 07-01-2016 00:00:00 4.32417 C 76.2500 %
1434 08-01-2016 00:00:00 2.07833 C 65.9667 %
1435 09-01-2016 00:00:00 0.6125 C 88.5167 %
1436 10-01-2016 00:00:00 5.36218 C 74.0840 %
1437 11-01-2016 00:00:00 4.41333 C 78.4417 %
1438 12-01-2016 00:00:00 4.76167 C 54.9417 %
1439 13-01-2016 00:00:00 4.1675 C 55.5500 %
1440 14-01-2016 00:00:00 2.565 C 55.8250 %
1441 15-01-2016 00:00:00 2.09667 C 60.7500 %
1442 16-01-2016 00:00:00 1.19 C 66.6250 %
1443 17-01-2016 00:00:00 -0.53083 C 48.5583 %
1444 18-01-2016 00:00:00 -5.885 C 57.7333 %
1445 19-01-2016 00:00:00 -6.08333 C 53.1500 %
1446 20-01-2016 00:00:00 -2.2525 C 57.0583 %
1447 21-01-2016 00:00:00 -0.195 C 66.5583 %
1448 22-01-2016 00:00:00 -3.03833 C 60.6333 %
1449 23-01-2016 00:00:00 3.43583 C 67.1417 %
1450 24-01-2016 00:00:00 4.5925 C 67.4167 %
Sensor: Nr:Datum:Temp:Feuchte:
Aussen-T/F 1451 25-01-2016 00:00:00 6.55917 C 65.2583 %
1452 26-01-2016 00:00:00 8.70083 C 45.6583 %
1453 27-01-2016 00:00:00 10.98917 C 31.4833 %
1454 28-01-2016 00:00:00 6.53417 C 55.1333 %
1455 29-01-2016 00:00:00 4.86917 C 53.8667 %
1456 30-01-2016 00:00:00 6.82167 C 49.3750 %
1457 31-01-2016 00:00:00 5.65333 C 53.5417 %
1458 01-02-2016 00:00:00 11.48583 C 43.6167 %
1459 02-02-2016 00:00:00 10.0775 C 46.2083 %
1460 03-02-2016 00:00:00 4.48833 C 46.5167 %
1461 04-02-2016 00:00:00 3.8175 C 58.8833 %
1462 05-02-2016 00:00:00 6.95917 C 59.9667 %
1463 06-02-2016 00:00:00 7.20083 C 56.1333 %
1464 07-02-2016 00:00:00 8.2525 C 37.4667 %
1465 08-02-2016 00:00:00 7.405 C 40.7250 %
1466 09-02-2016 00:00:00 6.3125 C 48.5500 %
1467 10-02-2016 00:00:00 4.2375 C 44.8083 %
1468 11-02-2016 00:00:00 4.22833 C 49.3500 %
1469 12-02-2016 00:00:00 2.40917 C 49.6917 %
1470 13-02-2016 00:00:00 0.93917 C 68.9833 %
1471 14-02-2016 00:00:00 4.075 C 74.4500 %
1472 15-02-2016 00:00:00 1.52083 C 58.3750 %
1473 16-02-2016 00:00:00 -0.7275 C 42.6083 %
1474 17-02-2016 00:00:00 -0.33333 C 53.4250 %
1475 18-02-2016 00:00:00 1.44583 C 49.3833 %
Sensor: Nr:Datum:Temp:Feuchte:
Aussen-T/F 1476 19-02-2016 00:00:00 0.79417 C 58.8333 %
1477 20-02-2016 00:00:00 5.52417 C 63.4000 %
1478 21-02-2016 00:00:00 11.48417 C 44.6750 %
1479 22-02-2016 00:00:00 9.25167 C 42.6667 %
1480 23-02-2016 00:00:00 1.70083 C 74.3167 %
1481 24-02-2016 00:00:00 1.25 C 67.2667 %
1482 25-02-2016 00:00:00 0.10917 C 60.8667 %
1483 26-02-2016 00:00:00 1.8675 C 47.5667 %
1484 27-02-2016 00:00:00 1.35083 C 40.6333 %
1485 28-02-2016 00:00:00 1.14833 C 40.8167 %
1486 29-02-2016 00:00:00 2.51 C 31.5917 %
1487 01-03-2016 00:00:00 0.29417 C 46.5000 %
1488 02-03-2016 00:00:00 5.84 C 42.0250 %
1489 03-03-2016 00:00:00 3.0875 C 47.3000 %
1490 04-03-2016 00:00:00 1.0725 C 69.0667 %
1491 05-03-2016 00:00:00 4.1 C 62.7917 %
1492 06-03-2016 00:00:00 2.515 C 59.7833 %
1493 07-03-2016 00:00:00 1.795 C 65.8667 %
1494 08-03-2016 00:00:00 1.35667 C 59.3500 %
1495 09-03-2016 00:00:00 1.89667 C 45.6500 %
1496 10-03-2016 00:00:00 2.14917 C 47.1250 %
1497 11-03-2016 00:00:00 3.7425 C 45.0833 %
1498 12-03-2016 00:00:00 3.90583 C 30.9667 %
1499 13-03-2016 00:00:00 4.57167 C 31.1833 %
1500 14-03-2016 00:00:00 3.825 C 30.8417 %
Sensor: Nr:Datum:Temp:Feuchte:
Aussen-T/F 1501 15-03-2016 00:00:00 2.91833 C 38.5833 %
1502 16-03-2016 00:00:00 4.03667 C 32.4833 %
1503 17-03-2016 00:00:00 3.92083 C 39.7500 %
1504 18-03-2016 00:00:00 4.26833 C 40.0000 %
1505 19-03-2016 00:00:00 5.375 C 40.8000 %
1506 20-03-2016 00:00:00 5.61917 C 31.5500 %
1507 21-03-2016 00:00:00 6.80333 C 40.1750 %
1508 22-03-2016 00:00:00 7.90167 C 33.8500 %
1509 23-03-2016 00:00:00 7.75 C 36.0500 %
1510 24-03-2016 00:00:00 6.74417 C 40.9500 %
1511 25-03-2016 00:00:00 6.3375 C 53.9250 %
1512 26-03-2016 00:00:00 8.95333 C 46.6167 %
1513 27-03-2016 00:00:00 9.04783 C 40.2957 %
1514 28-03-2016 00:00:00 7.90667 C 40.1750 %
1515 29-03-2016 00:00:00 9.055 C 31.4333 %
1516 30-03-2016 00:00:00 9.75 C 41.6917 %
1517 31-03-2016 00:00:00 6.63583 C 56.8333 %
1518 01-04-2016 00:00:00 6.93083 C 50.1417 %
1519 02-04-2016 00:00:00 8.0475 C 51.6750 %
1520 03-04-2016 00:00:00 13.42583 C 38.0667 %
1521 04-04-2016 00:00:00 13.64583 C 46.2083 %
1522 05-04-2016 00:00:00 10.9925 C 55.3417 %
1523 06-04-2016 00:00:00 10.6875 C 44.1083 %
1524 07-04-2016 00:00:00 8.1575 C 34.2667 %
1525 08-04-2016 00:00:00 5.99083 C 43.5583 %
Sensor: Nr:Datum:Temp:Feuchte:
Aussen-T/F 1526 09-04-2016 00:00:00 7.77083 C 41.4333 %
1527 10-04-2016 00:00:00 11.51583 C 29.2333 %
1528 11-04-2016 00:00:00 11.9225 C 31.8917 %
1529 12-04-2016 00:00:00 10.91917 C 41.5500 %
1530 13-04-2016 00:00:00 8.84833 C 59.7333 %
1531 14-04-2016 00:00:00 11.13 C 45.5583 %
1532 15-04-2016 00:00:00 13.36 C 32.9000 %
1533 16-04-2016 00:00:00 11.87917 C 35.3083 %
1534 17-04-2016 00:00:00 9.01167 C 40.1167 %
1535 18-04-2016 00:00:00 7.2325 C 38.2167 %
1536 19-04-2016 00:00:00 8.9975 C 25.7167 %
1537 20-04-2016 00:00:00 9.22 C 32.0333 %
1538 21-04-2016 00:00:00 11.33083 C 29.5500 %
1539 22-04-2016 00:00:00 13.95583 C 21.0667 %
1540 23-04-2016 00:00:00 8.31083 C 30.3000 %
1541 24-04-2016 00:00:00 5.44 C 28.0917 %
1542 25-04-2016 00:00:00 4.0775 C 43.0917 %
1543 26-04-2016 00:00:00 4.38 C 39.0417 %
1544 27-04-2016 00:00:00 5.32667 C 23.8250 %
1545 28-04-2016 00:00:00 6.70333 C 30.5583 %
1546 29-04-2016 00:00:00 7.80583 C 30.1000 %
1547 30-04-2016 00:00:00 7.91583 C 30.9333 %
1548 01-05-2016 00:00:00 10.01083 C 35.3833 %
1549 02-05-2016 00:00:00 10.51083 C 42.4750 %
1550 03-05-2016 00:00:00 11.25917 C 31.6333 %
Sensor: Nr:Datum:Temp:Feuchte:
Aussen-T/F 1551 04-05-2016 00:00:00 9.2375 C 32.9917 %
1552 05-05-2016 00:00:00 11.535 C 29.8083 %
1553 06-05-2016 00:00:00 15.30667 C 31.8167 %
1554 07-05-2016 00:00:00 17.3 C 30.4750 %
1555 08-05-2016 00:00:00 18.64833 C 20.2833 %
1556 09-05-2016 00:00:00 18.325 C 21.9833 %
1557 10-05-2016 00:00:00 17.15833 C 26.3000 %
1558 11-05-2016 00:00:00 17.9975 C 38.7333 %
1559 12-05-2016 00:00:00 18.35667 C 21.6500 %
1560 13-05-2016 00:00:00 14.43917 C 42.0583 %
1561 14-05-2016 00:00:00 10.66167 C 30.2500 %
1562 15-05-2016 00:00:00 9.19333 C 21.1750 %
1563 16-05-2016 00:00:00 10.65167 C 22.1667 %
1564 17-05-2016 00:00:00 13.08417 C 23.7167 %
1565 18-05-2016 00:00:00 15.07 C 26.4167 %
1566 19-05-2016 00:00:00 14.705 C 31.9083 %
1567 20-05-2016 00:00:00 14.36917 C 27.7333 %
1568 21-05-2016 00:00:00 18.82083 C 30.1667 %
1569 22-05-2016 00:00:00 19.6125 C 26.3750 %
1570 23-05-2016 00:00:00 14.36417 C 28.3667 %
1571 24-05-2016 00:00:00 11.07083 C 39.1667 %
1572 25-05-2016 00:00:00 13.16083 C 39.4917 %
1573 26-05-2016 00:00:00 15.82333 C 37.5500 %
1574 27-05-2016 00:00:00 17.00333 C 47.2000 %
1575 28-05-2016 00:00:00 17.40167 C 48.0833 %
Sensor: Nr:Datum:Temp:Feuchte:
Aussen-T/F 1576 29-05-2016 00:00:00 18.06417 C 41.2500 %
1577 30-05-2016 00:00:00 17.56333 C 48.6833 %
1578 31-05-2016 00:00:00 16.76452 C 37.3387 %
1579 01-06-2016 00:00:00 15.94792 C 43.6458 %
1580 02-06-2016 00:00:00 17.97014 C 45.8819 %
1581 03-06-2016 00:00:00 16.98542 C 47.4514 %
1582 04-06-2016 00:00:00 18.03125 C 41.6979 %
1583 05-06-2016 00:00:00 19.83507 C 41.0556 %
1584 06-06-2016 00:00:00 19.82222 C 34.2014 %
1585 07-06-2016 00:00:00 21.12847 C 28.7604 %
1586 08-06-2016 00:00:00 20.43993 C 25.7188 %
1587 09-06-2016 00:00:00 18.36771 C 23.1875 %
1588 10-06-2016 00:00:00 18.63125 C 23.3715 %
1589 11-06-2016 00:00:00 18.52465 C 22.4410 %
1590 12-06-2016 00:00:00 17.77604 C 31.9792 %
1591 13-06-2016 00:00:00 15.89306 C 47.6493 %
1592 14-06-2016 00:00:00 16.98229 C 36.8542 %
1593 15-06-2016 00:00:00 15.80937 C 33.7951 %
1594 16-06-2016 00:00:00 14.31493 C 43.6597 %
1595 17-06-2016 00:00:00 14.91493 C 39.4757 %
1596 18-06-2016 00:00:00 15.14896 C 40.0104 %
1597 19-06-2016 00:00:00 16.51979 C 24.7535 %
1598 20-06-2016 00:00:00 11.56903 C 28.5044 %
1599 21-06-2016 00:00:00 18.65833 C 35.7667 %
1600 22-06-2016 00:00:00 21.28833 C 37.0667 %
Sensor: Nr:Datum:Temp:Feuchte:
Aussen-T/F 1601 23-06-2016 00:00:00 24.72417 C 30.6083 %
1602 24-06-2016 00:00:00 22.49417 C 33.0667 %
1603 25-06-2016 00:00:00 16.69 C 56.2917 %
1604 26-06-2016 00:00:00 15.84 C 41.2917 %
1605 27-06-2016 00:00:00 16.38083 C 29.8417 %
1606 28-06-2016 00:00:00 18.94333 C 36.5667 %
1607 29-06-2016 00:00:00 19.7075 C 23.8250 %
1608 30-06-2016 00:00:00 19.33333 C 24.7167 %
1609 01-07-2016 00:00:00 20.47833 C 25.5250 %
1610 02-07-2016 00:00:00 17.3875 C 25.1167 %
1611 03-07-2016 00:00:00 15.7475 C 25.1667 %
1612 04-07-2016 00:00:00 18.435 C 26.2833 %
1613 05-07-2016 00:00:00 19.94667 C 23.7917 %
1614 06-07-2016 00:00:00 17.5575 C 24.4167 %
1615 07-07-2016 00:00:00 17.9175 C 26.9333 %
1616 08-07-2016 00:00:00 19.34833 C 26.2250 %
1617 09-07-2016 00:00:00 21.7525 C 22.1750 %
1618 10-07-2016 00:00:00 22.6725 C 26.1833 %
1619 11-07-2016 00:00:00 22.19583 C 23.5083 %
1620 12-07-2016 00:00:00 19.9525 C 24.3500 %
1621 13-07-2016 00:00:00 15.24 C 37.0917 %
1622 14-07-2016 00:00:00 15.65 C 34.8167 %
1623 15-07-2016 00:00:00 16.855 C 23.0750 %
1624 16-07-2016 00:00:00 17.50333 C 26.4917 %
1625 17-07-2016 00:00:00 21.88917 C 26.5250 %
Sensor: Nr:Datum:Temp:Feuchte:
Aussen-T/F 1626 18-07-2016 00:00:00 22.8375 C 27.4083 %
1627 19-07-2016 00:00:00 22.66917 C 25.7000 %
1628 20-07-2016 00:00:00 24.1625 C 25.4250 %
1629 21-07-2016 00:00:00 21.46167 C 33.7500 %
1630 22-07-2016 00:00:00 21.44167 C 39.8500 %
1631 23-07-2016 00:00:00 20.57167 C 37.5917 %
1632 24-07-2016 00:00:00 22.89083 C 37.5500 %
1633 25-07-2016 00:00:00 22.56417 C 25.9000 %
1634 26-07-2016 00:00:00 20.86333 C 26.3667 %
1635 27-07-2016 00:00:00 20.36667 C 26.3583 %
1636 28-07-2016 00:00:00 21.32 C 23.3917 %
1637 29-07-2016 00:00:00 20.3725 C 27.6167 %
1638 30-07-2016 00:00:00 21.31667 C 25.1000 %
1639 31-07-2016 00:00:00 19.395 C 24.8500 %
1640 01-08-2016 00:00:00 17.6775 C 27.5167 %
1641 02-08-2016 00:00:00 16.10333 C 37.3833 %
1642 03-08-2016 00:00:00 18.46667 C 38.4083 %
1643 04-08-2016 00:00:00 17.91417 C 46.6333 %
1644 05-08-2016 00:00:00 16.71833 C 33.8500 %
1645 06-08-2016 00:00:00 18.14583 C 31.5833 %
1646 07-08-2016 00:00:00 19.73 C 30.8917 %
1647 08-08-2016 00:00:00 19.59083 C 23.6917 %
1648 09-08-2016 00:00:00 17.05833 C 22.3000 %
1649 10-08-2016 00:00:00 13.89917 C 26.0167 %
1650 11-08-2016 00:00:00 12.59832 C 32.7059 %
Sensor: Nr:Datum:Temp:Feuchte:
Aussen-T/F 1651 12-08-2016 00:00:00 17.455 C 33.2250 %
1652 13-08-2016 00:00:00 21.15833 C 31.2167 %
1653 14-08-2016 00:00:00 19.95 C 30.1750 %
1654 15-08-2016 00:00:00 19.69667 C 27.2250 %
1655 16-08-2016 00:00:00 18.98167 C 26.7333 %
1656 17-08-2016 00:00:00 18.93333 C 25.7417 %
1657 18-08-2016 00:00:00 17.52 C 26.5500 %
1658 19-08-2016 00:00:00 19.7325 C 28.2667 %
1659 20-08-2016 00:00:00 19.64167 C 27.2333 %
1660 21-08-2016 00:00:00 17.60333 C 26.8583 %
1661 22-08-2016 00:00:00 17.8025 C 27.1750 %
1662 23-08-2016 00:00:00 19.51 C 30.9333 %
1663 24-08-2016 00:00:00 20.755 C 28.3583 %
1664 25-08-2016 00:00:00 21.70333 C 28.8500 %
1665 26-08-2016 00:00:00 22.62333 C 27.2417 %
1666 27-08-2016 00:00:00 24.03 C 28.2583 %
1667 28-08-2016 00:00:00 23.51417 C 25.0417 %
1668 29-08-2016 00:00:00 19.5725 C 24.0250 %
1669 30-08-2016 00:00:00 18.9625 C 29.8667 %
1670 31-08-2016 00:00:00 18.09833 C 24.6000 %
1671 01-09-2016 00:00:00 19.885 C 25.6167 %
1672 02-09-2016 00:00:00 18.95833 C 28.4750 %
1673 03-09-2016 00:00:00 21.2725 C 24.6250 %
1674 04-09-2016 00:00:00 18.2375 C 25.8750 %
1675 05-09-2016 00:00:00 18.54917 C 25.8167 %
Sensor: Nr:Datum:Temp:Feuchte:
Aussen-T/F 1676 06-09-2016 00:00:00 16.93333 C 34.4917 %
1677 07-09-2016 00:00:00 17.405 C 33.5750 %
1678 08-09-2016 00:00:00 19.405 C 32.5083 %
1679 09-09-2016 00:00:00 20.46333 C 21.3833 %
1680 10-09-2016 00:00:00 19.22583 C 28.1083 %
1681 11-09-2016 00:00:00 19.21667 C 26.7417 %
1682 12-09-2016 00:00:00 19.5625 C 29.1333 %
1683 13-09-2016 00:00:00 21.00833 C 29.4083 %
1684 14-09-2016 00:00:00 20.675 C 27.7083 %
1685 15-09-2016 00:00:00 19.8875 C 25.4083 %
1686 16-09-2016 00:00:00 17.43917 C 39.9167 %
1687 17-09-2016 00:00:00 15.91333 C 35.6083 %
1688 18-09-2016 00:00:00 17.29167 C 42.7083 %
1689 19-09-2016 00:00:00 15.64833 C 27.5250 %
1690 20-09-2016 00:00:00 15.07833 C 30.5000 %
1691 21-09-2016 00:00:00 13.86667 C 27.4167 %
1692 22-09-2016 00:00:00 11.25083 C 34.2583 %
1693 23-09-2016 00:00:00 13.09417 C 32.6000 %
1694 24-09-2016 00:00:00 13.36667 C 40.9167 %
1695 25-09-2016 00:00:00 13.76917 C 38.9417 %
1696 26-09-2016 00:00:00 14.44333 C 39.0333 %
1697 27-09-2016 00:00:00 13.11333 C 52.0083 %
1698 28-09-2016 00:00:00 15.245 C 38.0583 %
1699 29-09-2016 00:00:00 18.65167 C 25.3417 %
1700 30-09-2016 00:00:00 15.06167 C 29.6500 %
Sensor: Nr:Datum:Temp:Feuchte:
Aussen-T/F 1701 01-10-2016 00:00:00 13.58917 C 51.5333 %
1702 02-10-2016 00:00:00 12.33333 C 43.2667 %
1703 03-10-2016 00:00:00 12.23083 C 37.2000 %
1704 04-10-2016 00:00:00 11.06833 C 47.8083 %
1705 05-10-2016 00:00:00 8.02083 C 40.7917 %
1706 06-10-2016 00:00:00 7.89917 C 32.8250 %
1707 07-10-2016 00:00:00 10.76917 C 41.6833 %
1708 08-10-2016 00:00:00 9.0625 C 53.2250 %
1709 09-10-2016 00:00:00 8.21917 C 43.8417 %
1710 10-10-2016 00:00:00 6.4375 C 44.8333 %
1711 11-10-2016 00:00:00 7.66667 C 44.1250 %
1712 12-10-2016 00:00:00 8.5225 C 34.6417 %
1713 13-10-2016 00:00:00 7.0825 C 42.1917 %
1714 14-10-2016 00:00:00 9.04333 C 34.3583 %
1715 15-10-2016 00:00:00 10.78083 C 44.4417 %
1716 16-10-2016 00:00:00 8.045 C 54.9250 %
1717 17-10-2016 00:00:00 10.0225 C 63.0667 %
1718 18-10-2016 00:00:00 10.67917 C 47.8917 %
1719 19-10-2016 00:00:00 8.77083 C 33.0917 %
1720 20-10-2016 00:00:00 7.5975 C 52.8000 %
1721 21-10-2016 00:00:00 7.21667 C 51.6083 %
1722 22-10-2016 00:00:00 7.28167 C 49.5250 %
1723 23-10-2016 00:00:00 6.66083 C 50.6500 %
1724 24-10-2016 00:00:00 8.92167 C 63.3000 %
1725 25-10-2016 00:00:00 11.005 C 51.3333 %
Sensor: Nr:Datum:Temp:Feuchte:
Aussen-T/F 1726 26-10-2016 00:00:00 8.985 C 42.9167 %
1727 27-10-2016 00:00:00 8.2675 C 50.5250 %
1728 28-10-2016 00:00:00 11.03667 C 37.9750 %
1729 29-10-2016 00:00:00 11.12583 C 38.1417 %
1730 30-10-2016 00:00:00 7.1712 C 54.7680 %
1731 31-10-2016 00:00:00 6.11333 C 61.1167 %
1732 01-11-2016 00:00:00 6.55083 C 60.1167 %
1733 02-11-2016 00:00:00 6.48667 C 37.7417 %
1734 03-11-2016 00:00:00 5.62917 C 36.2750 %
1735 04-11-2016 00:00:00 4.18583 C 57.1667 %
1736 05-11-2016 00:00:00 6.1875 C 59.2417 %
1737 06-11-2016 00:00:00 4.91833 C 30.0917 %
1738 07-11-2016 00:00:00 3.88333 C 40.0667 %
1739 08-11-2016 00:00:00 2.37583 C 46.3750 %
1740 09-11-2016 00:00:00 2.99583 C 53.2667 %
1741 10-11-2016 00:00:00 4.55333 C 50.0000 %
1742 11-11-2016 00:00:00 4.3825 C 59.9250 %
1743 12-11-2016 00:00:00 1.26417 C 47.5333 %
1744 13-11-2016 00:00:00 1.32333 C 37.8333 %
1745 14-11-2016 00:00:00 -1.67833 C 46.0917 %
1746 15-11-2016 00:00:00 3.8725 C 39.5000 %
1747 16-11-2016 00:00:00 9.1725 C 50.0750 %
1748 17-11-2016 00:00:00 10.28167 C 32.9917 %
1749 18-11-2016 00:00:00 8.59583 C 26.5250 %
1750 19-11-2016 00:00:00 4.45417 C 39.7333 %
Sensor: Nr:Datum:Temp:Feuchte:
Aussen-T/F 1751 20-11-2016 00:00:00 8.31583 C 26.6583 %
1752 21-11-2016 00:00:00 9.31917 C 45.5333 %
1753 22-11-2016 00:00:00 9.50167 C 52.0583 %
1754 23-11-2016 00:00:00 7.95417 C 67.0083 %
1755 24-11-2016 00:00:00 7.5675 C 53.7583 %
1756 25-11-2016 00:00:00 7.12917 C 22.5167 %
1757 26-11-2016 00:00:00 6.3675 C 25.9417 %
1758 27-11-2016 00:00:00 4.2 C 40.8667 %
1759 28-11-2016 00:00:00 -1.0125 C 46.3583 %
1760 29-11-2016 00:00:00 -4.42 C 35.8000 %
1761 30-11-2016 00:00:00 -4.23833 C 36.9833 %
1762 01-12-2016 00:00:00 2.62667 C 21.5583 %
1763 02-12-2016 00:00:00 4.245 C 43.0250 %
1764 03-12-2016 00:00:00 -0.60083 C 60.1250 %
1765 04-12-2016 00:00:00 -3.84417 C 47.8167 %
1766 05-12-2016 00:00:00 -5.46833 C 44.0333 %
1767 06-12-2016 00:00:00 -4.63417 C 45.9417 %
1768 07-12-2016 00:00:00 -1.23 C 55.7333 %
1769 08-12-2016 00:00:00 -0.39583 C 54.6667 %
1770 09-12-2016 00:00:00 5.92583 C 21.0417 %
1771 10-12-2016 00:00:00 3.77833 C 40.4750 %
1772 11-12-2016 00:00:00 7.3925 C 25.0750 %
1773 12-12-2016 00:00:00 5.93583 C 39.9833 %
1774 13-12-2016 00:00:00 3.34583 C 65.2250 %
1775 14-12-2016 00:00:00 5.935 C 48.1167 %
Sensor: Nr:Datum:Temp:Feuchte:
Aussen-T/F 1776 15-12-2016 00:00:00 6.37417 C 39.5917 %
1777 16-12-2016 00:00:00 4.1375 C 22.6833 %
1778 17-12-2016 00:00:00 3.35083 C 34.1750 %
1779 18-12-2016 00:00:00 4.61167 C 41.6167 %
1780 19-12-2016 00:00:00 3.69083 C 40.5917 %
1781 20-12-2016 00:00:00 -0.2625 C 40.4500 %
1782 21-12-2016 00:00:00 1.50833 C 37.0917 %
1783 22-12-2016 00:00:00 3.135 C 42.5833 %
1784 23-12-2016 00:00:00 3.4975 C 50.4417 %
1785 24-12-2016 00:00:00 6.43833 C 23.7750 %
1786 25-12-2016 00:00:00 7.98083 C 27.9917 %
1787 26-12-2016 00:00:00 6.85083 C 28.5167 %
1788 27-12-2016 00:00:00 3.36083 C 31.3417 %
1789 28-12-2016 00:00:00 2.765 C 32.3750 %
1790 29-12-2016 00:00:00 -2.31583 C 49.4333 %
1791 30-12-2016 00:00:00 -2.7975 C 45.7583 %
1792 31-12-2016 00:00:00 -4.97167 C 40.1167 %
1793 01-01-2017 00:00:00 -2.645 C 37.8583 %
1794 02-01-2017 00:00:00 -0.26417 C 43.1250 %
1795 03-01-2017 00:00:00 0.27717 C 59.5652 %
1796 04-01-2017 00:00:00 2.4725 C 33.8417 %
1797 05-01-2017 00:00:00 -1.62667 C 32.9833 %
1798 06-01-2017 00:00:00 -8.04417 C 33.4250 %
1799 07-01-2017 00:00:00 -5.00833 C 28.8833 %
1800 08-01-2017 00:00:00 -0.27333 C 48.8667 %
Sensor: Nr:Datum:Temp:Feuchte:
Aussen-T/F 1801 09-01-2017 00:00:00 1.305 C 49.9167 %
1802 10-01-2017 00:00:00 0.33833 C 54.5917 %
1803 11-01-2017 00:00:00 2.7675 C 49.3083 %
1804 12-01-2017 00:00:00 3.39 C 26.6583 %
1805 13-01-2017 00:00:00 1.16833 C 32.4417 %
1806 14-01-2017 00:00:00 1.5625 C 26.2083 %
1807 15-01-2017 00:00:00 -0.2875 C 38.9417 %
1808 16-01-2017 00:00:00 -2.95333 C 40.8917 %
1809 17-01-2017 00:00:00 -5.14333 C 33.6917 %
1810 18-01-2017 00:00:00 -7.12917 C 33.7333 %
1811 19-01-2017 00:00:00 -8.02917 C 34.5500 %
1812 20-01-2017 00:00:00 -8.47167 C 31.5833 %
1813 21-01-2017 00:00:00 -7.91167 C 34.8083 %
1814 22-01-2017 00:00:00 -9.46417 C 33.6583 %
1815 23-01-2017 00:00:00 -6.45667 C 35.5667 %
1816 24-01-2017 00:00:00 -1.59917 C 36.1417 %
1817 25-01-2017 00:00:00 -2.06134 C 21.1008 %
1818 26-01-2017 00:00:00 -3.27167 C 23.9917 %
1819 27-01-2017 00:00:00 -4.87833 C 33.7583 %
1820 28-01-2017 00:00:00 -3.13417 C 35.4000 %
1821 29-01-2017 00:00:00 1.74917 C 38.4417 %
1822 30-01-2017 00:00:00 3.64583 C 50.8083 %
1823 31-01-2017 00:00:00 2.45083 C 33.8167 %
1824 01-02-2017 00:00:00 2.82417 C 29.1583 %
1825 02-02-2017 00:00:00 3.84417 C 50.3250 %
Sensor: Nr:Datum:Temp:Feuchte:
Aussen-T/F 1826 03-02-2017 00:00:00 4.79833 C 53.5417 %
1827 04-02-2017 00:00:00 4.85833 C 34.5500 %
1828 05-02-2017 00:00:00 3.81333 C 37.2333 %
1829 06-02-2017 00:00:00 2.905 C 39.3000 %
1830 07-02-2017 00:00:00 3.68333 C 32.7000 %
1831 08-02-2017 00:00:00 2.47583 C 26.7500 %
1832 09-02-2017 00:00:00 -0.87083 C 28.4083 %
1833 10-02-2017 00:00:00 0.07583 C 21.2250 %
1834 11-02-2017 00:00:00 1.1675 C 39.9583 %
1835 12-02-2017 00:00:00 1.77167 C 49.6917 %
1836 13-02-2017 00:00:00 2.44917 C 24.7083 %
1837 14-02-2017 00:00:00 0.02083 C 31.7250 %
1838 15-02-2017 00:00:00 0.65333 C 38.4083 %
1839 16-02-2017 00:00:00 2.98583 C 54.9000 %
1840 17-02-2017 00:00:00 5.05167 C 53.0917 %
1841 18-02-2017 00:00:00 5.56917 C 38.1000 %
1842 19-02-2017 00:00:00 2.74417 C 39.9417 %
1843 20-02-2017 00:00:00 7.83667 C 30.5667 %
1844 21-02-2017 00:00:00 9.77417 C 33.2917 %
1845 22-02-2017 00:00:00 10.86167 C 22.7083 %
1846 23-02-2017 00:00:00 8.95167 C 22.1250 %
1847 24-02-2017 00:00:00 4.4525 C 26.0917 %
1848 25-02-2017 00:00:00 3.06333 C 34.4667 %
1849 26-02-2017 00:00:00 8.2025 C 22.5667 %
1850 27-02-2017 00:00:00 10.56417 C 22.7417 %
Sensor: Nr:Datum:Temp:Feuchte:
Aussen-T/F 1851 28-02-2017 00:00:00 5.03667 C 25.5167 %
1852 01-03-2017 00:00:00 6.07333 C 27.2250 %
1853 02-03-2017 00:00:00 7.615 C 21.8417 %
1854 03-03-2017 00:00:00 5.64417 C 27.7417 %
1855 04-03-2017 00:00:00 10.41667 C 24.1750 %
1856 05-03-2017 00:00:00 6.48667 C 29.1917 %
1857 06-03-2017 00:00:00 5.80083 C 30.7583 %
1858 07-03-2017 00:00:00 5.375 C 37.1500 %
1859 08-03-2017 00:00:00 4.1425 C 57.5333 %
1860 09-03-2017 00:00:00 10.71 C 40.6917 %
1861 10-03-2017 00:00:00 7.1775 C 21.1917 %
1862 11-03-2017 00:00:00 5.8775 C 29.0333 %
1863 12-03-2017 00:00:00 5.82167 C 27.9833 %
1864 13-03-2017 00:00:00 5.775 C 26.7667 %
1865 14-03-2017 00:00:00 8.80333 C 26.7000 %
1866 15-03-2017 00:00:00 10.8 C 22.7333 %
1867 16-03-2017 00:00:00 7.71667 C 32.6833 %
1868 17-03-2017 00:00:00 8.33917 C 22.4167 %
1869 18-03-2017 00:00:00 8.97583 C 28.3167 %
1870 19-03-2017 00:00:00 12.0025 C 29.0167 %
1871 20-03-2017 00:00:00 11.53917 C 20.0000 %
1872 21-03-2017 00:00:00 8.86 C 25.1667 %
1873 22-03-2017 00:00:00 5.1675 C 32.8583 %
1874 23-03-2017 00:00:00 8.915 C 31.3000 %
1875 24-03-2017 00:00:00 9.54583 C 23.0250 %
Sensor: Nr:Datum:Temp:Feuchte:
Aussen-T/F 1876 25-03-2017 00:00:00 9.54417 C 26.8417 %
1877 26-03-2017 00:00:00 9.08696 C 20.0000 %
1878 27-03-2017 00:00:00 8.34583 C 26.6083 %
1879 28-03-2017 00:00:00 9.97417 C 22.6583 %
1880 29-03-2017 00:00:00 12.77833 C 22.9417 %
1881 30-03-2017 00:00:00 14.22417 C 22.9833 %
1882 31-03-2017 00:00:00 13.35333 C 29.3000 %
1883 01-04-2017 00:00:00 13.83417 C 20.9000 %
1884 02-04-2017 00:00:00 11.94167 C 24.9167 %
1885 03-04-2017 00:00:00 10.62 C 26.7750 %
1886 04-04-2017 00:00:00 9.20333 C 28.3417 %
1887 05-04-2017 00:00:00 8.82333 C 22.4667 %
1888 06-04-2017 00:00:00 9.21083 C 20.3667 %
1889 07-04-2017 00:00:00 10.40583 C 23.0667 %
1890 08-04-2017 00:00:00 13.42167 C 20.0917 %
1891 09-04-2017 00:00:00 12.59 C 28.2250 %
1892 10-04-2017 00:00:00 10.98833 C 23.4333 %
1893 11-04-2017 00:00:00 10.6675 C 20.0000 %
1894 12-04-2017 00:00:00 11.54667 C 20.0083 %
1895 13-04-2017 00:00:00 12.27417 C 20.7667 %
1896 14-04-2017 00:00:00 10.30417 C 22.3083 %
1897 15-04-2017 00:00:00 8.6675 C 21.4500 %
1898 16-04-2017 00:00:00 7.34417 C 23.7417 %
1899 17-04-2017 00:00:00 6.805 C 28.0667 %
1900 18-04-2017 00:00:00 5.69667 C 20.6333 %
Sensor: Nr:Datum:Temp:Feuchte:
Aussen-T/F 1901 19-04-2017 00:00:00 4.65667 C 28.3500 %
1902 20-04-2017 00:00:00 6.6825 C 23.4667 %
1903 21-04-2017 00:00:00 8.16917 C 22.1500 %
1904 22-04-2017 00:00:00 9.88 C 20.0000 %
1905 23-04-2017 00:00:00 7.65 C 20.5333 %
1906 24-04-2017 00:00:00 6.5875 C 27.3250 %
1907 25-04-2017 00:00:00 7.13193 C 20.0000 %
1908 26-04-2017 00:00:00 7.62583 C 20.1500 %
1909 27-04-2017 00:00:00 7.74917 C 23.9083 %
1910 28-04-2017 00:00:00 6.26083 C 27.3167 %
1911 29-04-2017 00:00:00 9.68667 C 30.5750 %
1912 30-04-2017 00:00:00 11.3975 C 20.0000 %
1913 01-05-2017 00:00:00 9.75083 C 27.4250 %
1914 02-05-2017 00:00:00 8.5825 C 45.3500 %
1915 03-05-2017 00:00:00 10.7175 C 39.5000 %
1916 04-05-2017 00:00:00 11.94833 C 30.7750 %
1917 05-05-2017 00:00:00 12.685 C 23.2667 %
1918 06-05-2017 00:00:00 13.30333 C 33.1667 %
1919 07-05-2017 00:00:00 12.8375 C 37.3083 %
1920 08-05-2017 00:00:00 9.69083 C 26.5500 %
1921 09-05-2017 00:00:00 11.87667 C 24.9000 %
1922 10-05-2017 00:00:00 11.33833 C 26.9167 %
1923 11-05-2017 00:00:00 14.63833 C 25.1750 %
1924 12-05-2017 00:00:00 16.395 C 30.7500 %
1925 13-05-2017 00:00:00 18.05917 C 28.5167 %
Sensor: Nr:Datum:Temp:Feuchte:
Aussen-T/F 1926 14-05-2017 00:00:00 16.575 C 24.9333 %
1927 15-05-2017 00:00:00 16.65 C 33.9583 %
1928 16-05-2017 00:00:00 20.58167 C 20.0000 %
1929 17-05-2017 00:00:00 21.33 C 20.8417 %
1930 18-05-2017 00:00:00 18.02917 C 26.7583 %
1931 19-05-2017 00:00:00 13.17667 C 46.5833 %
1932 20-05-2017 00:00:00 12.655 C 37.4083 %
1933 21-05-2017 00:00:00 14.64917 C 29.2750 %
1934 22-05-2017 00:00:00 17.3675 C 27.8667 %
1935 23-05-2017 00:00:00 19.65167 C 23.7417 %
1936 24-05-2017 00:00:00 17.405 C 20.4000 %
1937 25-05-2017 00:00:00 20.29 C 21.8917 %
1938 26-05-2017 00:00:00 19.73833 C 24.5250 %
1939 27-05-2017 00:00:00 22.6075 C 24.8667 %
1940 28-05-2017 00:00:00 21.81583 C 24.8250 %
1941 29-05-2017 00:00:00 24.57833 C 34.4500 %
1942 30-05-2017 00:00:00 22.94833 C 21.0500 %
1943 31-05-2017 00:00:00 20.15917 C 21.0333 %
1944 01-06-2017 00:00:00 20.24833 C 23.6500 %
1945 02-06-2017 00:00:00 19.48083 C 25.5083 %
1946 03-06-2017 00:00:00 19.46417 C 36.0000 %
1947 04-06-2017 00:00:00 16.96583 C 37.9333 %
1948 05-06-2017 00:00:00 17.975 C 34.7083 %
1949 06-06-2017 00:00:00 16.04667 C 23.7250 %
1950 07-06-2017 00:00:00 14.48333 C 20.5500 %
Sensor: Nr:Datum:Temp:Feuchte:
Aussen-T/F 1951 08-06-2017 00:00:00 19.25 C 21.2917 %
1952 09-06-2017 00:00:00 18.0925 C 23.5250 %
1953 10-06-2017 00:00:00 19.44 C 25.5417 %
1954 11-06-2017 00:00:00 21.575 C 23.5750 %
1955 12-06-2017 00:00:00 22.1675 C 20.1333 %
1956 13-06-2017 00:00:00 19.81833 C 20.2667 %
1957 14-06-2017 00:00:00 20.985 C 24.1917 %
1958 15-06-2017 00:00:00 22.28333 C 21.9500 %
1959 16-06-2017 00:00:00 20.18667 C 20.0000 %
1960 17-06-2017 00:00:00 18.07917 C 20.4667 %
1961 18-06-2017 00:00:00 23.58667 C 21.1333 %
1962 19-06-2017 00:00:00 24.0825 C 23.3000 %
1963 20-06-2017 00:00:00 25.57083 C 21.0333 %
1964 21-06-2017 00:00:00 27.36167 C 20.0000 %
1965 22-06-2017 00:00:00 24.04083 C 25.6833 %
1966 23-06-2017 00:00:00 23.645 C 21.6583 %
1967 24-06-2017 00:00:00 21.56417 C 21.1667 %
1968 25-06-2017 00:00:00 20.95 C 20.0000 %
1969 26-06-2017 00:00:00 23.18333 C 20.0000 %
1970 27-06-2017 00:00:00 19.20417 C 25.8000 %
1971 28-06-2017 00:00:00 20.19167 C 37.8250 %
1972 29-06-2017 00:00:00 18.5125 C 27.5083 %
1973 30-06-2017 00:00:00 18.34833 C 22.5167 %
1974 01-07-2017 00:00:00 16.22083 C 30.4250 %
1975 02-07-2017 00:00:00 16.92 C 32.0250 %
Sensor: Nr:Datum:Temp:Feuchte:
Aussen-T/F 1976 03-07-2017 00:00:00 18.83333 C 27.3833 %
1977 04-07-2017 00:00:00 21.9375 C 21.4833 %
1978 05-07-2017 00:00:00 23.425 C 23.6833 %
1979 06-07-2017 00:00:00 22.78417 C 24.7917 %
1980 07-07-2017 00:00:00 24.54667 C 34.9667 %
1981 08-07-2017 00:00:00 24.04167 C 22.1750 %
1982 09-07-2017 00:00:00 23.87667 C 21.6750 %
1983 10-07-2017 00:00:00 19.995 C 36.4250 %
1984 11-07-2017 00:00:00 19.97417 C 25.9167 %
1985 12-07-2017 00:00:00 17.8025 C 27.7583 %
1986 13-07-2017 00:00:00 17.10583 C 27.2083 %
1987 14-07-2017 00:00:00 16.94333 C 24.9917 %
1988 15-07-2017 00:00:00 17.56583 C 24.2833 %
1989 16-07-2017 00:00:00 19.83833 C 21.7500 %
1990 17-07-2017 00:00:00 22.11583 C 25.7917 %
1991 18-07-2017 00:00:00 23.18917 C 26.1500 %
1992 19-07-2017 00:00:00 24.29083 C 22.7083 %
1993 20-07-2017 00:00:00 22.56083 C 28.0583 %
1994 21-07-2017 00:00:00 21.25917 C 21.7417 %
1995 22-07-2017 00:00:00 22.86083 C 31.7667 %
1996 23-07-2017 00:00:00 19.16417 C 32.9917 %
1997 24-07-2017 00:00:00 15.17 C 34.9083 %
1998 25-07-2017 00:00:00 14.17917 C 53.8250 %
1999 26-07-2017 00:00:00 17.7925 C 34.8833 %
2000 27-07-2017 00:00:00 19.165 C 34.9917 %
Sensor: Nr:Datum:Temp:Feuchte:
Aussen-T/F 2001 28-07-2017 00:00:00 17.4625 C 30.7500 %
2002 29-07-2017 00:00:00 20.93333 C 25.8500 %
2003 30-07-2017 00:00:00 23.44917 C 24.9833 %
2004 31-07-2017 00:00:00 21.3325 C 25.8250 %
2005 01-08-2017 00:00:00 20.18333 C 47.5000 %
2006 02-08-2017 00:00:00 22.01833 C 35.3417 %
2007 03-08-2017 00:00:00 21.82833 C 28.1250 %
2008 04-08-2017 00:00:00 21.0775 C 24.1917 %
2009 05-08-2017 00:00:00 19.94833 C 23.8417 %
2010 06-08-2017 00:00:00 18.32583 C 25.1000 %
2011 07-08-2017 00:00:00 17.93417 C 26.7083 %
2012 08-08-2017 00:00:00 17.9375 C 27.5583 %
2013 09-08-2017 00:00:00 18.1525 C 23.5583 %
2014 10-08-2017 00:00:00 15.35 C 47.5833 %
2015 11-08-2017 00:00:00 14.705 C 51.5167 %
2016 12-08-2017 00:00:00 15.305 C 40.2750 %
2017 13-08-2017 00:00:00 18.60917 C 28.7333 %
2018 14-08-2017 00:00:00 18.56167 C 33.7917 %
2019 15-08-2017 00:00:00 18.83833 C 38.5333 %
2020 16-08-2017 00:00:00 19.97167 C 37.3917 %
2021 17-08-2017 00:00:00 19.57167 C 33.3667 %
2022 18-08-2017 00:00:00 18.17417 C 43.5167 %
2023 19-08-2017 00:00:00 14.47417 C 43.3667 %
2024 20-08-2017 00:00:00 14.925 C 30.8417 %
2025 21-08-2017 00:00:00 16.3575 C 28.8917 %
Sensor: Nr:Datum:Temp:Feuchte:
Aussen-T/F 2026 22-08-2017 00:00:00 16.08833 C 31.8500 %
2027 23-08-2017 00:00:00 17.92583 C 30.8917 %
2028 24-08-2017 00:00:00 19.9075 C 26.1917 %
2029 25-08-2017 00:00:00 18.30833 C 37.3750 %
2030 26-08-2017 00:00:00 20.88833 C 44.3167 %
2031 27-08-2017 00:00:00 19.63083 C 34.5250 %
2032 28-08-2017 00:00:00 19.4775 C 30.1667 %
2033 29-08-2017 00:00:00 20.03667 C 34.9500 %
2034 30-08-2017 00:00:00 20.91167 C 31.6750 %
2035 31-08-2017 00:00:00 17.32857 C 27.5210 %
2036 01-09-2017 00:00:00 14.1 C 34.5083 %
2037 02-09-2017 00:00:00 14.51417 C 34.0667 %
2038 03-09-2017 00:00:00 12.90417 C 31.6750 %
2039 04-09-2017 00:00:00 13.94167 C 34.8750 %
2040 05-09-2017 00:00:00 17.87 C 36.6833 %
2041 06-09-2017 00:00:00 17.47083 C 25.8083 %
2042 07-09-2017 00:00:00 15.90083 C 21.1083 %
2043 08-09-2017 00:00:00 15.99583 C 20.6583 %
2044 09-09-2017 00:00:00 14.54 C 39.9417 %
2045 10-09-2017 00:00:00 13.27583 C 43.1833 %
2046 11-09-2017 00:00:00 14.27083 C 26.4083 %
2047 12-09-2017 00:00:00 14.32583 C 26.1417 %
2048 13-09-2017 00:00:00 13.965 C 38.8333 %
2049 14-09-2017 00:00:00 11.75417 C 39.2750 %
2050 15-09-2017 00:00:00 12.5175 C 33.8750 %
Sensor: Nr:Datum:Temp:Feuchte:
Aussen-T/F 2051 16-09-2017 00:00:00 10.11333 C 40.9500 %
2052 17-09-2017 00:00:00 9.67 C 51.4833 %
2053 18-09-2017 00:00:00 10.46 C 46.2417 %
2054 19-09-2017 00:00:00 11.76 C 32.8500 %
2055 20-09-2017 00:00:00 11.29583 C 42.5167 %
2056 21-09-2017 00:00:00 10.49 C 44.7417 %
2057 22-09-2017 00:00:00 11.12417 C 43.8917 %
2058 23-09-2017 00:00:00 13.495 C 40.1917 %
2059 24-09-2017 00:00:00 12.475 C 44.1417 %
2060 25-09-2017 00:00:00 12.56583 C 44.0250 %
2061 26-09-2017 00:00:00 13.27167 C 41.8333 %
2062 27-09-2017 00:00:00 13.05083 C 43.9333 %
2063 28-09-2017 00:00:00 14.64667 C 44.6000 %
2064 29-09-2017 00:00:00 17.38667 C 38.5083 %
2065 30-09-2017 00:00:00 14.205 C 48.5667 %
2066 01-10-2017 00:00:00 10.23667 C 56.3000 %
2067 02-10-2017 00:00:00 13.38833 C 43.6167 %
2068 03-10-2017 00:00:00 12.20667 C 42.3667 %
2069 04-10-2017 00:00:00 11.05583 C 31.0333 %
2070 05-10-2017 00:00:00 12.92833 C 21.9667 %
2071 06-10-2017 00:00:00 9.4 C 33.6250 %
2072 07-10-2017 00:00:00 9.55083 C 31.6583 %
2073 08-10-2017 00:00:00 11.81833 C 41.5417 %
2074 09-10-2017 00:00:00 10.9925 C 47.1583 %
2075 10-10-2017 00:00:00 12.88917 C 31.8167 %
Sensor: Nr:Datum:Temp:Feuchte:
Aussen-T/F 2076 11-10-2017 00:00:00 13.19167 C 31.2083 %
2077 12-10-2017 00:00:00 13.13667 C 36.6500 %
2078 13-10-2017 00:00:00 13.9275 C 38.7583 %
2079 14-10-2017 00:00:00 12.47167 C 50.0167 %
2080 15-10-2017 00:00:00 11.94833 C 54.6750 %
2081 16-10-2017 00:00:00 12.63333 C 51.4833 %
2082 17-10-2017 00:00:00 12.20667 C 52.4250 %
2083 18-10-2017 00:00:00 11.85333 C 50.4167 %
2084 19-10-2017 00:00:00 11.0025 C 50.7750 %
2085 20-10-2017 00:00:00 11.63697 C 37.7479 %
2086 21-10-2017 00:00:00 11.28083 C 38.1917 %
2087 22-10-2017 00:00:00 10.28417 C 24.4167 %
2088 23-10-2017 00:00:00 10.42417 C 23.7667 %
2089 24-10-2017 00:00:00 12.76333 C 33.7917 %
2090 25-10-2017 00:00:00 15.1425 C 27.6500 %
2091 26-10-2017 00:00:00 13.17917 C 29.2667 %
2092 27-10-2017 00:00:00 10.80833 C 33.6167 %
2093 28-10-2017 00:00:00 10.09833 C 24.5250 %
2094 29-10-2017 00:00:00 10.1184 C 26.6160 %
2095 30-10-2017 00:00:00 6.43917 C 30.2667 %
2096 31-10-2017 00:00:00 7.06917 C 27.1250 %
2097 01-11-2017 00:00:00 7.99917 C 24.8000 %
2098 02-11-2017 00:00:00 7.76917 C 32.9583 %
2099 03-11-2017 00:00:00 6.735 C 45.5833 %
2100 04-11-2017 00:00:00 7.89167 C 53.2917 %
Sensor: Nr:Datum:Temp:Feuchte:
Aussen-T/F 2101 05-11-2017 00:00:00 8.26167 C 46.6500 %
2102 06-11-2017 00:00:00 5.14 C 33.5917 %
2103 07-11-2017 00:00:00 4.24333 C 45.0833 %
2104 08-11-2017 00:00:00 6.0575 C 55.0333 %
2105 09-11-2017 00:00:00 7.38917 C 46.1583 %
2106 10-11-2017 00:00:00 6.65917 C 26.9667 %
2107 11-11-2017 00:00:00 5.63583 C 40.7000 %
2108 12-11-2017 00:00:00 3.91583 C 58.4500 %
2109 13-11-2017 00:00:00 4.73833 C 41.6917 %
2110 14-11-2017 00:00:00 3.73417 C 47.8500 %
2111 15-11-2017 00:00:00 6.5375 C 27.1083 %
2112 16-11-2017 00:00:00 4.27833 C 39.8500 %
2113 17-11-2017 00:00:00 5.2975 C 48.8250 %
2114 18-11-2017 00:00:00 2.87083 C 39.8833 %
2115 19-11-2017 00:00:00 4.78583 C 32.4167 %
2116 20-11-2017 00:00:00 4.46917 C 31.8667 %
2117 21-11-2017 00:00:00 8.65667 C 28.5833 %
2118 22-11-2017 00:00:00 7.285 C 30.5250 %
2119 23-11-2017 00:00:00 8.5175 C 46.0583 %
2120 24-11-2017 00:00:00 9.68 C 41.3083 %
2121 25-11-2017 00:00:00 4.5475 C 53.6583 %
2122 26-11-2017 00:00:00 2.92583 C 28.8917 %
2123 27-11-2017 00:00:00 4.8625 C 21.2917 %
2124 28-11-2017 00:00:00 3.22667 C 51.1000 %
2125 29-11-2017 00:00:00 2.265 C 55.6667 %
Sensor: Nr:Datum:Temp:Feuchte:
Aussen-T/F 2126 30-11-2017 00:00:00 1.60417 C 52.1417 %
2127 01-12-2017 00:00:00 -0.2175 C 65.1167 %
2128 02-12-2017 00:00:00 0.44833 C 41.3833 %
2129 03-12-2017 00:00:00 -0.00667 C 31.2250 %
2130 04-12-2017 00:00:00 2.29 C 46.3167 %
2131 05-12-2017 00:00:00 3.6025 C 38.3333 %
2132 06-12-2017 00:00:00 5.19833 C 24.6583 %
2133 07-12-2017 00:00:00 4.21333 C 22.9083 %
2134 08-12-2017 00:00:00 2.61083 C 31.9250 %
2135 09-12-2017 00:00:00 0.24417 C 20.0083 %
2136 10-12-2017 00:00:00 1.39167 C 28.5667 %
2137 11-12-2017 00:00:00 4.91083 C 48.9333 %
2138 12-12-2017 00:00:00 2.8125 C 21.0417 %
2139 13-12-2017 00:00:00 2.70083 C 32.0833 %
2140 14-12-2017 00:00:00 3.58417 C 33.7083 %
2141 15-12-2017 00:00:00 2.05167 C 59.1500 %
2142 16-12-2017 00:00:00 2.14667 C 54.8167 %
2143 17-12-2017 00:00:00 2.22583 C 28.7000 %
2144 18-12-2017 00:00:00 0.71333 C 56.1333 %
2145 19-12-2017 00:00:00 2.67 C 67.9667 %
2146 20-12-2017 00:00:00 4.95083 C 67.4833 %
2147 21-12-2017 00:00:00 6.82667 C 61.0083 %
2148 22-12-2017 00:00:00 8.10417 C 67.4917 %
2149 23-12-2017 00:00:00 8.1975 C 39.8417 %
2150 24-12-2017 00:00:00 8.37583 C 20.1083 %
Sensor: Nr:Datum:Temp:Feuchte:
Aussen-T/F 2151 25-12-2017 00:00:00 6.34167 C 20.0583 %
2152 26-12-2017 00:00:00 3.55917 C 38.0083 %
2153 27-12-2017 00:00:00 4.2 C 40.9333 %
2154 28-12-2017 00:00:00 2.28083 C 30.6667 %
2155 29-12-2017 00:00:00 1.6 C 29.8333 %
2156 30-12-2017 00:00:00 6.22583 C 44.3250 %
2157 31-12-2017 00:00:00 12.09667 C 23.3583 %
2158 01-01-2018 00:00:00 7.035 C 28.9500 %
2159 02-01-2018 00:00:00 5.395 C 28.4083 %
2160 03-01-2018 00:00:00 7.40667 C 26.8250 %
2161 04-01-2018 00:00:00 7.375 C 35.2167 %
2162 05-01-2018 00:00:00 7.45583 C 34.5250 %
2163 06-01-2018 00:00:00 5.4075 C 71.1333 %
2164 07-01-2018 00:00:00 4.365 C 39.4167 %
2165 08-01-2018 00:00:00 3.86417 C 21.1167 %
2166 09-01-2018 00:00:00 4.01083 C 35.8167 %
2167 10-01-2018 00:00:00 5.88833 C 39.9000 %
2168 11-01-2018 00:00:00 6.29167 C 52.8750 %
2169 12-01-2018 00:00:00 5.70083 C 50.0167 %
2170 13-01-2018 00:00:00 4.70917 C 38.6750 %
2171 14-01-2018 00:00:00 2.06917 C 25.5583 %
2172 15-01-2018 00:00:00 2.675 C 35.7000 %
2173 16-01-2018 00:00:00 5.00167 C 27.7500 %
2174 17-01-2018 00:00:00 2.35 C 27.4500 %
2175 18-01-2018 00:00:00 4.8775 C 25.4667 %
Sensor: Nr:Datum:Temp:Feuchte:
Aussen-T/F 2176 19-01-2018 00:00:00 2.92583 C 27.3750 %
2177 20-01-2018 00:00:00 2.10833 C 38.1000 %
2178 21-01-2018 00:00:00 1.73917 C 43.8167 %
2179 22-01-2018 00:00:00 4.38583 C 45.1083 %
2180 23-01-2018 00:00:00 6.65593 C 27.4831 %
2181 24-01-2018 00:00:00 10.79316 C 24.5470 %
2182 25-01-2018 00:00:00 9.13917 C 43.9750 %
2183 26-01-2018 00:00:00 5.89167 C 56.7333 %
2184 27-01-2018 00:00:00 4.26583 C 45.6667 %
2185 28-01-2018 00:00:00 6.63917 C 22.5333 %
2186 29-01-2018 00:00:00 9.275 C 22.7417 %
2187 30-01-2018 00:00:00 4.25333 C 35.1167 %
2188 31-01-2018 00:00:00 6.62917 C 32.6500 %
2189 01-02-2018 00:00:00 2.0675 C 36.1083 %
2190 02-02-2018 00:00:00 2.36417 C 31.6667 %
2191 03-02-2018 00:00:00 2.65042 C 30.2269 %
2192 04-02-2018 00:00:00 0.38667 C 29.6333 %
2193 05-02-2018 00:00:00 -0.98583 C 20.2500 %
2194 06-02-2018 00:00:00 -1.55167 C 25.9583 %
2195 07-02-2018 00:00:00 -0.79667 C 32.3833 %
2196 08-02-2018 00:00:00 -3.34333 C 28.9667 %
2197 09-02-2018 00:00:00 -2.8975 C 36.1833 %
2198 10-02-2018 00:00:00 1.41833 C 24.0167 %
2199 11-02-2018 00:00:00 2.22 C 26.3667 %
2200 12-02-2018 00:00:00 1.25083 C 34.8917 %
Sensor: Nr:Datum:Temp:Feuchte:
Aussen-T/F 2201 13-02-2018 00:00:00 -1.44 C 29.8417 %
2202 14-02-2018 00:00:00 -3.14333 C 28.8667 %
2203 15-02-2018 00:00:00 0.80417 C 40.6583 %
2204 16-02-2018 00:00:00 0.98667 C 60.1667 %
2205 17-02-2018 00:00:00 -0.55 C 48.8833 %
2206 18-02-2018 00:00:00 -2.16917 C 38.4250 %
2207 19-02-2018 00:00:00 0.37083 C 35.6500 %
2208 20-02-2018 00:00:00 -0.54083 C 33.3417 %
2209 21-02-2018 00:00:00 -0.04917 C 22.5333 %
2210 22-02-2018 00:00:00 -1.265 C 21.2167 %
2211 23-02-2018 00:00:00 -2.0175 C 20.0000 %
2212 24-02-2018 00:00:00 -2.72667 C 20.0000 %
2213 25-02-2018 00:00:00 -3.74417 C 20.0000 %
2214 26-02-2018 00:00:00 -5.06167 C 20.0000 %
2215 27-02-2018 00:00:00 -7.2225 C 20.3500 %
2216 28-02-2018 00:00:00 -7.98333 C 20.0000 %
2217 01-03-2018 00:00:00 -3.74917 C 20.0000 %
2218 02-03-2018 00:00:00 -2.59083 C 20.0917 %
2219 03-03-2018 00:00:00 -0.72083 C 28.3583 %
2220 04-03-2018 00:00:00 3.2 C 37.8833 %
2221 05-03-2018 00:00:00 5.22833 C 42.3583 %
2222 06-03-2018 00:00:00 4.25 C 40.7750 %
2223 07-03-2018 00:00:00 4.89167 C 43.0333 %
2224 08-03-2018 00:00:00 5.66417 C 23.5833 %
2225 09-03-2018 00:00:00 4.83667 C 41.9500 %
Sensor: Nr:Datum:Temp:Feuchte:
Aussen-T/F 2226 10-03-2018 00:00:00 9.51333 C 45.7833 %
2227 11-03-2018 00:00:00 9.60833 C 40.1667 %
2228 12-03-2018 00:00:00 9.04083 C 37.0250 %
2229 13-03-2018 00:00:00 6.84083 C 24.1083 %
2230 14-03-2018 00:00:00 6.32917 C 26.1667 %
2231 15-03-2018 00:00:00 5.73833 C 33.0750 %
2232 16-03-2018 00:00:00 7.00917 C 47.9667 %
2233 17-03-2018 00:00:00 -0.93917 C 20.2583 %
2234 18-03-2018 00:00:00 -2.1675 C 20.0000 %
2235 19-03-2018 00:00:00 -0.63417 C 20.0000 %
2236 20-03-2018 00:00:00 -0.4175 C 20.0167 %
2237 21-03-2018 00:00:00 0.5225 C 24.8500 %
2238 22-03-2018 00:00:00 2.45417 C 30.2000 %
2239 23-03-2018 00:00:00 5.83583 C 38.3250 %
2240 24-03-2018 00:00:00 4.74917 C 35.3167 %
2241 25-03-2018 00:00:00 4.60522 C 30.4870 %
2242 26-03-2018 00:00:00 7.34167 C 20.0250 %
2243 27-03-2018 00:00:00 5.52083 C 29.7083 %
2244 28-03-2018 00:00:00 8.02667 C 36.4167 %
2245 29-03-2018 00:00:00 6.93667 C 20.9833 %
2246 30-03-2018 00:00:00 6.38833 C 34.0000 %
2247 31-03-2018 00:00:00 7.84583 C 39.4917 %
2248 01-04-2018 00:00:00 7.26083 C 20.4250 %
2249 02-04-2018 00:00:00 8.7875 C 27.6500 %
2250 03-04-2018 00:00:00 13.26583 C 20.0000 %
Sensor: Nr:Datum:Temp:Feuchte:
Aussen-T/F 2251 04-04-2018 00:00:00 10.6625 C 24.3500 %
2252 05-04-2018 00:00:00 7.485 C 30.3417 %
2253 06-04-2018 00:00:00 6.66833 C 35.5583 %
2254 07-04-2018 00:00:00 12.16083 C 22.7583 %
2255 08-04-2018 00:00:00 14.75333 C 22.3333 %
2256 09-04-2018 00:00:00 13.84583 C 24.6917 %
2257 10-04-2018 00:00:00 12.68 C 28.0833 %
2258 11-04-2018 00:00:00 11.99333 C 34.9833 %
2259 12-04-2018 00:00:00 13.34833 C 37.0500 %
2260 13-04-2018 00:00:00 9.9075 C 32.0833 %
2261 14-04-2018 00:00:00 12.74 C 36.2167 %
2262 15-04-2018 00:00:00 14.41667 C 27.2750 %
2263 16-04-2018 00:00:00 13.76083 C 31.1917 %
2264 17-04-2018 00:00:00 14.02167 C 29.2083 %
2265 18-04-2018 00:00:00 15.74583 C 26.0333 %
2266 19-04-2018 00:00:00 17.22083 C 26.6000 %
2267 20-04-2018 00:00:00 17.00083 C 24.1667 %
2268 21-04-2018 00:00:00 18.43667 C 23.5750 %
2269 22-04-2018 00:00:00 18.55417 C 25.1083 %
2270 23-04-2018 00:00:00 18.66417 C 20.2833 %
2271 24-04-2018 00:00:00 14.27333 C 24.2167 %
2272 25-04-2018 00:00:00 13.4125 C 21.6750 %
2273 26-04-2018 00:00:00 11.21 C 20.0000 %
2274 27-04-2018 00:00:00 12.55083 C 22.6167 %
2275 28-04-2018 00:00:00 12.6075 C 23.1000 %
Sensor: Nr:Datum:Temp:Feuchte:
Aussen-T/F 2276 29-04-2018 00:00:00 14.48167 C 29.9583 %
2277 30-04-2018 00:00:00 13.82167 C 24.6083 %
2278 01-05-2018 00:00:00 9.82667 C 20.0500 %
2279 02-05-2018 00:00:00 9.81083 C 27.0250 %
2280 03-05-2018 00:00:00 12.9575 C 23.3250 %
2281 04-05-2018 00:00:00 13.49833 C 21.9583 %
2282 05-05-2018 00:00:00 15.83583 C 20.0667 %
2283 06-05-2018 00:00:00 17.25 C 20.1167 %
2284 07-05-2018 00:00:00 17.88167 C 21.1000 %
2285 08-05-2018 00:00:00 18.43583 C 22.6667 %
2286 09-05-2018 00:00:00 17.19333 C 22.2583 %
2287 10-05-2018 00:00:00 14.13917 C 25.9500 %
2288 11-05-2018 00:00:00 14.92083 C 27.9167 %
2289 12-05-2018 00:00:00 17.0825 C 28.2750 %
2290 13-05-2018 00:00:00 14.3425 C 37.0500 %
2291 14-05-2018 00:00:00 17.16333 C 35.6750 %
2292 15-05-2018 00:00:00 16.0375 C 27.9417 %
2293 16-05-2018 00:00:00 15.7475 C 27.4000 %
2294 17-05-2018 00:00:00 14.55667 C 23.4833 %
2295 18-05-2018 00:00:00 13.17083 C 21.1083 %
2296 19-05-2018 00:00:00 13.845 C 23.5250 %
2297 20-05-2018 00:00:00 14.06917 C 31.8333 %
2298 21-05-2018 00:00:00 17.55333 C 27.4333 %
2299 22-05-2018 00:00:00 17.09833 C 29.9833 %
2300 23-05-2018 00:00:00 17.23083 C 36.1833 %
Sensor: Nr:Datum:Temp:Feuchte:
Aussen-T/F 2301 24-05-2018 00:00:00 17.22083 C 27.4917 %
2302 25-05-2018 00:00:00 20.19417 C 26.8083 %
2303 26-05-2018 00:00:00 21.1325 C 26.3667 %
2304 27-05-2018 00:00:00 20.4375 C 27.6917 %
2305 28-05-2018 00:00:00 21.70917 C 33.5833 %
2306 29-05-2018 00:00:00 20.88333 C 27.1500 %
2307 30-05-2018 00:00:00 21.6725 C 28.2333 %
2308 31-05-2018 00:00:00 23.08167 C 20.2750 %
2309 01-06-2018 00:00:00 19.3725 C 29.3667 %
2310 02-06-2018 00:00:00 19.64917 C 23.6750 %
2311 03-06-2018 00:00:00 20.04167 C 24.8250 %
2312 04-06-2018 00:00:00 21.5125 C 24.5417 %
2313 05-06-2018 00:00:00 21.2475 C 22.2500 %
2314 06-06-2018 00:00:00 21.6775 C 24.0000 %
2315 07-06-2018 00:00:00 21.58667 C 22.6167 %
2316 08-06-2018 00:00:00 21.40167 C 24.3000 %
2317 09-06-2018 00:00:00 22.3959 C 23.5984 %
2318 10-06-2018 00:00:00 21.64333 C 33.3000 %
2319 11-06-2018 00:00:00 19.07083 C 41.7083 %
2320 12-06-2018 00:00:00 16.44167 C 37.5250 %
2321 13-06-2018 00:00:00 15.1 C 22.7000 %
2322 14-06-2018 00:00:00 15.48083 C 30.2917 %
2323 15-06-2018 00:00:00 17.9025 C 35.7250 %
2324 16-06-2018 00:00:00 20.2775 C 26.1583 %
2325 17-06-2018 00:00:00 18.42583 C 22.8083 %
Sensor: Nr:Datum:Temp:Feuchte:
Aussen-T/F 2326 18-06-2018 00:00:00 18.235 C 21.9750 %
2327 19-06-2018 00:00:00 19.13333 C 25.5583 %
2328 20-06-2018 00:00:00 23.4825 C 24.4667 %
2329 21-06-2018 00:00:00 18.58 C 22.6500 %
2330 22-06-2018 00:00:00 14.12167 C 20.0000 %
2331 23-06-2018 00:00:00 14.19167 C 21.2750 %
2332 24-06-2018 00:00:00 16.46667 C 22.7833 %
2333 25-06-2018 00:00:00 17.57167 C 21.5583 %
2334 26-06-2018 00:00:00 18.34083 C 24.8583 %
2335 27-06-2018 00:00:00 19.81083 C 24.3333 %
2336 28-06-2018 00:00:00 21.28417 C 20.6000 %
2337 29-06-2018 00:00:00 24.82417 C 20.0000 %
2338 30-06-2018 00:00:00 22.8375 C 20.4583 %
2339 01-07-2018 00:00:00 21.52333 C 20.0000 %
2340 02-07-2018 00:00:00 21.06583 C 20.0000 %
2341 03-07-2018 00:00:00 21.34917 C 20.0000 %
2342 04-07-2018 00:00:00 19.00917 C 27.2667 %
2343 05-07-2018 00:00:00 19.70667 C 33.6083 %
2344 06-07-2018 00:00:00 20.57333 C 25.0417 %
2345 07-07-2018 00:00:00 21.3521 C 23.5630 %
2346 08-07-2018 00:00:00 20.38417 C 21.0583 %
2347 09-07-2018 00:00:00 20.71083 C 21.4167 %
2348 10-07-2018 00:00:00 17.5975 C 22.4000 %
2349 11-07-2018 00:00:00 16.2875 C 33.6667 %
2350 12-07-2018 00:00:00 19.71583 C 32.5000 %
Sensor: Nr:Datum:Temp:Feuchte:
Aussen-T/F 2351 13-07-2018 00:00:00 20.13 C 24.9667 %
2352 14-07-2018 00:00:00 22.01333 C 24.7500 %
2353 15-07-2018 00:00:00 22.10833 C 22.6333 %
2354 16-07-2018 00:00:00 23.10667 C 21.7167 %
2355 17-07-2018 00:00:00 21.59583 C 20.3583 %
2356 18-07-2018 00:00:00 20.9475 C 22.7500 %
2357 19-07-2018 00:00:00 21.47667 C 21.5833 %
2358 20-07-2018 00:00:00 21.81583 C 20.1917 %
2359 21-07-2018 00:00:00 20.94083 C 22.6750 %
2360 22-07-2018 00:00:00 22.115 C 25.1500 %
2361 23-07-2018 00:00:00 22.98917 C 21.2167 %
2362 24-07-2018 00:00:00 24.11417 C 22.5833 %
2363 25-07-2018 00:00:00 25.90417 C 20.1583 %
2364 26-07-2018 00:00:00 27.54333 C 20.0167 %
2365 27-07-2018 00:00:00 26.46167 C 20.0000 %
2366 28-07-2018 00:00:00 22.24 C 22.3250 %
2367 29-07-2018 00:00:00 23.87667 C 23.3500 %
2368 30-07-2018 00:00:00 24.435 C 20.3250 %
2369 31-07-2018 00:00:00 25.8025 C 21.1500 %
2370 01-08-2018 00:00:00 20.68583 C 32.5500 %
2371 02-08-2018 00:00:00 24.12 C 31.7333 %
2372 03-08-2018 00:00:00 26.79583 C 20.9083 %
2373 04-08-2018 00:00:00 26.84 C 20.0667 %
2374 05-08-2018 00:00:00 25.5025 C 20.1667 %
2375 06-08-2018 00:00:00 24.4075 C 20.1500 %
Sensor: Nr:Datum:Temp:Feuchte:
Aussen-T/F 2376 07-08-2018 00:00:00 26.99333 C 20.0000 %
2377 08-08-2018 00:00:00 25.83667 C 20.0000 %
2378 09-08-2018 00:00:00 20.8725 C 26.6583 %
2379 10-08-2018 00:00:00 18.73667 C 20.8917 %
2380 11-08-2018 00:00:00 18.76667 C 20.0000 %
2381 12-08-2018 00:00:00 18.38667 C 21.9833 %
2382 13-08-2018 00:00:00 17.82083 C 28.9750 %
2383 14-08-2018 00:00:00 18.755 C 28.1167 %
2384 15-08-2018 00:00:00 19.59583 C 29.0833 %
2385 16-08-2018 00:00:00 20.84333 C 28.0000 %
2386 17-08-2018 00:00:00 20.11583 C 22.3500 %
2387 18-08-2018 00:00:00 19.2675 C 26.3417 %
2388 19-08-2018 00:00:00 20.68667 C 23.5250 %
2389 20-08-2018 00:00:00 21.20333 C 20.6833 %
2390 21-08-2018 00:00:00 22.2425 C 24.3417 %
2391 22-08-2018 00:00:00 23.51417 C 22.7667 %
2392 23-08-2018 00:00:00 23.22 C 23.0167 %
2393 24-08-2018 00:00:00 19.31833 C 20.6583 %
2394 25-08-2018 00:00:00 14.65417 C 21.6083 %
2395 26-08-2018 00:00:00 13.95083 C 28.0000 %
2396 27-08-2018 00:00:00 18.20917 C 20.3667 %
2397 28-08-2018 00:00:00 18.39833 C 20.7167 %
2398 29-08-2018 00:00:00 17.005 C 30.8917 %
2399 30-08-2018 00:00:00 17.4125 C 25.9167 %
2400 31-08-2018 00:00:00 15.33167 C 23.6000 %
Sensor: Nr:Datum:Temp:Feuchte:
Aussen-T/F 2401 01-09-2018 00:00:00 14.445 C 26.6667 %
2402 02-09-2018 00:00:00 14.24833 C 24.8000 %
2403 03-09-2018 00:00:00 18.13417 C 22.9917 %
2404 04-09-2018 00:00:00 20.0425 C 27.0167 %
2405 05-09-2018 00:00:00 20.69 C 25.3083 %
2406 06-09-2018 00:00:00 18.0925 C 32.7583 %
2407 07-09-2018 00:00:00 15.6675 C 33.8500 %
2408 08-09-2018 00:00:00 13.5425 C 30.5333 %
2409 09-09-2018 00:00:00 16.80833 C 23.2500 %
2410 10-09-2018 00:00:00 17.5025 C 23.9000 %
2411 11-09-2018 00:00:00 18.86667 C 26.0333 %
2412 12-09-2018 00:00:00 19.03167 C 24.0083 %
2413 13-09-2018 00:00:00 16.5775 C 25.7417 %
2414 14-09-2018 00:00:00 17.1375 C 25.2000 %
2415 15-09-2018 00:00:00 15.17 C 21.0833 %
2416 16-09-2018 00:00:00 14.51 C 27.7833 %
2417 17-09-2018 00:00:00 16.24583 C 25.3583 %
2418 18-09-2018 00:00:00 18.72833 C 26.0000 %
2419 19-09-2018 00:00:00 20.545 C 25.3250 %
2420 20-09-2018 00:00:00 19.08833 C 26.8417 %
2421 21-09-2018 00:00:00 15.91167 C 24.5750 %
2422 22-09-2018 00:00:00 12.6825 C 25.6333 %
2423 23-09-2018 00:00:00 12.18083 C 47.2250 %
2424 24-09-2018 00:00:00 9.66 C 36.3583 %
2425 25-09-2018 00:00:00 8.06417 C 42.7083 %
Sensor: Nr:Datum:Temp:Feuchte:
Aussen-T/F 2426 26-09-2018 00:00:00 8.5625 C 35.2583 %
2427 27-09-2018 00:00:00 10.55833 C 35.5667 %
2428 28-09-2018 00:00:00 9.67833 C 43.7167 %
2429 29-09-2018 00:00:00 7.75083 C 41.1250 %
2430 30-09-2018 00:00:00 7.2475 C 35.9250 %
2431 01-10-2018 00:00:00 9.41583 C 29.7833 %
2432 02-10-2018 00:00:00 8.87917 C 33.7167 %
2433 03-10-2018 00:00:00 11.93917 C 34.0750 %
2434 04-10-2018 00:00:00 9.37167 C 38.3000 %
2435 05-10-2018 00:00:00 10.05917 C 42.4917 %
2436 06-10-2018 00:00:00 12.08583 C 44.5417 %
2437 07-10-2018 00:00:00 12.625 C 37.2750 %
2438 08-10-2018 00:00:00 9.9775 C 39.4833 %
2439 09-10-2018 00:00:00 11.14583 C 44.1500 %
2440 10-10-2018 00:00:00 12.71667 C 45.8500 %
2441 11-10-2018 00:00:00 13.6775 C 40.8667 %
2442 12-10-2018 00:00:00 15.05417 C 38.8667 %
2443 13-10-2018 00:00:00 14.68833 C 38.8250 %
2444 14-10-2018 00:00:00 13.92083 C 36.1000 %
2445 15-10-2018 00:00:00 12.87417 C 37.7167 %
2446 16-10-2018 00:00:00 12.0325 C 38.6083 %
2447 17-10-2018 00:00:00 12.01333 C 41.5083 %
2448 18-10-2018 00:00:00 13.73917 C 38.0333 %
2449 19-10-2018 00:00:00 11.66417 C 37.7167 %
2450 20-10-2018 00:00:00 10.57167 C 36.9583 %
Sensor: Nr:Datum:Temp:Feuchte:
Aussen-T/F 2451 21-10-2018 00:00:00 6.7725 C 44.7500 %
2452 22-10-2018 00:00:00 7.16833 C 43.7083 %
2453 23-10-2018 00:00:00 8.68 C 39.8083 %
2454 24-10-2018 00:00:00 13.58167 C 33.8333 %
2455 25-10-2018 00:00:00 12.74667 C 31.1083 %
2456 26-10-2018 00:00:00 9.95417 C 28.9917 %
2457 27-10-2018 00:00:00 5.7925 C 48.4000 %
2458 28-10-2018 00:00:00 5.2 C 33.7840 %
2459 29-10-2018 00:00:00 5.97083 C 33.6667 %
2460 30-10-2018 00:00:00 5.80583 C 46.3667 %
2461 31-10-2018 00:00:00 6.87167 C 39.3333 %
2462 01-11-2018 00:00:00 5.49083 C 58.1333 %
2463 02-11-2018 00:00:00 8.22333 C 53.4750 %
2464 03-11-2018 00:00:00 3.10583 C 60.6667 %
2465 04-11-2018 00:00:00 6.64167 C 47.4000 %
2466 05-11-2018 00:00:00 9.7725 C 45.3417 %
2467 06-11-2018 00:00:00 7.78167 C 57.6917 %
2468 07-11-2018 00:00:00 8.4 C 54.3917 %
2469 08-11-2018 00:00:00 9.7 C 41.1583 %
2470 09-11-2018 00:00:00 8.83167 C 49.0500 %
2471 10-11-2018 00:00:00 11.32 C 42.0250 %
2472 11-11-2018 00:00:00 11.46583 C 47.7500 %
2473 12-11-2018 00:00:00 13.07917 C 44.0417 %
2474 13-11-2018 00:00:00 9.75583 C 50.0167 %
2475 14-11-2018 00:00:00 5.56917 C 61.4000 %
Sensor: Nr:Datum:Temp:Feuchte:
Aussen-T/F 2476 15-11-2018 00:00:00 6.72833 C 38.5000 %
2477 16-11-2018 00:00:00 5.12667 C 41.4000 %
2478 17-11-2018 00:00:00 1.785 C 48.8667 %
2479 18-11-2018 00:00:00 0.80333 C 30.7417 %
2480 19-11-2018 00:00:00 2.95833 C 26.3167 %
2481 20-11-2018 00:00:00 2.95167 C 25.6167 %
2482 21-11-2018 00:00:00 1.93 C 37.9750 %
2483 22-11-2018 00:00:00 2.22833 C 39.2750 %
2484 23-11-2018 00:00:00 -0.8425 C 54.2583 %
2485 24-11-2018 00:00:00 4.05833 C 58.0917 %
2486 25-11-2018 00:00:00 5.29 C 56.7917 %
2487 26-11-2018 00:00:00 6.09333 C 35.8583 %
2488 27-11-2018 00:00:00 3.6075 C 30.9583 %
2489 28-11-2018 00:00:00 2.97583 C 45.6917 %
2490 29-11-2018 00:00:00 4.98333 C 47.6917 %
2491 30-11-2018 00:00:00 6.67167 C 48.6583 %
2492 01-12-2018 00:00:00 6.67417 C 47.9750 %
2493 02-12-2018 00:00:00 10.59167 C 45.4750 %
2494 03-12-2018 00:00:00 11.02333 C 51.1333 %
2495 04-12-2018 00:00:00 5.62 C 45.3833 %
2496 05-12-2018 00:00:00 3.15546 C 56.8487 %
2497 06-12-2018 00:00:00 9.21333 C 47.7750 %
2498 07-12-2018 00:00:00 10.71583 C 33.9000 %
2499 08-12-2018 00:00:00 7.28083 C 37.2333 %
2500 09-12-2018 00:00:00 7.285 C 37.6917 %
Sensor: Nr:Datum:Temp:Feuchte:
Aussen-T/F 2501 10-12-2018 00:00:00 3.9825 C 44.3833 %
2502 11-12-2018 00:00:00 2.87417 C 51.3500 %
2503 12-12-2018 00:00:00 2.0375 C 58.1583 %
2504 13-12-2018 00:00:00 0.49 C 37.0417 %
2505 14-12-2018 00:00:00 0.48 C 20.9833 %
2506 15-12-2018 00:00:00 -0.09083 C 24.2083 %
2507 16-12-2018 00:00:00 0.045 C 43.8833 %
2508 17-12-2018 00:00:00 3.4775 C 51.8333 %
2509 18-12-2018 00:00:00 4.1675 C 41.5083 %
2510 19-12-2018 00:00:00 5.75 C 37.3000 %
2511 20-12-2018 00:00:00 6.87083 C 39.0583 %
2512 21-12-2018 00:00:00 10.1725 C 34.4750 %
2513 22-12-2018 00:00:00 9.26167 C 35.0083 %
2514 23-12-2018 00:00:00 7.89333 C 46.8500 %
2515 24-12-2018 00:00:00 4.10333 C 44.5000 %
2516 25-12-2018 00:00:00 1.0625 C 49.8500 %
2517 26-12-2018 00:00:00 -1.61083 C 52.7667 %
2518 27-12-2018 00:00:00 -0.68583 C 57.2917 %
2519 28-12-2018 00:00:00 -0.61667 C 51.7667 %
2520 29-12-2018 00:00:00 2.0175 C 45.4833 %
2521 30-12-2018 00:00:00 6.73917 C 37.6417 %
2522 31-12-2018 00:00:00 6.84917 C 56.5417 %
2523 01-01-2019 00:00:00 6.345 C 45.5833 %
2524 02-01-2019 00:00:00 2.72417 C 34.2083 %
2525 03-01-2019 00:00:00 1.28167 C 47.5833 %
Sensor: Nr:Datum:Temp:Feuchte:
Aussen-T/F 2526 04-01-2019 00:00:00 2.41333 C 45.7833 %
2527 05-01-2019 00:00:00 5.14417 C 47.4583 %
2528 06-01-2019 00:00:00 5.0725 C 44.3083 %
2529 07-01-2019 00:00:00 4.8875 C 41.5500 %
2530 08-01-2019 00:00:00 5.74917 C 36.7000 %
2531 09-01-2019 00:00:00 3.05083 C 34.6917 %
2532 10-01-2019 00:00:00 1.36 C 32.5417 %
2533 11-01-2019 00:00:00 2.05417 C 54.0417 %
2534 12-01-2019 00:00:00 5.01833 C 46.3583 %
2535 13-01-2019 00:00:00 6.9225 C 47.7417 %
2536 14-01-2019 00:00:00 4.06833 C 43.5667 %
2537 15-01-2019 00:00:00 4.06833 C 40.0333 %
2538 16-01-2019 00:00:00 4.52583 C 35.3417 %
2539 17-01-2019 00:00:00 4.27167 C 37.9583 %
2540 18-01-2019 00:00:00 -0.2025 C 49.3250 %
2541 19-01-2019 00:00:00 -3.87667 C 48.1333 %
2542 20-01-2019 00:00:00 -6.33 C 47.2250 %
2543 21-01-2019 00:00:00 -7.505 C 46.8917 %
2544 22-01-2019 00:00:00 -5.97917 C 44.1750 %
2545 23-01-2019 00:00:00 -2.435 C 39.5667 %
2546 24-01-2019 00:00:00 -2.72417 C 26.7667 %
2547 25-01-2019 00:00:00 -0.50917 C 39.3333 %
2548 26-01-2019 00:00:00 3.62167 C 45.9417 %
2549 27-01-2019 00:00:00 4.94833 C 43.1917 %
2550 28-01-2019 00:00:00 2.2025 C 45.2417 %
Sensor: Nr:Datum:Temp:Feuchte:
Aussen-T/F 2551 29-01-2019 00:00:00 0.865 C 44.1667 %
2552 30-01-2019 00:00:00 -0.46833 C 49.8250 %
2553 31-01-2019 00:00:00 -1.03333 C 52.2750 %
2554 01-02-2019 00:00:00 0.72167 C 56.8333 %
2555 02-02-2019 00:00:00 1.59587 C 62.5950 %
2556 03-02-2019 00:00:00 1.86583 C 40.0750 %
2557 04-02-2019 00:00:00 0.99417 C 40.5833 %
2558 05-02-2019 00:00:00 3.66167 C 30.5917 %
2559 06-02-2019 00:00:00 0.09417 C 46.8417 %
2560 07-02-2019 00:00:00 4.26083 C 38.9917 %
2561 08-02-2019 00:00:00 6.77417 C 31.6250 %
2562 09-02-2019 00:00:00 8.02083 C 28.8667 %
2563 10-02-2019 00:00:00 7.15083 C 39.6167 %
2564 11-02-2019 00:00:00 4.03667 C 38.3917 %
2565 12-02-2019 00:00:00 3.01917 C 38.2083 %
2566 13-02-2019 00:00:00 0.96333 C 46.8167 %
2567 14-02-2019 00:00:00 -0.46667 C 51.0250 %
2568 15-02-2019 00:00:00 0.9925 C 45.0667 %
2569 16-02-2019 00:00:00 1.9325 C 47.3750 %
2570 17-02-2019 00:00:00 2.17333 C 49.1333 %
2571 18-02-2019 00:00:00 2.31167 C 43.0500 %
2572 19-02-2019 00:00:00 4.89 C 40.9750 %
2573 20-02-2019 00:00:00 3.7725 C 45.5000 %
2574 21-02-2019 00:00:00 5.655 C 46.3667 %
2575 22-02-2019 00:00:00 9.27167 C 39.5167 %
Sensor: Nr:Datum:Temp:Feuchte:
Aussen-T/F 2576 23-02-2019 00:00:00 4.58167 C 33.2583 %
2577 24-02-2019 00:00:00 2.29833 C 32.9417 %
2578 25-02-2019 00:00:00 3.65667 C 31.8250 %
2579 26-02-2019 00:00:00 4.75583 C 37.6333 %
2580 27-02-2019 00:00:00 5.17417 C 38.9250 %
2581 28-02-2019 00:00:00 8.185 C 29.8833 %
2582 01-03-2019 00:00:00 7.515 C 43.8250 %
2583 02-03-2019 00:00:00 8.29333 C 34.1417 %
2584 03-03-2019 00:00:00 10.72417 C 28.1417 %
2585 04-03-2019 00:00:00 9.1575 C 27.8167 %
2586 05-03-2019 00:00:00 6.32167 C 30.8917 %
2587 06-03-2019 00:00:00 9.5125 C 32.3667 %
2588 07-03-2019 00:00:00 9.61917 C 28.3833 %
2589 08-03-2019 00:00:00 7.73167 C 28.8250 %
2590 09-03-2019 00:00:00 10.01667 C 26.3333 %
2591 10-03-2019 00:00:00 9.11083 C 30.1417 %
2592 11-03-2019 00:00:00 4.19667 C 30.2417 %
2593 12-03-2019 00:00:00 6.18083 C 27.8583 %
2594 13-03-2019 00:00:00 5.6775 C 31.5250 %
2595 14-03-2019 00:00:00 6.3325 C 38.0083 %
2596 15-03-2019 00:00:00 9.61417 C 37.6917 %
2597 16-03-2019 00:00:00 9.76833 C 35.9667 %
2598 17-03-2019 00:00:00 8.19083 C 26.8333 %
2599 18-03-2019 00:00:00 4.3225 C 36.6583 %
2600 19-03-2019 00:00:00 3.115 C 40.3583 %
Sensor: Nr:Datum:Temp:Feuchte:
Aussen-T/F 2601 20-03-2019 00:00:00 4.81417 C 37.4250 %
2602 21-03-2019 00:00:00 6.76333 C 35.7167 %
2603 22-03-2019 00:00:00 8.43083 C 34.0750 %
2604 23-03-2019 00:00:00 5.40167 C 40.0083 %
2605 24-03-2019 00:00:00 5.90583 C 38.2167 %
2606 25-03-2019 00:00:00 4.41583 C 37.7583 %
2607 26-03-2019 00:00:00 6.33417 C 32.9583 %
2608 27-03-2019 00:00:00 6.36583 C 35.3083 %
2609 28-03-2019 00:00:00 6.955 C 36.2417 %
2610 29-03-2019 00:00:00 8.44167 C 38.7750 %
2611 30-03-2019 00:00:00 10.07583 C 34.1833 %
2612 31-03-2019 00:00:00 9.90957 C 33.8174 %
2613 01-04-2019 00:00:00 8.9475 C 32.5750 %
2614 02-04-2019 00:00:00 10.5425 C 29.3083 %
2615 03-04-2019 00:00:00 7.865 C 38.6750 %
2616 04-04-2019 00:00:00 5.56833 C 48.7000 %
2617 05-04-2019 00:00:00 5.95417 C 48.0167 %
2618 06-04-2019 00:00:00 9.88333 C 42.1917 %
2619 07-04-2019 00:00:00 11.50833 C 36.8000 %
2620 08-04-2019 00:00:00 12.34417 C 33.9167 %
2621 09-04-2019 00:00:00 12.00333 C 40.7333 %
2622 10-04-2019 00:00:00 10.585 C 23.8417 %
2623 11-04-2019 00:00:00 6.52917 C 25.0583 %
2624 12-04-2019 00:00:00 4.68167 C 20.0000 %
2625 13-04-2019 00:00:00 3.585 C 24.4167 %
Sensor: Nr:Datum:Temp:Feuchte:
Aussen-T/F 2626 14-04-2019 00:00:00 5.23833 C 34.7917 %
2627 15-04-2019 00:00:00 10.29167 C 25.8000 %
2628 16-04-2019 00:00:00 10.91333 C 23.2000 %
2629 17-04-2019 00:00:00 12.4 C 35.6083 %
2630 18-04-2019 00:00:00 13.7675 C 28.5500 %
2631 19-04-2019 00:00:00 14.94917 C 24.5083 %
2632 20-04-2019 00:00:00 14.60167 C 27.5833 %
2633 21-04-2019 00:00:00 15.24333 C 24.6417 %
2634 22-04-2019 00:00:00 14.7825 C 27.5667 %
2635 23-04-2019 00:00:00 15.12667 C 20.1083 %
2636 24-04-2019 00:00:00 15.10083 C 30.7083 %
2637 25-04-2019 00:00:00 13.2425 C 38.0667 %
2638 26-04-2019 00:00:00 11.8 C 32.0000 %
2639 27-04-2019 00:00:00 9.01583 C 40.3667 %
2640 28-04-2019 00:00:00 8.43333 C 30.9750 %
2641 29-04-2019 00:00:00 8.62417 C 38.4083 %
2642 30-04-2019 00:00:00 13.94583 C 26.0833 %
2643 01-05-2019 00:00:00 13.03833 C 29.5000 %
2644 02-05-2019 00:00:00 12.08333 C 31.3667 %
2645 03-05-2019 00:00:00 11.20833 C 25.1500 %
2646 04-05-2019 00:00:00 6.17583 C 33.4500 %
2647 05-05-2019 00:00:00 6.66333 C 32.0417 %
2648 06-05-2019 00:00:00 7.6075 C 30.6583 %
2649 07-05-2019 00:00:00 9.645 C 28.6167 %
2650 08-05-2019 00:00:00 9.105 C 38.9750 %
Sensor: Nr:Datum:Temp:Feuchte:
Aussen-T/F 2651 09-05-2019 00:00:00 11.085 C 36.9583 %
2652 10-05-2019 00:00:00 12.44538 C 33.3866 %
2653 11-05-2019 00:00:00 9.52833 C 47.9417 %
2654 12-05-2019 00:00:00 9.4 C 31.3083 %
2655 13-05-2019 00:00:00 9.985 C 30.9083 %
2656 14-05-2019 00:00:00 9.66333 C 26.4333 %
2657 15-05-2019 00:00:00 10.57083 C 24.3500 %
2658 16-05-2019 00:00:00 10.61167 C 23.0917 %
2659 17-05-2019 00:00:00 11.4775 C 39.7250 %
2660 18-05-2019 00:00:00 14.67167 C 39.3500 %
2661 19-05-2019 00:00:00 15.91083 C 38.3750 %
2662 20-05-2019 00:00:00 13.655 C 37.8667 %
2663 21-05-2019 00:00:00 11.88167 C 45.6167 %
2664 22-05-2019 00:00:00 13.2875 C 33.7833 %
2665 23-05-2019 00:00:00 15.22667 C 33.1417 %
2666 24-05-2019 00:00:00 17.24 C 28.7500 %
2667 25-05-2019 00:00:00 15.89917 C 22.8167 %
2668 26-05-2019 00:00:00 16.26667 C 29.2667 %
2669 27-05-2019 00:00:00 14.66667 C 40.5417 %
2670 28-05-2019 00:00:00 14.29917 C 38.6250 %
2671 29-05-2019 00:00:00 15.28667 C 25.9000 %
2672 30-05-2019 00:00:00 15.82833 C 28.8250 %
2673 31-05-2019 00:00:00 19.45583 C 30.4167 %
2674 01-06-2019 00:00:00 20.21917 C 30.3583 %
2675 02-06-2019 00:00:00 22.16417 C 30.0500 %
Sensor: Nr:Datum:Temp:Feuchte:
Aussen-T/F 2676 03-06-2019 00:00:00 21.1475 C 27.1667 %
2677 04-06-2019 00:00:00 21.80333 C 28.3333 %
2678 05-06-2019 00:00:00 23.57917 C 22.7833 %
2679 06-06-2019 00:00:00 16.14167 C 28.3667 %
2680 07-06-2019 00:00:00 16.10083 C 29.5250 %
2681 08-06-2019 00:00:00 16.40917 C 20.2667 %
2682 09-06-2019 00:00:00 16.72333 C 27.7667 %
2683 10-06-2019 00:00:00 19.705 C 23.4750 %
2684 11-06-2019 00:00:00 17.38 C 32.4667 %
2685 12-06-2019 00:00:00 16.405 C 33.2917 %
2686 13-06-2019 00:00:00 16.27917 C 34.4333 %
2687 14-06-2019 00:00:00 18.17 C 35.6583 %
2688 15-06-2019 00:00:00 19.72583 C 33.0250 %
2689 16-06-2019 00:00:00 19.94417 C 24.9167 %
2690 17-06-2019 00:00:00 19.5125 C 29.1250 %
2691 18-06-2019 00:00:00 22.02333 C 27.1333 %
2692 19-06-2019 00:00:00 22.62583 C 27.6917 %
2693 20-06-2019 00:00:00 20 C 28.0167 %
2694 21-06-2019 00:00:00 19.3425 C 27.3333 %
2695 22-06-2019 00:00:00 19.82667 C 26.6167 %
2696 23-06-2019 00:00:00 22.3125 C 27.3750 %
2697 24-06-2019 00:00:00 24.96167 C 26.2167 %
2698 25-06-2019 00:00:00 26.83333 C 24.5583 %
2699 26-06-2019 00:00:00 27.635 C 23.0833 %
2700 27-06-2019 00:00:00 25.18917 C 20.6083 %
Sensor: Nr:Datum:Temp:Feuchte:
Aussen-T/F 2701 28-06-2019 00:00:00 22.44833 C 23.4333 %
2702 29-06-2019 00:00:00 24.38417 C 22.1750 %
2703 30-06-2019 00:00:00 26.0575 C 22.2333 %
2704 01-07-2019 00:00:00 23.3825 C 20.0000 %
2705 02-07-2019 00:00:00 19.63333 C 21.8667 %
2706 03-07-2019 00:00:00 18.14583 C 22.9833 %
2707 04-07-2019 00:00:00 18.95917 C 21.7583 %
2708 05-07-2019 00:00:00 21.28 C 20.0000 %
2709 06-07-2019 00:00:00 21.86 C 21.2917 %
2710 07-07-2019 00:00:00 17.9975 C 24.5833 %
2711 08-07-2019 00:00:00 14.77583 C 24.3917 %
2712 09-07-2019 00:00:00 15.65583 C 24.6667 %
2713 10-07-2019 00:00:00 17.64083 C 24.2083 %
2714 11-07-2019 00:00:00 17.65083 C 31.2583 %
2715 12-07-2019 00:00:00 17.16583 C 43.6333 %
2716 13-07-2019 00:00:00 17.9575 C 34.1250 %
2717 14-07-2019 00:00:00 17.12917 C 26.6667 %
2718 15-07-2019 00:00:00 16.56667 C 21.0917 %
2719 16-07-2019 00:00:00 16.26 C 28.0333 %
2720 17-07-2019 00:00:00 17.56833 C 29.2083 %
2721 18-07-2019 00:00:00 19.38333 C 28.1917 %
2722 19-07-2019 00:00:00 20.12667 C 31.9750 %
2723 20-07-2019 00:00:00 21.81667 C 30.3083 %
2724 21-07-2019 00:00:00 22.37333 C 25.8833 %
2725 22-07-2019 00:00:00 22.7225 C 26.2833 %
Sensor: Nr:Datum:Temp:Feuchte:
Aussen-T/F 2726 23-07-2019 00:00:00 25.34083 C 25.5333 %
2727 24-07-2019 00:00:00 27.1975 C 24.2750 %
2728 25-07-2019 00:00:00 28.90167 C 21.7333 %
2729 26-07-2019 00:00:00 27.54417 C 21.2500 %
2730 27-07-2019 00:00:00 23.4375 C 26.6833 %
2731 28-07-2019 00:00:00 19.93083 C 38.1333 %
2732 29-07-2019 00:00:00 21.45583 C 29.3333 %
2733 30-07-2019 00:00:00 22.35833 C 26.7167 %
2734 31-07-2019 00:00:00 21.48417 C 20.5333 %
2735 01-08-2019 00:00:00 19.83417 C 22.9750 %
2736 02-08-2019 00:00:00 20.8775 C 22.8500 %
2737 03-08-2019 00:00:00 20.77167 C 24.6333 %
2738 04-08-2019 00:00:00 21.00667 C 28.3000 %
2739 05-08-2019 00:00:00 22.56833 C 24.9167 %
2740 06-08-2019 00:00:00 20.0075 C 30.3333 %
2741 07-08-2019 00:00:00 19.10167 C 41.3833 %
2742 08-08-2019 00:00:00 20.55667 C 30.6417 %
2743 09-08-2019 00:00:00 19.73833 C 39.4583 %
2744 10-08-2019 00:00:00 20.72917 C 37.6833 %
2745 11-08-2019 00:00:00 17.03333 C 35.9000 %
2746 12-08-2019 00:00:00 16.51583 C 38.9833 %
2747 13-08-2019 00:00:00 16.10833 C 35.2833 %
2748 14-08-2019 00:00:00 16.6875 C 34.0417 %
2749 15-08-2019 00:00:00 17.20583 C 40.0250 %
2750 16-08-2019 00:00:00 17.84 C 34.2250 %
Sensor: Nr:Datum:Temp:Feuchte:
Aussen-T/F 2751 17-08-2019 00:00:00 17.89333 C 38.0750 %
2752 18-08-2019 00:00:00 19.71833 C 44.5000 %
2753 19-08-2019 00:00:00 18.45167 C 33.8417 %
2754 20-08-2019 00:00:00 15.91167 C 33.3250 %
2755 21-08-2019 00:00:00 16.52917 C 33.4750 %
2756 22-08-2019 00:00:00 17.12333 C 32.3667 %
2757 23-08-2019 00:00:00 18.31667 C 31.5083 %
2758 24-08-2019 00:00:00 19.36333 C 30.9833 %
2759 25-08-2019 00:00:00 21.54583 C 29.8917 %
2760 26-08-2019 00:00:00 22.17 C 33.4833 %
2761 27-08-2019 00:00:00 22.70333 C 35.1667 %
2762 28-08-2019 00:00:00 23.4425 C 30.4583 %
2763 29-08-2019 00:00:00 22.20333 C 28.3583 %
2764 30-08-2019 00:00:00 21.07 C 29.2583 %
2765 31-08-2019 00:00:00 21.975 C 30.7583 %
2766 01-09-2019 00:00:00 18.8525 C 26.8333 %
2767 02-09-2019 00:00:00 15.49333 C 28.2000 %
2768 03-09-2019 00:00:00 15.72917 C 28.0833 %
2769 04-09-2019 00:00:00 16.9525 C 33.9667 %
2770 05-09-2019 00:00:00 15.59 C 26.2917 %
2771 06-09-2019 00:00:00 13.58917 C 31.1917 %
2772 07-09-2019 00:00:00 12.6975 C 39.5000 %
2773 08-09-2019 00:00:00 12.7439 C 48.5935 %
2774 09-09-2019 00:00:00 15.23733 C 38.6667 %
2775 10-09-2019 00:00:00 12.20486 C 22.8264 %
Sensor: Nr:Datum:Temp:Feuchte:
Aussen-T/F 2776 11-09-2019 00:00:00 13.35556 C 20.8472 %
2777 12-09-2019 00:00:00 19.325 C 20.0000 %
2778 13-09-2019 00:00:00 17.86806 C 20.1111 %
2779 14-09-2019 00:00:00 15.93333 C 22.4375 %
2780 15-09-2019 00:00:00 15.65694 C 21.2778 %
2781 16-09-2019 00:00:00 16.21389 C 20.0000 %
2782 17-09-2019 00:00:00 15.87708 C 20.0000 %
2783 18-09-2019 00:00:00 11.47361 C 20.7917 %
2784 19-09-2019 00:00:00 10.53333 C 21.8194 %
2785 20-09-2019 00:00:00 10.80486 C 20.8472 %
2786 21-09-2019 00:00:00 12.45278 C 20.6597 %
2787 22-09-2019 00:00:00 14.78542 C 20.7500 %
2788 23-09-2019 00:00:00 16.6875 C 22.1528 %
2789 24-09-2019 00:00:00 13.94306 C 26.6319 %
2790 25-09-2019 00:00:00 15.31806 C 25.0417 %
2791 26-09-2019 00:00:00 16.10903 C 26.0000 %
2792 27-09-2019 00:00:00 16.23333 C 23.7708 %
2793 28-09-2019 00:00:00 15.40208 C 22.5833 %
2794 29-09-2019 00:00:00 16.05972 C 21.6597 %
2795 30-09-2019 00:00:00 15.48194 C 21.1319 %
2796 01-10-2019 00:00:00 15.84375 C 23.4931 %
2797 02-10-2019 00:00:00 12.57569 C 23.6111 %
2798 03-10-2019 00:00:00 9.35625 C 27.6944 %
2799 04-10-2019 00:00:00 10.03681 C 31.8403 %
2800 05-10-2019 00:00:00 10.32986 C 26.5903 %
Sensor: Nr:Datum:Temp:Feuchte:
Aussen-T/F 2801 06-10-2019 00:00:00 7.85764 C 34.1250 %
2802 07-10-2019 00:00:00 9.80764 C 31.8819 %
2803 08-10-2019 00:00:00 12.35833 C 31.0694 %
2804 09-10-2019 00:00:00 11.56667 C 27.7431 %
2805 10-10-2019 00:00:00 11.49097 C 26.2153 %
2806 11-10-2019 00:00:00 12.41458 C 28.8194 %
2807 12-10-2019 00:00:00 13.21111 C 29.6875 %
2808 13-10-2019 00:00:00 16.35417 C 28.4722 %
2809 14-10-2019 00:00:00 15.8125 C 27.6528 %
2810 15-10-2019 00:00:00 13.94028 C 29.8611 %
2811 16-10-2019 00:00:00 12.42153 C 29.2917 %
2812 17-10-2019 00:00:00 14.32708 C 27.4167 %
2813 18-10-2019 00:00:00 12.3125 C 29.7292 %
2814 19-10-2019 00:00:00 12.78194 C 28.2083 %
2815 20-10-2019 00:00:00 13.0875 C 34.7778 %
2816 21-10-2019 00:00:00 13.30486 C 29.2014 %
2817 22-10-2019 00:00:00 11.45 C 27.8819 %
2818 23-10-2019 00:00:00 10.68403 C 31.1181 %
2819 24-10-2019 00:00:00 13.85208 C 27.9236 %
2820 25-10-2019 00:00:00 13.1625 C 24.9444 %
2821 26-10-2019 00:00:00 12.72639 C 27.5417 %
2822 27-10-2019 00:00:00 9.68467 C 30.8733 %
2823 28-10-2019 00:00:00 5.91597 C 35.2014 %
2824 29-10-2019 00:00:00 6.21181 C 29.3264 %
2825 30-10-2019 00:00:00 2.93333 C 34.5347 %
Sensor: Nr:Datum:Temp:Feuchte:
Aussen-T/F 2826 31-10-2019 00:00:00 1.41875 C 34.8333 %
2827 01-11-2019 00:00:00 5.44792 C 36.7292 %
2828 02-11-2019 00:00:00 12.8125 C 27.6458 %
2829 03-11-2019 00:00:00 11.45069 C 29.7639 %
2830 04-11-2019 00:00:00 9.88542 C 30.2153 %
2831 05-11-2019 00:00:00 9.25069 C 27.4306 %
2832 06-11-2019 00:00:00 8.33542 C 34.7014 %
2833 07-11-2019 00:00:00 7.30278 C 33.8333 %
2834 08-11-2019 00:00:00 4.29028 C 37.7153 %
2835 09-11-2019 00:00:00 4.26806 C 33.1111 %
2836 10-11-2019 00:00:00 2.51319 C 34.9861 %
2837 11-11-2019 00:00:00 4.2 C 27.4792 %
2838 12-11-2019 00:00:00 5.41667 C 25.4792 %
2839 13-11-2019 00:00:00 4.93472 C 22.9861 %
2840 14-11-2019 00:00:00 4.86042 C 26.9861 %
2841 15-11-2019 00:00:00 4.08472 C 26.3333 %
2842 16-11-2019 00:00:00 1.19444 C 38.8125 %
2843 17-11-2019 00:00:00 2.39861 C 40.2708 %
2844 18-11-2019 00:00:00 3.51667 C 36.2847 %
2845 19-11-2019 00:00:00 3.06736 C 36.5833 %
2846 20-11-2019 00:00:00 0.75972 C 37.8403 %
2847 21-11-2019 00:00:00 1.18951 C 39.3846 %
2848 22-11-2019 00:00:00 3.65972 C 35.6806 %
2849 23-11-2019 00:00:00 4.64653 C 33.3889 %
2850 24-11-2019 00:00:00 1.99861 C 41.4722 %
Sensor: Nr:Datum:Temp:Feuchte:
Aussen-T/F 2851 25-11-2019 00:00:00 4.16319 C 39.3681 %
2852 26-11-2019 00:00:00 7.75903 C 34.8472 %
2853 27-11-2019 00:00:00 9.72083 C 30.6875 %
2854 28-11-2019 00:00:00 10.55833 C 22.1319 %
2855 29-11-2019 00:00:00 5.75486 C 30.7639 %
2856 30-11-2019 00:00:00 0.48194 C 42.0972 %
2857 01-12-2019 00:00:00 1.14236 C 33.0139 %
2858 02-12-2019 00:00:00 1.20556 C 36.2986 %
2859 03-12-2019 00:00:00 3.97431 C 39.2292 %
2860 04-12-2019 00:00:00 0.41389 C 41.6111 %
2861 05-12-2019 00:00:00 -2.03194 C 42.0972 %
2862 06-12-2019 00:00:00 2.6125 C 34.4722 %
2863 07-12-2019 00:00:00 8.20694 C 27.7292 %
2864 08-12-2019 00:00:00 9.69931 C 24.2778 %
2865 09-12-2019 00:00:00 7.09444 C 23.9722 %
2866 10-12-2019 00:00:00 2.37361 C 34.0000 %
2867 11-12-2019 00:00:00 3.12569 C 39.3056 %
2868 12-12-2019 00:00:00 2.64931 C 37.2500 %
2869 13-12-2019 00:00:00 3.25278 C 34.0069 %
2870 14-12-2019 00:00:00 6.22222 C 28.0625 %
2871 15-12-2019 00:00:00 7.24792 C 30.8958 %
2872 16-12-2019 00:00:00 7.47361 C 39.2986 %
2873 17-12-2019 00:00:00 9.69514 C 31.9653 %
2874 18-12-2019 00:00:00 6.95069 C 37.4792 %
2875 19-12-2019 00:00:00 4.60972 C 40.5417 %
Sensor: Nr:Datum:Temp:Feuchte:
Aussen-T/F 2876 20-12-2019 00:00:00 6.87778 C 35.7847 %
2877 21-12-2019 00:00:00 6.42778 C 32.4306 %
2878 22-12-2019 00:00:00 7.57917 C 31.0556 %
2879 23-12-2019 00:00:00 7.34861 C 28.6111 %
2880 24-12-2019 00:00:00 7.20278 C 29.9097 %
2881 25-12-2019 00:00:00 6.91944 C 32.8333 %
2882 26-12-2019 00:00:00 4.25278 C 40.6250 %
2883 27-12-2019 00:00:00 4.41181 C 36.8819 %
2884 28-12-2019 00:00:00 -1.22431 C 42.5000 %
2885 29-12-2019 00:00:00 -2.07708 C 39.8819 %
2886 30-12-2019 00:00:00 -1.99931 C 39.1319 %
2887 31-12-2019 00:00:00 -0.41736 C 39.5556 %
2888 01-01-2020 00:00:00 -0.10764 C 41.3403 %
2889 02-01-2020 00:00:00 0.98958 C 39.7014 %
2890 03-01-2020 00:00:00 7.00972 C 33.4653 %
2891 04-01-2020 00:00:00 4.78264 C 32.5903 %
2892 05-01-2020 00:00:00 5.21806 C 35.8750 %
2893 06-01-2020 00:00:00 2.11667 C 38.1667 %
2894 07-01-2020 00:00:00 4.43611 C 34.6944 %
2895 08-01-2020 00:00:00 7.71389 C 34.4167 %
2896 09-01-2020 00:00:00 10.33542 C 35.2292 %
2897 10-01-2020 00:00:00 8.27917 C 30.8958 %
2898 11-01-2020 00:00:00 3.61806 C 33.7639 %
2899 12-01-2020 00:00:00 4.57083 C 30.3889 %
2900 13-01-2020 00:00:00 5.88472 C 35.0903 %
Sensor: Nr:Datum:Temp:Feuchte:
Aussen-T/F 2901 14-01-2020 00:00:00 9.28264 C 24.1181 %
2902 15-01-2020 00:00:00 10.27083 C 23.7500 %
2903 16-01-2020 00:00:00 7.07569 C 40.1944 %
2904 17-01-2020 00:00:00 5.27986 C 39.1944 %
2905 18-01-2020 00:00:00 3.79028 C 32.6042 %
2906 19-01-2020 00:00:00 3.01389 C 40.8194 %
2907 20-01-2020 00:00:00 1.64861 C 39.3889 %
2908 21-01-2020 00:00:00 -2.675 C 44.7986 %
2909 22-01-2020 00:00:00 -1.95347 C 44.7153 %
2910 23-01-2020 00:00:00 0.53819 C 43.6458 %
2911 24-01-2020 00:00:00 0.81319 C 35.7222 %
2912 25-01-2020 00:00:00 1.99236 C 39.2014 %
2913 26-01-2020 00:00:00 2.13056 C 41.5625 %
2914 27-01-2020 00:00:00 5.48542 C 39.8264 %
2915 28-01-2020 00:00:00 5.07708 C 30.3750 %
2916 29-01-2020 00:00:00 4.20764 C 29.8611 %
2917 30-01-2020 00:00:00 7.57569 C 29.5694 %
2918 31-01-2020 00:00:00 12.86181 C 27.9167 %
2919 01-02-2020 00:00:00 11.16597 C 32.0972 %
2920 02-02-2020 00:00:00 9.925 C 31.1319 %
2921 03-02-2020 00:00:00 10.19236 C 29.5139 %
2922 04-02-2020 00:00:00 4.29514 C 36.4097 %
2923 05-02-2020 00:00:00 3.05069 C 37.1458 %
2924 06-02-2020 00:00:00 0.04514 C 42.7500 %
2925 07-02-2020 00:00:00 -0.30764 C 42.8264 %
Sensor: Nr:Datum:Temp:Feuchte:
Aussen-T/F 2926 08-02-2020 00:00:00 1.01389 C 43.0069 %
2927 09-02-2020 00:00:00 8.36458 C 32.5764 %
2928 10-02-2020 00:00:00 7.85 C 31.3611 %
2929 11-02-2020 00:00:00 5.29167 C 24.6597 %
2930 12-02-2020 00:00:00 4.32083 C 30.5972 %
2931 13-02-2020 00:00:00 3.32917 C 42.1250 %
2932 14-02-2020 00:00:00 5.46458 C 39.2639 %
2933 15-02-2020 00:00:00 5.89931 C 38.0278 %
2934 16-02-2020 00:00:00 14.44931 C 23.2431 %
2935 17-02-2020 00:00:00 8.25903 C 32.4167 %
2936 18-02-2020 00:00:00 6.89097 C 31.0347 %
2937 19-02-2020 00:00:00 5.73889 C 30.1875 %
2938 20-02-2020 00:00:00 7.7125 C 32.9722 %
2939 21-02-2020 00:00:00 4.71042 C 33.5972 %
2940 22-02-2020 00:00:00 7.67986 C 30.0347 %
2941 23-02-2020 00:00:00 10.01389 C 35.3403 %
2942 24-02-2020 00:00:00 7.74653 C 36.3194 %
2943 25-02-2020 00:00:00 8.81597 C 32.2778 %
2944 26-02-2020 00:00:00 4.37431 C 33.6806 %
2945 27-02-2020 00:00:00 2.22153 C 41.6806 %
2946 28-02-2020 00:00:00 3.52431 C 38.4514 %
2947 29-02-2020 00:00:00 8.60556 C 34.8889 %
2948 01-03-2020 00:00:00 7.15694 C 36.0000 %
2949 02-03-2020 00:00:00 5.99375 C 40.1667 %
2950 03-03-2020 00:00:00 4.26806 C 39.6458 %
Sensor: Nr:Datum:Temp:Feuchte:
Aussen-T/F 2951 04-03-2020 00:00:00 5.28958 C 37.5764 %
2952 05-03-2020 00:00:00 5.45764 C 43.0833 %
2953 06-03-2020 00:00:00 5.63958 C 40.4931 %
2954 07-03-2020 00:00:00 6.26458 C 33.7569 %
2955 08-03-2020 00:00:00 9.46458 C 32.2361 %
2956 09-03-2020 00:00:00 7.81875 C 35.4514 %
2957 10-03-2020 00:00:00 9.06181 C 39.4514 %
2958 11-03-2020 00:00:00 14.0375 C 35.2639 %
2959 12-03-2020 00:00:00 11.01597 C 30.3681 %
2960 13-03-2020 00:00:00 6.99236 C 33.4236 %
2961 14-03-2020 00:00:00 5.89028 C 38.1667 %
2962 15-03-2020 00:00:00 9.14653 C 32.2153 %
2963 16-03-2020 00:00:00 9.43264 C 35.6667 %
2964 17-03-2020 00:00:00 12.02708 C 33.7847 %
2965 18-03-2020 00:00:00 9.92639 C 36.2153 %
2966 19-03-2020 00:00:00 12.58194 C 32.0417 %
2967 20-03-2020 00:00:00 10.52657 C 36.2308 %
2968 21-03-2020 00:00:00 5.89653 C 34.6597 %
2969 22-03-2020 00:00:00 4.30139 C 28.5278 %
2970 23-03-2020 00:00:00 3.12292 C 27.0764 %
2971 24-03-2020 00:00:00 2.82431 C 27.8403 %
2972 25-03-2020 00:00:00 3.67014 C 25.0486 %
2973 26-03-2020 00:00:00 5.25486 C 23.4931 %
2974 27-03-2020 00:00:00 8.10139 C 29.8819 %
2975 28-03-2020 00:00:00 9.69236 C 30.9306 %
Sensor: Nr:Datum:Temp:Feuchte:
Aussen-T/F 2976 29-03-2020 00:00:00 5.0942 C 30.1377 %
2977 30-03-2020 00:00:00 2.89028 C 29.9167 %
2978 31-03-2020 00:00:00 5.79792 C 30.1528 %
2979 01-04-2020 00:00:00 4.16111 C 29.6944 %
2980 02-04-2020 00:00:00 5.26806 C 31.1944 %
2981 03-04-2020 00:00:00 7.93542 C 28.5069 %
2982 04-04-2020 00:00:00 6.89375 C 31.8958 %
2983 05-04-2020 00:00:00 9.74514 C 32.0625 %
2984 06-04-2020 00:00:00 12.17708 C 29.7431 %
2985 07-04-2020 00:00:00 14.2875 C 28.9028 %
2986 08-04-2020 00:00:00 15.02153 C 31.1528 %
2987 09-04-2020 00:00:00 15.89514 C 27.6458 %
2988 10-04-2020 00:00:00 14.80972 C 29.8333 %
2989 11-04-2020 00:00:00 14.775 C 25.4861 %
2990 12-04-2020 00:00:00 15.71319 C 27.3056 %
2991 13-04-2020 00:00:00 9.43542 C 29.6944 %
2992 14-04-2020 00:00:00 6.54583 C 28.1042 %
2993 15-04-2020 00:00:00 9.17222 C 30.8750 %
2994 16-04-2020 00:00:00 13.09792 C 29.6667 %
2995 17-04-2020 00:00:00 15.68056 C 30.2500 %
2996 18-04-2020 00:00:00 14.81597 C 32.5000 %
2997 19-04-2020 00:00:00 13.35694 C 32.8889 %
2998 20-04-2020 00:00:00 12.80069 C 22.9861 %
2999 21-04-2020 00:00:00 13.68472 C 21.3889 %
3000 22-04-2020 00:00:00 14.69375 C 23.2153 %
Sensor: Nr:Datum:Temp:Feuchte:
Aussen-T/F 3001 23-04-2020 00:00:00 14.90347 C 25.2917 %
3002 24-04-2020 00:00:00 14.72361 C 27.0278 %
Sensor: Nr:Datum:Temp:Feuchte:
G-T/H 1 05-02-2012 00:00:00 4.02105 C 48.1053 %
2 06-02-2012 00:00:00 3.88333 C 52.8403 %
3 07-02-2012 00:00:00 3.71597 C 53.4514 %
4 08-02-2012 00:00:00 3.84236 C 58.9167 %
5 09-02-2012 00:00:00 3.65903 C 62.8542 %
6 10-02-2012 00:00:00 3.79444 C 65.8056 %
7 11-02-2012 00:00:00 3.57569 C 61.8958 %
8 12-02-2012 00:00:00 3.66042 C 61.2292 %
9 13-02-2012 00:00:00 4.1965 C 69.3287 %
10 14-02-2012 00:00:00 4.60074 C 76.9926 %
11 15-02-2012 00:00:00 5.42424 C 80.0000 %
12 16-02-2012 00:00:00 5.55 C 80.4861 %
13 17-02-2012 00:00:00 6.23958 C 81.2361 %
14 18-02-2012 00:00:00 6.86458 C 81.6181 %
15 19-02-2012 00:00:00 7.11389 C 80.6806 %
16 20-02-2012 00:00:00 6.63056 C 78.9722 %
17 21-02-2012 00:00:00 5.94236 C 76.7708 %
18 22-02-2012 00:00:00 5.81181 C 77.7569 %
19 23-02-2012 00:00:00 6.38056 C 80.4653 %
20 24-02-2012 00:00:00 7.75486 C 81.9028 %
21 25-02-2012 00:00:00 8.69167 C 82.5903 %
22 26-02-2012 00:00:00 8.22778 C 81.2986 %
23 27-02-2012 00:00:00 7.80699 C 81.9930 %
24 28-02-2012 00:00:00 8.38194 C 82.2569 %
25 29-02-2012 00:00:00 9.12708 C 82.7361 %
Sensor: Nr:Datum:Temp:Feuchte:
G-T/H 26 01-03-2012 00:00:00 9.59722 C 83.1389 %
27 02-03-2012 00:00:00 9.75347 C 83.2986 %
28 03-03-2012 00:00:00 9.64028 C 83.0000 %
29 04-03-2012 00:00:00 9.48881 C 82.5804 %
30 05-03-2012 00:00:00 9.24861 C 81.1597 %
31 06-03-2012 00:00:00 8.31736 C 80.4236 %
32 07-03-2012 00:00:00 7.42431 C 79.7986 %
33 08-03-2012 00:00:00 7.56389 C 80.9722 %
34 09-03-2012 00:00:00 7.27292 C 80.9583 %
35 10-03-2012 00:00:00 8.09792 C 82.3472 %
36 11-03-2012 00:00:00 9.08403 C 82.8542 %
37 12-03-2012 00:00:00 9.32292 C 82.6319 %
38 13-03-2012 00:00:00 9.35625 C 81.9028 %
39 14-03-2012 00:00:00 9.31458 C 81.3958 %
40 15-03-2012 00:00:00 8.45694 C 80.8333 %
41 16-03-2012 00:00:00 8.66528 C 81.5764 %
42 17-03-2012 00:00:00 9.25556 C 81.8958 %
43 18-03-2012 00:00:00 9.71875 C 82.9931 %
44 19-03-2012 00:00:00 9.15903 C 81.2708 %
45 20-03-2012 00:00:00 8.65556 C 78.1181 %
46 21-03-2012 00:00:00 8.39792 C 78.5833 %
47 22-03-2012 00:00:00 8.7125 C 80.3750 %
48 23-03-2012 00:00:00 9.34112 C 81.0000 %
49 25-03-2012 00:00:00 13.97614 C 49.8864 %
50 26-03-2012 00:00:00 12.38125 C 56.6667 %
Sensor: Nr:Datum:Temp:Feuchte:
G-T/H 51 27-03-2012 00:00:00 11.14097 C 64.4722 %
52 28-03-2012 00:00:00 11.81181 C 63.2361 %
53 29-03-2012 00:00:00 11.30208 C 61.4028 %
54 30-03-2012 00:00:00 10.96806 C 67.6181 %
55 31-03-2012 00:00:00 10.36319 C 67.9931 %
56 01-04-2012 00:00:00 8.93333 C 56.0625 %
57 02-04-2012 00:00:00 8.80139 C 59.0764 %
58 03-04-2012 00:00:00 9.93681 C 62.7569 %
59 04-04-2012 00:00:00 10.86319 C 68.4097 %
60 05-04-2012 00:00:00 10.27361 C 67.9931 %
61 06-04-2012 00:00:00 9.92431 C 65.6806 %
62 07-04-2012 00:00:00 9.30278 C 64.4931 %
63 08-04-2012 00:00:00 8.50417 C 59.4375 %
64 09-04-2012 00:00:00 8.71597 C 67.0556 %
65 10-04-2012 00:00:00 9.79653 C 73.0833 %
66 11-04-2012 00:00:00 10.53846 C 72.2797 %
67 12-04-2012 00:00:00 10.025 C 68.9514 %
68 13-04-2012 00:00:00 9.46458 C 69.6597 %
69 14-04-2012 00:00:00 9.59236 C 65.6458 %
70 15-04-2012 00:00:00 10.07153 C 63.4653 %
71 16-04-2012 00:00:00 9.40972 C 55.3264 %
72 17-04-2012 00:00:00 8.67708 C 56.3125 %
73 18-04-2012 00:00:00 9.70208 C 63.6736 %
74 19-04-2012 00:00:00 9.89861 C 68.3403 %
75 20-04-2012 00:00:00 9.86944 C 70.1528 %
Sensor: Nr:Datum:Temp:Feuchte:
G-T/H 76 21-04-2012 00:00:00 10.29459 C 68.0360 %
77 22-04-2012 00:00:00 10.025 C 68.8264 %
78 23-04-2012 00:00:00 9.95486 C 69.4514 %
79 24-04-2012 00:00:00 10.25208 C 71.5417 %
80 25-04-2012 00:00:00 10.52292 C 71.6944 %
81 26-04-2012 00:00:00 11.23542 C 73.8611 %
82 27-04-2012 00:00:00 12.33056 C 74.3194 %
83 28-04-2012 00:00:00 14.63786 C 74.8786 %
84 29-04-2012 00:00:00 15.075 C 72.4792 %
85 30-04-2012 00:00:00 14.72708 C 71.2361 %
86 01-05-2012 00:00:00 15.1875 C 71.3542 %
87 02-05-2012 00:00:00 15.02361 C 74.9722 %
88 03-05-2012 00:00:00 14.19861 C 73.8681 %
89 04-05-2012 00:00:00 13.97569 C 72.4236 %
90 05-05-2012 00:00:00 13.95069 C 74.3889 %
91 06-05-2012 00:00:00 12.86389 C 75.0903 %
92 07-05-2012 00:00:00 12.55694 C 73.7986 %
93 08-05-2012 00:00:00 13.81389 C 67.3958 %
94 09-05-2012 00:00:00 14.86111 C 73.1042 %
95 10-05-2012 00:00:00 16.08403 C 76.9722 %
96 11-05-2012 00:00:00 17.05347 C 79.2431 %
97 12-05-2012 00:00:00 14.6875 C 61.9375 %
98 13-05-2012 00:00:00 13.02708 C 60.7639 %
99 14-05-2012 00:00:00 13.61111 C 54.7153 %
100 15-05-2012 00:00:00 13.44895 C 59.5804 %
Sensor: Nr:Datum:Temp:Feuchte:
G-T/H 101 16-05-2012 00:00:00 12.23611 C 58.7569 %
102 17-05-2012 00:00:00 11.61458 C 59.7222 %
103 18-05-2012 00:00:00 12.69028 C 64.9792 %
104 19-05-2012 00:00:00 14.07778 C 71.1250 %
105 20-05-2012 00:00:00 14.95069 C 74.0556 %
106 21-05-2012 00:00:00 15.65833 C 76.2361 %
107 22-05-2012 00:00:00 16.81875 C 78.2778 %
108 23-05-2012 00:00:00 17.42014 C 78.5139 %
109 24-05-2012 00:00:00 17.30139 C 78.1389 %
110 25-05-2012 00:00:00 17.83611 C 64.1944 %
111 26-05-2012 00:00:00 17.95417 C 57.7153 %
112 27-05-2012 00:00:00 20.4925 C 43.7000 %
113 28-05-2012 00:00:00 19.5 C 48.0000 %
114 29-05-2012 00:00:00 18.2 C 64.0000 %
115 30-05-2012 00:00:00 18.38194 C 64.2917 %
116 31-05-2012 00:00:00 17.78958 C 66.7639 %
117 01-06-2012 00:00:00 17.6 C 70.0000 %
118 02-06-2012 00:00:00 17.66909 C 54.1091 %
119 03-06-2012 00:00:00 16.29514 C 67.3681 %
120 04-06-2012 00:00:00 15.37778 C 71.3681 %
121 05-06-2012 00:00:00 14.88403 C 67.5625 %
122 06-06-2012 00:00:00 14.73194 C 67.4792 %
123 07-06-2012 00:00:00 15.26181 C 74.1528 %
124 08-06-2012 00:00:00 16.98321 C 67.6058 %
125 09-06-2012 00:00:00 16.53846 C 63.4336 %
Sensor: Nr:Datum:Temp:Feuchte:
G-T/H 126 10-06-2012 00:00:00 16.01667 C 64.2847 %
127 11-06-2012 00:00:00 16.16806 C 68.2847 %
128 12-06-2012 00:00:00 15.77569 C 71.2292 %
129 13-06-2012 00:00:00 15.35069 C 72.5139 %
130 14-06-2012 00:00:00 14.93333 C 72.0694 %
131 15-06-2012 00:00:00 16.22222 C 72.3542 %
132 16-06-2012 00:00:00 16.34583 C 75.9861 %
133 17-06-2012 00:00:00 15.92361 C 73.7361 %
134 18-06-2012 00:00:00 16.69236 C 74.0694 %
135 19-06-2012 00:00:00 17.13403 C 74.0486 %
136 20-06-2012 00:00:00 17.02797 C 76.5385 %
137 21-06-2012 00:00:00 16.95833 C 78.7778 %
138 22-06-2012 00:00:00 17.52708 C 69.8819 %
139 23-06-2012 00:00:00 18.16458 C 60.0139 %
140 24-06-2012 00:00:00 18.2163 C 62.5761 %
141 25-06-2012 00:00:00 17.0789 C 66.8349 %
142 26-06-2012 00:00:00 19.08621 C 56.0862 %
143 27-06-2012 00:00:00 18.12292 C 69.8750 %
144 28-06-2012 00:00:00 19.10486 C 75.7569 %
145 29-06-2012 00:00:00 20.13194 C 77.5556 %
146 30-06-2012 00:00:00 20.74583 C 69.6250 %
147 01-07-2012 00:00:00 19.95139 C 66.3264 %
148 02-07-2012 00:00:00 18.22083 C 66.8819 %
149 03-07-2012 00:00:00 18.09514 C 67.9931 %
150 04-07-2012 00:00:00 19.19306 C 67.7778 %
Sensor: Nr:Datum:Temp:Feuchte:
G-T/H 151 05-07-2012 00:00:00 19.57292 C 74.6250 %
152 06-07-2012 00:00:00 19.45556 C 72.8403 %
153 07-07-2012 00:00:00 19.98333 C 64.2917 %
154 08-07-2012 00:00:00 19.43264 C 66.6736 %
155 09-07-2012 00:00:00 18.74126 C 67.0420 %
156 10-07-2012 00:00:00 18.87083 C 69.0139 %
157 11-07-2012 00:00:00 18.54236 C 67.7778 %
158 12-07-2012 00:00:00 17.25069 C 66.6042 %
159 13-07-2012 00:00:00 17.22292 C 71.6458 %
160 14-07-2012 00:00:00 17.40972 C 71.8403 %
161 15-07-2012 00:00:00 16.90833 C 69.9931 %
162 16-07-2012 00:00:00 16.89722 C 67.1528 %
163 17-07-2012 00:00:00 17.54722 C 68.1111 %
164 18-07-2012 00:00:00 19.45764 C 65.2569 %
165 19-07-2012 00:00:00 19.33056 C 59.4028 %
166 20-07-2012 00:00:00 18.03472 C 65.1528 %
167 21-07-2012 00:00:00 17.46597 C 63.3403 %
168 22-07-2012 00:00:00 17.37153 C 55.5625 %
169 23-07-2012 00:00:00 18.88472 C 52.1736 %
170 24-07-2012 00:00:00 19.9 C 53.0000 %
171 25-07-2012 00:00:00 24.74333 C 68.2000 %
172 26-07-2012 00:00:00 23.52014 C 58.1806 %
173 27-07-2012 00:00:00 23.30903 C 64.1875 %
174 28-07-2012 00:00:00 21.50625 C 71.2917 %
175 29-07-2012 00:00:00 20.02222 C 60.8056 %
Sensor: Nr:Datum:Temp:Feuchte:
G-T/H 176 30-07-2012 00:00:00 18.85972 C 57.3472 %
177 31-07-2012 00:00:00 18.45417 C 62.5833 %
178 01-08-2012 00:00:00 20.37014 C 62.2014 %
179 02-08-2012 00:00:00 20.71111 C 65.5069 %
180 03-08-2012 00:00:00 20.55556 C 61.2778 %
181 04-08-2012 00:00:00 21.00278 C 56.7014 %
182 05-08-2012 00:00:00 20.17431 C 64.6319 %
183 06-08-2012 00:00:00 19.55105 C 65.6084 %
184 07-08-2012 00:00:00 18.38264 C 61.1736 %
185 08-08-2012 00:00:00 18.41181 C 63.5417 %
186 09-08-2012 00:00:00 19.12361 C 63.2639 %
187 10-08-2012 00:00:00 19.20417 C 56.9514 %
188 11-08-2012 00:00:00 18.25486 C 58.8681 %
189 12-08-2012 00:00:00 17.89653 C 61.3472 %
190 13-08-2012 00:00:00 18.19306 C 63.3750 %
191 14-08-2012 00:00:00 20.14583 C 65.8194 %
192 15-08-2012 00:00:00 20.34028 C 67.3542 %
193 16-08-2012 00:00:00 21.44028 C 58.1458 %
194 17-08-2012 00:00:00 20.0875 C 60.4861 %
195 18-08-2012 00:00:00 22.69931 C 57.2778 %
196 19-08-2012 00:00:00 23.20347 C 61.6458 %
197 20-08-2012 00:00:00 22.73542 C 68.0764 %
198 21-08-2012 00:00:00 21.62847 C 71.0417 %
199 22-08-2012 00:00:00 21.30625 C 64.6458 %
200 23-08-2012 00:00:00 19.67569 C 59.4583 %
Sensor: Nr:Datum:Temp:Feuchte:
G-T/H 201 24-08-2012 00:00:00 19.35594 C 65.5385 %
202 25-08-2012 00:00:00 19.60694 C 65.4931 %
203 26-08-2012 00:00:00 18.80625 C 64.2639 %
204 27-08-2012 00:00:00 17.77361 C 66.3194 %
205 28-08-2012 00:00:00 18.84236 C 63.6181 %
206 29-08-2012 00:00:00 18.92778 C 68.1250 %
207 30-08-2012 00:00:00 19.09236 C 66.7847 %
208 31-08-2012 00:00:00 17.72876 C 65.7611 %
209 01-09-2012 00:00:00 16.75347 C 64.6250 %
210 02-09-2012 00:00:00 16.34514 C 65.7917 %
211 03-09-2012 00:00:00 16.59097 C 68.6250 %
212 04-09-2012 00:00:00 16.81152 C 70.2263 %
213 05-09-2012 00:00:00 17.18542 C 71.0625 %
214 06-09-2012 00:00:00 16.81875 C 59.3125 %
215 07-09-2012 00:00:00 15.84653 C 61.9583 %
216 08-09-2012 00:00:00 16.12083 C 66.1667 %
217 09-09-2012 00:00:00 16.61538 C 66.5594 %
218 10-09-2012 00:00:00 17.43403 C 66.9167 %
219 11-09-2012 00:00:00 18.10486 C 69.9514 %
220 12-09-2012 00:00:00 16.74167 C 68.3681 %
221 13-09-2012 00:00:00 14.91389 C 68.1597 %
222 14-09-2012 00:00:00 14.81042 C 70.4653 %
223 15-09-2012 00:00:00 15.1875 C 72.0833 %
224 16-09-2012 00:00:00 14.98028 C 71.4930 %
225 17-09-2012 00:00:00 15.55 C 71.9028 %
Sensor: Nr:Datum:Temp:Feuchte:
G-T/H 226 18-09-2012 00:00:00 15.65417 C 71.7708 %
227 19-09-2012 00:00:00 14.98125 C 66.0208 %
228 20-09-2012 00:00:00 13.95486 C 60.7986 %
229 21-09-2012 00:00:00 13.43681 C 63.6181 %
230 22-09-2012 00:00:00 13.7875 C 68.1389 %
231 23-09-2012 00:00:00 13.40972 C 67.4792 %
232 24-09-2012 00:00:00 14.81597 C 72.4583 %
233 25-09-2012 00:00:00 14.74236 C 72.4028 %
234 26-09-2012 00:00:00 14.54653 C 73.5278 %
235 27-09-2012 00:00:00 14.46319 C 74.0694 %
236 28-09-2012 00:00:00 14.22378 C 73.4895 %
237 29-09-2012 00:00:00 14.31597 C 68.4514 %
238 30-09-2012 00:00:00 13.72847 C 66.5625 %
239 01-10-2012 00:00:00 12.90903 C 67.6111 %
240 02-10-2012 00:00:00 13.66319 C 69.8264 %
241 03-10-2012 00:00:00 14.69792 C 71.6042 %
242 04-10-2012 00:00:00 14.62708 C 69.9583 %
243 05-10-2012 00:00:00 13.97222 C 71.7986 %
244 06-10-2012 00:00:00 14.61944 C 74.9861 %
245 07-10-2012 00:00:00 13.90903 C 71.3819 %
246 08-10-2012 00:00:00 12.51736 C 68.6667 %
247 09-10-2012 00:00:00 12.82986 C 71.9861 %
248 10-10-2012 00:00:00 11.92847 C 68.7222 %
249 11-10-2012 00:00:00 11.11944 C 69.1111 %
250 12-10-2012 00:00:00 12.00139 C 73.7639 %
Sensor: Nr:Datum:Temp:Feuchte:
G-T/H 251 13-10-2012 00:00:00 11.83403 C 71.9514 %
252 14-10-2012 00:00:00 11.70139 C 72.8333 %
253 15-10-2012 00:00:00 11.40972 C 72.4931 %
254 16-10-2012 00:00:00 11.01042 C 72.5208 %
255 17-10-2012 00:00:00 11.41389 C 74.7708 %
256 18-10-2012 00:00:00 12.67972 C 77.6364 %
257 19-10-2012 00:00:00 13.33056 C 78.4583 %
258 20-10-2012 00:00:00 14.45486 C 80.4792 %
259 21-10-2012 00:00:00 14.17569 C 80.8056 %
260 22-10-2012 00:00:00 13.86042 C 79.2986 %
261 23-10-2012 00:00:00 13.4 C 78.0417 %
262 24-10-2012 00:00:00 12.77708 C 76.6597 %
263 25-10-2012 00:00:00 12.58333 C 76.9722 %
264 26-10-2012 00:00:00 12.15833 C 74.4236 %
265 27-10-2012 00:00:00 9.16944 C 60.4931 %
266 28-10-2012 00:00:00 7.93067 C 64.3267 %
267 29-10-2012 00:00:00 7.12778 C 65.8958 %
268 30-10-2012 00:00:00 8.30764 C 72.2569 %
269 31-10-2012 00:00:00 8.92639 C 73.5486 %
270 01-11-2012 00:00:00 9.24444 C 73.9583 %
271 02-11-2012 00:00:00 9.69028 C 72.3750 %
272 03-11-2012 00:00:00 9.82153 C 74.2639 %
273 04-11-2012 00:00:00 9.98472 C 75.2778 %
274 05-11-2012 00:00:00 10.18333 C 73.8125 %
275 06-11-2012 00:00:00 9.71597 C 73.0556 %
Sensor: Nr:Datum:Temp:Feuchte:
G-T/H 276 07-11-2012 00:00:00 9.83077 C 73.4615 %
277 08-11-2012 00:00:00 10.52569 C 72.9861 %
278 09-11-2012 00:00:00 10.58889 C 71.7222 %
279 10-11-2012 00:00:00 10.725 C 73.9722 %
280 11-11-2012 00:00:00 10.9375 C 75.4583 %
281 12-11-2012 00:00:00 10.29306 C 74.7431 %
282 13-11-2012 00:00:00 9.19653 C 73.8194 %
283 14-11-2012 00:00:00 8.74931 C 73.5625 %
284 15-11-2012 00:00:00 8.91667 C 75.2847 %
285 16-11-2012 00:00:00 8.86458 C 74.0208 %
286 17-11-2012 00:00:00 8.07083 C 73.4306 %
287 18-11-2012 00:00:00 9.25278 C 76.2500 %
288 19-11-2012 00:00:00 9.975 C 77.3958 %
289 20-11-2012 00:00:00 9.86597 C 76.5833 %
290 21-11-2012 00:00:00 9.40417 C 75.4792 %
291 22-11-2012 00:00:00 9.11736 C 76.0625 %
292 23-11-2012 00:00:00 9.04097 C 77.2569 %
293 24-11-2012 00:00:00 9.80347 C 77.9514 %
294 25-11-2012 00:00:00 10.89792 C 71.1875 %
295 26-11-2012 00:00:00 10.07133 C 73.0280 %
296 27-11-2012 00:00:00 10.15764 C 75.4861 %
297 28-11-2012 00:00:00 9.84722 C 75.7917 %
298 29-11-2012 00:00:00 9.47986 C 75.0069 %
299 30-11-2012 00:00:00 8.87569 C 74.1181 %
300 01-12-2012 00:00:00 7.57917 C 70.7778 %
Sensor: Nr:Datum:Temp:Feuchte:
G-T/H 301 02-12-2012 00:00:00 7.48958 C 74.6667 %
302 03-12-2012 00:00:00 7.62778 C 76.6250 %
303 04-12-2012 00:00:00 7.71389 C 77.8125 %
304 05-12-2012 00:00:00 8.07847 C 77.1944 %
305 06-12-2012 00:00:00 7.55833 C 76.0903 %
306 07-12-2012 00:00:00 5.94931 C 72.4653 %
307 08-12-2012 00:00:00 5.86875 C 73.4028 %
308 09-12-2012 00:00:00 5.55833 C 73.8958 %
309 10-12-2012 00:00:00 6.19236 C 75.9514 %
310 11-12-2012 00:00:00 6.32917 C 74.0347 %
311 12-12-2012 00:00:00 5.60625 C 71.7500 %
312 13-12-2012 00:00:00 5.12569 C 70.1875 %
313 14-12-2012 00:00:00 5.50278 C 73.5347 %
314 15-12-2012 00:00:00 7.47273 C 77.9091 %
315 16-12-2012 00:00:00 8.36944 C 78.0347 %
316 17-12-2012 00:00:00 8.19583 C 78.4097 %
317 18-12-2012 00:00:00 8.22361 C 78.4792 %
318 19-12-2012 00:00:00 8.01667 C 78.0764 %
319 20-12-2012 00:00:00 7.29236 C 76.9236 %
320 21-12-2012 00:00:00 7.06458 C 77.9444 %
321 22-12-2012 00:00:00 7.85556 C 79.1458 %
322 23-12-2012 00:00:00 9.16111 C 80.4722 %
323 24-12-2012 00:00:00 10.30556 C 80.0000 %
324 25-12-2012 00:00:00 10.08333 C 79.5347 %
325 26-12-2012 00:00:00 9.64476 C 79.8811 %
Sensor: Nr:Datum:Temp:Feuchte:
G-T/H 326 27-12-2012 00:00:00 9.52431 C 79.8958 %
327 28-12-2012 00:00:00 9.29444 C 79.1597 %
328 29-12-2012 00:00:00 9.44653 C 79.9375 %
329 30-12-2012 00:00:00 9.47778 C 79.3472 %
330 31-12-2012 00:00:00 9.51111 C 76.3125 %
331 01-01-2013 00:00:00 9.58333 C 77.7569 %
332 02-01-2013 00:00:00 8.71127 C 77.3239 %
333 03-01-2013 00:00:00 8.77972 C 78.2168 %
334 04-01-2013 00:00:00 9.8 C 79.2153 %
335 05-01-2013 00:00:00 10.11528 C 78.8819 %
336 06-01-2013 00:00:00 9.94097 C 79.3819 %
337 07-01-2013 00:00:00 10.00278 C 78.6875 %
338 08-01-2013 00:00:00 9.57639 C 78.2153 %
339 09-01-2013 00:00:00 9.24167 C 77.3125 %
340 10-01-2013 00:00:00 8.95417 C 77.6389 %
341 11-01-2013 00:00:00 8.24514 C 72.0625 %
342 12-01-2013 00:00:00 7.07708 C 70.3472 %
343 13-01-2013 00:00:00 5.75278 C 70.5972 %
344 14-01-2013 00:00:00 4.85069 C 69.8681 %
345 15-01-2013 00:00:00 4.79861 C 70.2569 %
346 16-01-2013 00:00:00 5.25694 C 70.9792 %
347 17-01-2013 00:00:00 5.28889 C 71.2361 %
348 18-01-2013 00:00:00 5.38681 C 71.2292 %
349 19-01-2013 00:00:00 5.47847 C 70.2917 %
350 20-01-2013 00:00:00 4.99306 C 68.2292 %
Sensor: Nr:Datum:Temp:Feuchte:
G-T/H 351 21-01-2013 00:00:00 5.43264 C 71.9653 %
352 22-01-2013 00:00:00 5.4972 C 73.8392 %
353 23-01-2013 00:00:00 5.59514 C 74.5625 %
354 24-01-2013 00:00:00 5.57361 C 71.9653 %
355 25-01-2013 00:00:00 5.52569 C 71.1458 %
356 26-01-2013 00:00:00 5.44236 C 70.3611 %
357 27-01-2013 00:00:00 5.57431 C 72.5972 %
358 28-01-2013 00:00:00 6.10278 C 73.6111 %
359 29-01-2013 00:00:00 7.45903 C 75.2222 %
360 30-01-2013 00:00:00 10.47917 C 78.4236 %
361 31-01-2013 00:00:00 9.66944 C 78.0208 %
362 01-02-2013 00:00:00 8.78333 C 78.3958 %
363 02-02-2013 00:00:00 8.35764 C 77.4167 %
364 03-02-2013 00:00:00 7.63958 C 77.9514 %
365 04-02-2013 00:00:00 7.84097 C 78.4167 %
366 05-02-2013 00:00:00 8.14653 C 77.3889 %
367 06-02-2013 00:00:00 7.42014 C 75.8542 %
368 07-02-2013 00:00:00 7.08889 C 77.4444 %
369 08-02-2013 00:00:00 6.75972 C 76.5833 %
370 09-02-2013 00:00:00 6.08182 C 73.7063 %
371 10-02-2013 00:00:00 5.82361 C 72.1042 %
372 11-02-2013 00:00:00 5.00347 C 71.9514 %
373 12-02-2013 00:00:00 5.17569 C 71.5278 %
374 13-02-2013 00:00:00 5.36667 C 70.9653 %
375 14-02-2013 00:00:00 4.99583 C 69.5556 %
Sensor: Nr:Datum:Temp:Feuchte:
G-T/H 376 15-02-2013 00:00:00 5.28403 C 72.7500 %
377 16-02-2013 00:00:00 6.36525 C 77.3191 %
378 17-02-2013 00:00:00 7.07778 C 77.5833 %
379 18-02-2013 00:00:00 6.32639 C 74.8125 %
380 19-02-2013 00:00:00 6.17917 C 74.4514 %
381 20-02-2013 00:00:00 6.31181 C 74.2986 %
382 21-02-2013 00:00:00 5.62847 C 71.8889 %
383 22-02-2013 00:00:00 5.29028 C 69.0972 %
384 23-02-2013 00:00:00 4.86944 C 69.2778 %
385 24-02-2013 00:00:00 4.85625 C 72.7014 %
386 25-02-2013 00:00:00 5.2375 C 73.9514 %
387 26-02-2013 00:00:00 6.0125 C 76.4028 %
388 27-02-2013 00:00:00 6.61181 C 75.3681 %
389 28-02-2013 00:00:00 6.46736 C 73.1250 %
390 01-03-2013 00:00:00 7.08462 C 72.9510 %
391 02-03-2013 00:00:00 7.29444 C 71.1944 %
392 03-03-2013 00:00:00 6.08194 C 68.3819 %
393 04-03-2013 00:00:00 4.28403 C 66.2083 %
394 05-03-2013 00:00:00 5.89583 C 69.5139 %
395 06-03-2013 00:00:00 6.375 C 71.4792 %
396 07-03-2013 00:00:00 7.43333 C 74.4375 %
397 08-03-2013 00:00:00 9.23958 C 75.5972 %
398 09-03-2013 00:00:00 10.31458 C 74.7847 %
399 10-03-2013 00:00:00 9.32847 C 73.8264 %
400 11-03-2013 00:00:00 7.47153 C 72.2153 %
Sensor: Nr:Datum:Temp:Feuchte:
G-T/H 401 12-03-2013 00:00:00 5.77222 C 70.3125 %
402 13-03-2013 00:00:00 5.33958 C 71.1806 %
403 14-03-2013 00:00:00 5.35625 C 71.3542 %
404 15-03-2013 00:00:00 5.16319 C 69.5625 %
405 16-03-2013 00:00:00 5.6875 C 69.9375 %
406 17-03-2013 00:00:00 6.17708 C 71.1736 %
407 18-03-2013 00:00:00 6.82153 C 73.0417 %
408 19-03-2013 00:00:00 7.34196 C 71.9720 %
409 20-03-2013 00:00:00 7.75347 C 73.4653 %
410 21-03-2013 00:00:00 7.39167 C 73.7500 %
411 22-03-2013 00:00:00 6.57361 C 71.5000 %
412 23-03-2013 00:00:00 6.93264 C 69.0278 %
413 24-03-2013 00:00:00 6.36389 C 66.4861 %
414 25-03-2013 00:00:00 5.92639 C 64.3333 %
415 26-03-2013 00:00:00 5.87569 C 63.0278 %
416 27-03-2013 00:00:00 5.89375 C 63.5903 %
417 28-03-2013 00:00:00 6.42153 C 65.5625 %
418 29-03-2013 00:00:00 6.42292 C 67.5972 %
419 30-03-2013 00:00:00 6.70486 C 67.1042 %
420 31-03-2013 00:00:00 6.78551 C 66.5362 %
421 01-04-2013 00:00:00 6.68542 C 65.5556 %
422 02-04-2013 00:00:00 6.48472 C 64.8958 %
423 03-04-2013 00:00:00 6.55903 C 65.3681 %
424 04-04-2013 00:00:00 6.93333 C 65.4306 %
425 05-04-2013 00:00:00 7.21678 C 65.6853 %
Sensor: Nr:Datum:Temp:Feuchte:
G-T/H 426 06-04-2013 00:00:00 7.17153 C 65.3472 %
427 07-04-2013 00:00:00 7.18542 C 66.8819 %
428 08-04-2013 00:00:00 7.51736 C 67.0903 %
429 09-04-2013 00:00:00 8.57014 C 69.2222 %
430 10-04-2013 00:00:00 9.4 C 71.4514 %
431 11-04-2013 00:00:00 10.27778 C 70.6667 %
432 12-04-2013 00:00:00 10.78333 C 71.3819 %
433 13-04-2013 00:00:00 11.29167 C 65.9236 %
434 14-04-2013 00:00:00 11.97361 C 67.1875 %
435 15-04-2013 00:00:00 14.74306 C 63.2431 %
436 16-04-2013 00:00:00 14.175 C 67.9375 %
437 17-04-2013 00:00:00 14.04375 C 68.7014 %
438 18-04-2013 00:00:00 14.05 C 68.2361 %
439 19-04-2013 00:00:00 13.2375 C 61.7847 %
440 20-04-2013 00:00:00 12.18125 C 58.1944 %
441 21-04-2013 00:00:00 11.99375 C 60.7292 %
442 22-04-2013 00:00:00 12.09583 C 63.8958 %
443 23-04-2013 00:00:00 12.25764 C 62.3264 %
444 24-04-2013 00:00:00 13.06713 C 63.8392 %
445 25-04-2013 00:00:00 13.71042 C 65.9306 %
446 26-04-2013 00:00:00 13.87431 C 67.5069 %
447 27-04-2013 00:00:00 11.44861 C 63.2500 %
448 28-04-2013 00:00:00 10.53611 C 64.6736 %
449 29-04-2013 00:00:00 11.38194 C 62.6944 %
450 30-04-2013 00:00:00 11.71389 C 62.9514 %
Sensor: Nr:Datum:Temp:Feuchte:
G-T/H 451 01-05-2013 00:00:00 11.76875 C 66.5208 %
452 02-05-2013 00:00:00 14.16875 C 63.1111 %
453 03-05-2013 00:00:00 14.01875 C 65.4514 %
454 04-05-2013 00:00:00 14.78264 C 62.1806 %
455 05-05-2013 00:00:00 15.49722 C 55.5764 %
456 06-05-2013 00:00:00 15.425 C 58.5208 %
457 07-05-2013 00:00:00 15.65278 C 64.5903 %
458 08-05-2013 00:00:00 15.27292 C 67.7569 %
459 09-05-2013 00:00:00 16.11111 C 66.1042 %
460 10-05-2013 00:00:00 15.48542 C 62.5000 %
461 11-05-2013 00:00:00 14.81888 C 63.4336 %
462 12-05-2013 00:00:00 13.69792 C 64.3750 %
463 13-05-2013 00:00:00 12.83472 C 67.0417 %
464 14-05-2013 00:00:00 13.68889 C 65.4236 %
465 15-05-2013 00:00:00 14.58819 C 66.4375 %
466 16-05-2013 00:00:00 14.375 C 69.1875 %
467 17-05-2013 00:00:00 12.92847 C 71.3750 %
468 18-05-2013 00:00:00 13.48403 C 68.2708 %
469 19-05-2013 00:00:00 13.86528 C 69.7778 %
470 20-05-2013 00:00:00 13.68333 C 70.8958 %
471 21-05-2013 00:00:00 13.92431 C 68.4028 %
472 22-05-2013 00:00:00 12.39653 C 65.4375 %
473 23-05-2013 00:00:00 9.77361 C 65.5625 %
474 24-05-2013 00:00:00 9.16944 C 61.1042 %
475 25-05-2013 00:00:00 10.95069 C 61.8403 %
Sensor: Nr:Datum:Temp:Feuchte:
G-T/H 476 26-05-2013 00:00:00 11.31389 C 66.1528 %
477 27-05-2013 00:00:00 12.41944 C 63.0278 %
478 28-05-2013 00:00:00 14.75694 C 57.5903 %
479 29-05-2013 00:00:00 14.17569 C 64.8750 %
480 30-05-2013 00:00:00 12.99441 C 65.5944 %
481 31-05-2013 00:00:00 13.36944 C 69.0486 %
482 01-06-2013 00:00:00 13.29931 C 70.4028 %
483 02-06-2013 00:00:00 13.04792 C 65.8889 %
484 03-06-2013 00:00:00 13.80764 C 56.4861 %
485 04-06-2013 00:00:00 14.87778 C 56.5833 %
486 05-06-2013 00:00:00 17.05625 C 59.4792 %
487 06-06-2013 00:00:00 16.77222 C 61.1250 %
488 07-06-2013 00:00:00 18.88681 C 56.7361 %
489 08-06-2013 00:00:00 18.29514 C 63.1528 %
490 09-06-2013 00:00:00 17.34375 C 68.6875 %
491 10-06-2013 00:00:00 15.87847 C 70.0208 %
492 11-06-2013 00:00:00 16.29444 C 68.0278 %
493 12-06-2013 00:00:00 18.30625 C 67.3958 %
494 13-06-2013 00:00:00 18.2875 C 70.2917 %
495 14-06-2013 00:00:00 16.81944 C 66.8194 %
496 15-06-2013 00:00:00 16.61875 C 65.3611 %
497 16-06-2013 00:00:00 16.46944 C 66.0625 %
498 17-06-2013 00:00:00 20.10208 C 64.8889 %
499 18-06-2013 00:00:00 23.30839 C 64.9860 %
500 19-06-2013 00:00:00 24.99444 C 66.0208 %
Sensor: Nr:Datum:Temp:Feuchte:
G-T/H 501 20-06-2013 00:00:00 22.78472 C 68.0833 %
502 21-06-2013 00:00:00 20.32361 C 62.8125 %
503 22-06-2013 00:00:00 19.58333 C 62.6389 %
504 23-06-2013 00:00:00 18.60347 C 64.3542 %
505 24-06-2013 00:00:00 17.35069 C 65.2292 %
506 25-06-2013 00:00:00 16.47292 C 66.0208 %
507 26-06-2013 00:00:00 15.68194 C 64.6319 %
508 27-06-2013 00:00:00 15.63264 C 66.7292 %
509 28-06-2013 00:00:00 15.2375 C 68.1111 %
510 29-06-2013 00:00:00 15.4625 C 71.4931 %
511 30-06-2013 00:00:00 15.7125 C 68.0000 %
512 01-07-2013 00:00:00 18.52639 C 64.7639 %
513 02-07-2013 00:00:00 19.90556 C 60.6458 %
514 03-07-2013 00:00:00 18.97708 C 67.2639 %
515 04-07-2013 00:00:00 18.19236 C 70.7361 %
516 05-07-2013 00:00:00 18.91944 C 68.9028 %
517 06-07-2013 00:00:00 20.22778 C 64.9931 %
518 07-07-2013 00:00:00 21.38472 C 57.7222 %
519 08-07-2013 00:00:00 21.6986 C 56.1189 %
520 09-07-2013 00:00:00 20.96597 C 60.5417 %
521 10-07-2013 00:00:00 21.18889 C 58.7014 %
522 11-07-2013 00:00:00 19.74514 C 54.3125 %
523 12-07-2013 00:00:00 19.06667 C 57.5069 %
524 13-07-2013 00:00:00 19.17917 C 58.4514 %
525 14-07-2013 00:00:00 19.83194 C 58.6042 %
Sensor: Nr:Datum:Temp:Feuchte:
G-T/H 526 15-07-2013 00:00:00 20.43681 C 58.2500 %
527 16-07-2013 00:00:00 20.21667 C 58.5139 %
528 17-07-2013 00:00:00 21.80069 C 56.5000 %
529 18-07-2013 00:00:00 22.59792 C 55.3472 %
530 19-07-2013 00:00:00 22.8375 C 53.7153 %
531 20-07-2013 00:00:00 22.64375 C 53.8056 %
532 21-07-2013 00:00:00 22.10903 C 57.2778 %
533 22-07-2013 00:00:00 23.91736 C 53.2431 %
534 23-07-2013 00:00:00 23.26667 C 63.4028 %
535 24-07-2013 00:00:00 21.9021 C 66.4895 %
536 25-07-2013 00:00:00 22.35278 C 68.3611 %
537 26-07-2013 00:00:00 22.52778 C 77.1389 %
538 27-07-2013 00:00:00 23.68542 C 73.2431 %
539 28-07-2013 00:00:00 22.82778 C 70.0347 %
540 29-07-2013 00:00:00 21.49444 C 71.0764 %
541 30-07-2013 00:00:00 20.9 C 64.8333 %
542 31-07-2013 00:00:00 21.42361 C 62.7986 %
543 01-08-2013 00:00:00 22.92778 C 59.9167 %
544 02-08-2013 00:00:00 24.58681 C 57.6111 %
545 03-08-2013 00:00:00 23.38125 C 66.4028 %
546 04-08-2013 00:00:00 22.18681 C 60.6944 %
547 05-08-2013 00:00:00 22.58889 C 61.5556 %
548 06-08-2013 00:00:00 22.18681 C 67.9028 %
549 07-08-2013 00:00:00 21.5 C 69.7708 %
550 08-08-2013 00:00:00 20.21042 C 67.2847 %
Sensor: Nr:Datum:Temp:Feuchte:
G-T/H 551 09-08-2013 00:00:00 18.98125 C 67.1736 %
552 10-08-2013 00:00:00 19.42639 C 64.0417 %
553 11-08-2013 00:00:00 19.78531 C 59.7203 %
554 12-08-2013 00:00:00 19.19653 C 63.1250 %
555 13-08-2013 00:00:00 18.58194 C 61.8542 %
556 14-08-2013 00:00:00 17.75903 C 59.9514 %
557 15-08-2013 00:00:00 18.62569 C 59.2639 %
558 16-08-2013 00:00:00 18.56181 C 62.7361 %
559 17-08-2013 00:00:00 19.10694 C 65.8750 %
560 18-08-2013 00:00:00 19.42431 C 68.5625 %
561 19-08-2013 00:00:00 19.32569 C 64.9028 %
562 20-08-2013 00:00:00 18.2625 C 59.2153 %
563 21-08-2013 00:00:00 18.02639 C 60.1528 %
564 22-08-2013 00:00:00 18.79792 C 62.5694 %
565 23-08-2013 00:00:00 19.66875 C 62.0000 %
566 24-08-2013 00:00:00 18.71389 C 65.0139 %
567 25-08-2013 00:00:00 18.02569 C 70.5417 %
568 26-08-2013 00:00:00 17.33333 C 75.0972 %
569 27-08-2013 00:00:00 17.30694 C 73.2847 %
570 28-08-2013 00:00:00 17.25486 C 71.7986 %
571 29-08-2013 00:00:00 16.89301 C 70.3916 %
572 30-08-2013 00:00:00 17.65972 C 69.2569 %
573 31-08-2013 00:00:00 18.03056 C 69.7778 %
574 01-09-2013 00:00:00 17.37083 C 60.9028 %
575 02-09-2013 00:00:00 17.71736 C 59.3333 %
Sensor: Nr:Datum:Temp:Feuchte:
G-T/H 576 03-09-2013 00:00:00 18.8 C 64.6458 %
577 04-09-2013 00:00:00 19.11319 C 67.1181 %
578 05-09-2013 00:00:00 20.28681 C 66.6042 %
579 06-09-2013 00:00:00 20.99764 C 65.6457 %
580 07-09-2013 00:00:00 20.24054 C 68.6577 %
581 08-09-2013 00:00:00 18.47 C 69.7417 %
582 09-09-2013 00:00:00 16.845 C 66.6250 %
583 10-09-2013 00:00:00 15.8875 C 64.4917 %
584 11-09-2013 00:00:00 15.69667 C 66.6583 %
585 12-09-2013 00:00:00 15.54 C 71.8833 %
586 13-09-2013 00:00:00 15.95583 C 71.6000 %
587 14-09-2013 00:00:00 16.6025 C 73.1917 %
588 15-09-2013 00:00:00 16.44 C 72.0833 %
589 16-09-2013 00:00:00 15.87 C 67.0917 %
590 17-09-2013 00:00:00 14.2775 C 62.3583 %
591 18-09-2013 00:00:00 14.53333 C 70.4583 %
592 19-09-2013 00:00:00 14.46417 C 68.6417 %
593 20-09-2013 00:00:00 15.10167 C 69.4167 %
594 21-09-2013 00:00:00 15.26 C 68.1917 %
595 22-09-2013 00:00:00 15.05833 C 70.3083 %
596 23-09-2013 00:00:00 15.82833 C 73.1167 %
597 24-09-2013 00:00:00 15.22583 C 71.0500 %
598 25-09-2013 00:00:00 15.0625 C 74.5417 %
599 26-09-2013 00:00:00 15.72917 C 75.1333 %
600 27-09-2013 00:00:00 14.58833 C 69.2000 %
Sensor: Nr:Datum:Temp:Feuchte:
G-T/H 601 28-09-2013 00:00:00 13.28583 C 68.4167 %
602 29-09-2013 00:00:00 13.81333 C 72.2500 %
603 30-09-2013 00:00:00 12.94167 C 68.1750 %
604 01-10-2013 00:00:00 13.42083 C 66.3167 %
605 02-10-2013 00:00:00 12.495 C 64.2417 %
606 03-10-2013 00:00:00 12.05917 C 67.0250 %
607 04-10-2013 00:00:00 12.45417 C 69.7417 %
608 05-10-2013 00:00:00 13.505 C 73.6917 %
609 06-10-2013 00:00:00 14.17167 C 74.0917 %
610 07-10-2013 00:00:00 14.6525 C 75.2500 %
611 08-10-2013 00:00:00 14.8225 C 75.8917 %
612 09-10-2013 00:00:00 14.86083 C 75.7083 %
613 10-10-2013 00:00:00 13.705 C 70.6250 %
614 11-10-2013 00:00:00 12.085 C 69.7667 %
615 12-10-2013 00:00:00 11.53667 C 71.7250 %
616 13-10-2013 00:00:00 11.38165 C 72.7615 %
617 14-10-2013 00:00:00 11.565 C 74.5083 %
618 15-10-2013 00:00:00 12.34833 C 76.3667 %
619 16-10-2013 00:00:00 12.39833 C 76.7750 %
620 17-10-2013 00:00:00 12.98333 C 75.9833 %
621 18-10-2013 00:00:00 13.035 C 77.7750 %
622 19-10-2013 00:00:00 11.56083 C 79.0917 %
623 20-10-2013 00:00:00 13.48 C 81.1250 %
624 21-10-2013 00:00:00 14.14167 C 79.9000 %
625 22-10-2013 00:00:00 15.26 C 78.3917 %
Sensor: Nr:Datum:Temp:Feuchte:
G-T/H 626 23-10-2013 00:00:00 15.33917 C 79.0000 %
627 24-10-2013 00:00:00 14.92083 C 80.0917 %
628 25-10-2013 00:00:00 14.20083 C 78.5833 %
629 26-10-2013 00:00:00 15.34917 C 81.1750 %
630 27-10-2013 00:00:00 15.2872 C 79.5040 %
631 28-10-2013 00:00:00 14.66667 C 78.3917 %
632 29-10-2013 00:00:00 13.87583 C 69.1083 %
633 30-10-2013 00:00:00 12.18 C 67.5583 %
634 31-10-2013 00:00:00 10.74667 C 69.4250 %
635 01-11-2013 00:00:00 11.06833 C 74.1667 %
636 02-11-2013 00:00:00 12.07333 C 77.1833 %
637 03-11-2013 00:00:00 12.425 C 73.5917 %
638 04-11-2013 00:00:00 11.90417 C 73.5000 %
639 05-11-2013 00:00:00 11.21083 C 69.4500 %
640 06-11-2013 00:00:00 11.25701 C 73.5327 %
641 07-11-2013 00:00:00 12.8225 C 76.7000 %
642 08-11-2013 00:00:00 13.41583 C 76.8750 %
643 09-11-2013 00:00:00 12.22917 C 71.4417 %
644 10-11-2013 00:00:00 11.1475 C 71.5250 %
645 11-11-2013 00:00:00 9.82083 C 70.9417 %
646 12-11-2013 00:00:00 8.78583 C 70.0417 %
647 13-11-2013 00:00:00 9.62417 C 72.8250 %
648 14-11-2013 00:00:00 9.08361 C 71.6721 %
649 15-11-2013 00:00:00 9.02083 C 72.0917 %
650 16-11-2013 00:00:00 8.44583 C 69.6667 %
Sensor: Nr:Datum:Temp:Feuchte:
G-T/H 651 17-11-2013 00:00:00 8.115 C 70.5500 %
652 18-11-2013 00:00:00 8.72925 C 73.8302 %
653 19-11-2013 00:00:00 9.27667 C 75.0417 %
654 20-11-2013 00:00:00 9.05 C 72.8333 %
655 21-11-2013 00:00:00 8.1775 C 69.3000 %
656 22-11-2013 00:00:00 8.24917 C 71.7083 %
657 23-11-2013 00:00:00 8.89083 C 73.2333 %
658 24-11-2013 00:00:00 9.21583 C 71.8083 %
659 25-11-2013 00:00:00 8.3675 C 70.0750 %
660 26-11-2013 00:00:00 7.6325 C 67.4250 %
661 27-11-2013 00:00:00 7.38583 C 65.8000 %
662 28-11-2013 00:00:00 7.71917 C 70.1750 %
663 29-11-2013 00:00:00 8.29167 C 73.4583 %
664 30-11-2013 00:00:00 8.40917 C 73.6833 %
665 01-12-2013 00:00:00 8.48917 C 74.4667 %
666 02-12-2013 00:00:00 8.82083 C 73.8083 %
667 03-12-2013 00:00:00 7.48667 C 66.9000 %
668 04-12-2013 00:00:00 7.17167 C 70.2667 %
669 05-12-2013 00:00:00 7.60874 C 71.8544 %
670 06-12-2013 00:00:00 7.65083 C 67.5500 %
671 07-12-2013 00:00:00 7.5575 C 70.0333 %
672 08-12-2013 00:00:00 8.09917 C 73.9917 %
673 09-12-2013 00:00:00 8.77083 C 73.5833 %
674 10-12-2013 00:00:00 8.29583 C 70.9333 %
675 11-12-2013 00:00:00 8.705 C 71.3667 %
Sensor: Nr:Datum:Temp:Feuchte:
G-T/H 676 12-12-2013 00:00:00 8.87583 C 70.4500 %
677 13-12-2013 00:00:00 8.47167 C 66.9667 %
678 14-12-2013 00:00:00 8.48155 C 68.7767 %
679 15-12-2013 00:00:00 8.517 C 70.7000 %
680 16-12-2013 00:00:00 7.3122 C 68.3049 %
681 17-12-2013 00:00:00 6.84167 C 67.6750 %
682 18-12-2013 00:00:00 7.0175 C 70.9417 %
683 19-12-2013 00:00:00 8.07583 C 74.7083 %
684 20-12-2013 00:00:00 8.09917 C 73.7417 %
685 21-12-2013 00:00:00 7.68333 C 71.7000 %
686 22-12-2013 00:00:00 8.40333 C 72.8750 %
687 23-12-2013 00:00:00 9.1275 C 73.8583 %
688 24-12-2013 00:00:00 9.775 C 72.8833 %
689 25-12-2013 00:00:00 10.305 C 73.7667 %
690 26-12-2013 00:00:00 9.73333 C 74.2333 %
691 27-12-2013 00:00:00 9.05583 C 72.4333 %
692 28-12-2013 00:00:00 9.825 C 74.5167 %
693 29-12-2013 00:00:00 9.51583 C 73.7250 %
694 30-12-2013 00:00:00 8.57667 C 71.9833 %
695 31-12-2013 00:00:00 8.14917 C 69.2000 %
696 01-01-2014 00:00:00 8.4175 C 70.6667 %
697 02-01-2014 00:00:00 9.215 C 73.7167 %
698 03-01-2014 00:00:00 9.29583 C 74.0583 %
699 04-01-2014 00:00:00 9.55583 C 74.5083 %
700 05-01-2014 00:00:00 9.33417 C 73.8000 %
Sensor: Nr:Datum:Temp:Feuchte:
G-T/H 701 06-01-2014 00:00:00 9.06083 C 74.1167 %
702 07-01-2014 00:00:00 9.975 C 75.7000 %
703 08-01-2014 00:00:00 10.48583 C 75.9333 %
704 09-01-2014 00:00:00 10.20167 C 75.1667 %
705 10-01-2014 00:00:00 9.605 C 71.4417 %
706 11-01-2014 00:00:00 8.61167 C 70.1583 %
707 12-01-2014 00:00:00 7.43083 C 68.4667 %
708 13-01-2014 00:00:00 7.285 C 71.2583 %
709 14-01-2014 00:00:00 7.91917 C 74.1000 %
710 15-01-2014 00:00:00 7.71 C 73.9500 %
711 16-01-2014 00:00:00 8.135 C 75.6417 %
712 17-01-2014 00:00:00 8.64167 C 76.7083 %
713 18-01-2014 00:00:00 8.16833 C 74.1917 %
714 19-01-2014 00:00:00 8.02333 C 74.2667 %
715 20-01-2014 00:00:00 8.10083 C 74.7333 %
716 21-01-2014 00:00:00 8.01167 C 73.9667 %
717 22-01-2014 00:00:00 8.05 C 72.8417 %
718 23-01-2014 00:00:00 8.00583 C 72.4667 %
719 24-01-2014 00:00:00 7.95833 C 75.4333 %
720 25-01-2014 00:00:00 7.8725 C 74.2083 %
721 26-01-2014 00:00:00 8.45917 C 70.2750 %
722 27-01-2014 00:00:00 8.35917 C 69.6083 %
723 28-01-2014 00:00:00 8.21833 C 68.7083 %
724 29-01-2014 00:00:00 7.54833 C 66.7583 %
725 30-01-2014 00:00:00 7.32 C 65.5667 %
Sensor: Nr:Datum:Temp:Feuchte:
G-T/H 726 31-01-2014 00:00:00 6.56 C 67.2750 %
727 01-02-2014 00:00:00 6.8925 C 70.4167 %
728 02-02-2014 00:00:00 7.51167 C 71.7833 %
729 03-02-2014 00:00:00 6.795 C 69.3000 %
730 04-02-2014 00:00:00 7.26 C 71.6333 %
731 05-02-2014 00:00:00 7.47417 C 72.5333 %
732 06-02-2014 00:00:00 8.0025 C 75.2500 %
733 07-02-2014 00:00:00 8.81833 C 74.2833 %
734 08-02-2014 00:00:00 8.48917 C 73.8167 %
735 09-02-2014 00:00:00 8.31417 C 71.5083 %
736 10-02-2014 00:00:00 7.81083 C 69.0083 %
737 11-02-2014 00:00:00 7.9675 C 72.2500 %
738 12-02-2014 00:00:00 7.95917 C 70.2417 %
739 13-02-2014 00:00:00 7.95333 C 73.2500 %
740 14-02-2014 00:00:00 7.92 C 73.0250 %
741 15-02-2014 00:00:00 8.67083 C 74.5917 %
742 16-02-2014 00:00:00 9.01083 C 73.7333 %
743 17-02-2014 00:00:00 8.17 C 71.2167 %
744 18-02-2014 00:00:00 7.5075 C 70.7250 %
745 19-02-2014 00:00:00 8.15167 C 74.4417 %
746 20-02-2014 00:00:00 8.88083 C 74.9750 %
747 21-02-2014 00:00:00 9.35417 C 73.8917 %
748 22-02-2014 00:00:00 8.44417 C 72.0583 %
749 23-02-2014 00:00:00 8.4725 C 72.8417 %
750 24-02-2014 00:00:00 8.14167 C 70.8750 %
Sensor: Nr:Datum:Temp:Feuchte:
G-T/H 751 25-02-2014 00:00:00 7.97917 C 72.3500 %
752 26-02-2014 00:00:00 8.98833 C 74.4750 %
753 27-02-2014 00:00:00 9.05583 C 71.3000 %
754 28-02-2014 00:00:00 8.745 C 73.6250 %
755 01-03-2014 00:00:00 8.69083 C 73.3500 %
756 02-03-2014 00:00:00 7.92917 C 70.4750 %
757 03-03-2014 00:00:00 7.78333 C 72.2083 %
758 04-03-2014 00:00:00 7.7225 C 70.6500 %
759 05-03-2014 00:00:00 8.17833 C 70.9750 %
760 06-03-2014 00:00:00 7.95667 C 69.0500 %
761 07-03-2014 00:00:00 8.39664 C 66.3950 %
762 08-03-2014 00:00:00 9.38496 C 66.3982 %
763 09-03-2014 00:00:00 8.78333 C 66.2583 %
764 10-03-2014 00:00:00 8.63333 C 67.0083 %
765 11-03-2014 00:00:00 9.03333 C 68.1667 %
766 12-03-2014 00:00:00 9.35167 C 68.7417 %
767 13-03-2014 00:00:00 9.43833 C 66.6417 %
768 14-03-2014 00:00:00 9.13833 C 67.5000 %
769 15-03-2014 00:00:00 9.22083 C 70.8667 %
770 16-03-2014 00:00:00 9.97333 C 72.6917 %
771 17-03-2014 00:00:00 10.35167 C 73.3750 %
772 18-03-2014 00:00:00 10.5 C 73.9417 %
773 19-03-2014 00:00:00 10.67583 C 73.6000 %
774 20-03-2014 00:00:00 10.72667 C 71.7250 %
775 21-03-2014 00:00:00 11.41667 C 71.2500 %
Sensor: Nr:Datum:Temp:Feuchte:
G-T/H 776 22-03-2014 00:00:00 11.13417 C 70.1583 %
777 23-03-2014 00:00:00 9.90917 C 67.6250 %
778 24-03-2014 00:00:00 9.4625 C 66.6333 %
779 25-03-2014 00:00:00 9.25833 C 65.5583 %
780 26-03-2014 00:00:00 8.92333 C 64.8750 %
781 27-03-2014 00:00:00 9.00833 C 66.9833 %
782 28-03-2014 00:00:00 9.425 C 68.7917 %
783 29-03-2014 00:00:00 10.5025 C 64.0083 %
784 30-03-2014 00:00:00 10.59652 C 66.3391 %
785 31-03-2014 00:00:00 11.335 C 66.1750 %
786 01-04-2014 00:00:00 12.7925 C 63.0167 %
787 02-04-2014 00:00:00 14.6825 C 57.0750 %
788 03-04-2014 00:00:00 13.77083 C 63.2167 %
789 04-04-2014 00:00:00 14.86167 C 63.5000 %
790 05-04-2014 00:00:00 14.37833 C 66.5500 %
791 06-04-2014 00:00:00 13.3425 C 67.7083 %
792 07-04-2014 00:00:00 15.5925 C 64.2167 %
793 08-04-2014 00:00:00 14.91167 C 62.9500 %
794 09-04-2014 00:00:00 12.83186 C 58.7788 %
795 10-04-2014 00:00:00 12.4675 C 63.7667 %
796 11-04-2014 00:00:00 12.72083 C 66.1833 %
797 12-04-2014 00:00:00 13.15833 C 66.5417 %
798 13-04-2014 00:00:00 13.01417 C 65.9417 %
799 14-04-2014 00:00:00 12.50417 C 64.6500 %
800 15-04-2014 00:00:00 11.28083 C 64.1167 %
Sensor: Nr:Datum:Temp:Feuchte:
G-T/H 801 16-04-2014 00:00:00 11.215 C 58.2917 %
802 17-04-2014 00:00:00 11.22917 C 59.8333 %
803 18-04-2014 00:00:00 11.675 C 58.0083 %
804 19-04-2014 00:00:00 9.35667 C 62.6250 %
805 20-04-2014 00:00:00 11.9125 C 65.5083 %
806 21-04-2014 00:00:00 12.63333 C 66.2417 %
807 22-04-2014 00:00:00 13.54583 C 67.1000 %
808 23-04-2014 00:00:00 14.38333 C 65.5333 %
809 24-04-2014 00:00:00 14.26083 C 68.0333 %
810 25-04-2014 00:00:00 14.4725 C 68.8333 %
811 26-04-2014 00:00:00 15.43083 C 65.9417 %
812 27-04-2014 00:00:00 14.86639 C 67.4118 %
813 28-04-2014 00:00:00 14.57 C 63.8083 %
814 29-04-2014 00:00:00 14.48417 C 67.3917 %
815 30-04-2014 00:00:00 14.13554 C 69.5289 %
816 01-05-2014 00:00:00 15.09083 C 66.7250 %
817 02-05-2014 00:00:00 14.53167 C 67.7250 %
818 03-05-2014 00:00:00 13.44583 C 60.5667 %
819 04-05-2014 00:00:00 12.65833 C 59.3583 %
820 05-05-2014 00:00:00 12.77417 C 62.5750 %
821 06-05-2014 00:00:00 13.36917 C 65.2167 %
822 07-05-2014 00:00:00 13.8925 C 68.7333 %
823 08-05-2014 00:00:00 13.49833 C 69.0583 %
824 09-05-2014 00:00:00 13.85833 C 69.1417 %
825 10-05-2014 00:00:00 13.89083 C 68.0250 %
Sensor: Nr:Datum:Temp:Feuchte:
G-T/H 826 11-05-2014 00:00:00 13.3475 C 68.6250 %
827 12-05-2014 00:00:00 13.04083 C 67.3917 %
828 13-05-2014 00:00:00 12.96 C 68.6417 %
829 14-05-2014 00:00:00 13.0375 C 62.8333 %
830 15-05-2014 00:00:00 12.93333 C 63.6083 %
831 16-05-2014 00:00:00 13.87583 C 60.6000 %
832 17-05-2014 00:00:00 14.38333 C 62.0083 %
833 18-05-2014 00:00:00 14.70833 C 65.4917 %
834 19-05-2014 00:00:00 16.89 C 60.6333 %
835 20-05-2014 00:00:00 18.75 C 56.5250 %
836 21-05-2014 00:00:00 19.6325 C 58.2667 %
837 22-05-2014 00:00:00 18.89167 C 62.4667 %
838 23-05-2014 00:00:00 17.48 C 66.1167 %
839 24-05-2014 00:00:00 16.70417 C 64.5083 %
840 25-05-2014 00:00:00 15.93667 C 63.8000 %
841 26-05-2014 00:00:00 16.28167 C 67.4333 %
842 27-05-2014 00:00:00 16.28 C 69.2833 %
843 28-05-2014 00:00:00 15.63917 C 70.2417 %
844 29-05-2014 00:00:00 15.22083 C 69.9333 %
845 30-05-2014 00:00:00 15.05167 C 64.8583 %
846 31-05-2014 00:00:00 14.76917 C 63.2833 %
847 01-06-2014 00:00:00 15.46917 C 66.3500 %
848 02-06-2014 00:00:00 15.84083 C 64.9417 %
849 03-06-2014 00:00:00 16.17583 C 66.5083 %
850 04-06-2014 00:00:00 16.16333 C 68.2917 %
Sensor: Nr:Datum:Temp:Feuchte:
G-T/H 851 05-06-2014 00:00:00 15.67083 C 64.8417 %
852 06-06-2014 00:00:00 15.69417 C 63.4833 %
853 07-06-2014 00:00:00 17.08833 C 68.5417 %
854 08-06-2014 00:00:00 18.66667 C 70.1500 %
855 09-06-2014 00:00:00 19.94667 C 71.0833 %
856 10-06-2014 00:00:00 20.54833 C 69.1333 %
857 11-06-2014 00:00:00 20.49417 C 68.5833 %
858 12-06-2014 00:00:00 19.0825 C 66.8917 %
859 13-06-2014 00:00:00 18.65833 C 63.8750 %
860 14-06-2014 00:00:00 18.28667 C 62.2333 %
861 15-06-2014 00:00:00 17.62 C 63.2833 %
862 16-06-2014 00:00:00 17.2275 C 64.1917 %
863 17-06-2014 00:00:00 17.22417 C 65.7500 %
864 18-06-2014 00:00:00 17.375 C 66.3250 %
865 19-06-2014 00:00:00 17.47583 C 64.5417 %
866 20-06-2014 00:00:00 16.8825 C 65.8667 %
867 21-06-2014 00:00:00 16.61667 C 64.3250 %
868 22-06-2014 00:00:00 16.6625 C 63.2833 %
869 23-06-2014 00:00:00 16.9175 C 64.1750 %
870 24-06-2014 00:00:00 17.17417 C 65.2833 %
871 25-06-2014 00:00:00 16.9175 C 63.6417 %
872 26-06-2014 00:00:00 16.62917 C 61.0083 %
873 27-06-2014 00:00:00 17.06417 C 62.2083 %
874 28-06-2014 00:00:00 17.32167 C 66.2333 %
875 29-06-2014 00:00:00 16.6875 C 69.4083 %
Sensor: Nr:Datum:Temp:Feuchte:
G-T/H 876 30-06-2014 00:00:00 16.29333 C 68.2667 %
877 01-07-2014 00:00:00 16.9675 C 60.0917 %
878 02-07-2014 00:00:00 17.745 C 55.9417 %
879 03-07-2014 00:00:00 17.75583 C 59.3917 %
880 04-07-2014 00:00:00 18.50083 C 62.7083 %
881 05-07-2014 00:00:00 18.98833 C 65.4667 %
882 06-07-2014 00:00:00 19.21667 C 67.3000 %
883 07-07-2014 00:00:00 19.9525 C 58.9583 %
884 08-07-2014 00:00:00 18.97333 C 62.5583 %
885 09-07-2014 00:00:00 16.82583 C 67.1583 %
886 10-07-2014 00:00:00 16.5925 C 69.5667 %
887 11-07-2014 00:00:00 17.46583 C 71.2667 %
888 12-07-2014 00:00:00 18.0925 C 71.4167 %
889 13-07-2014 00:00:00 18.02833 C 72.0000 %
890 14-07-2014 00:00:00 18.41333 C 71.1750 %
891 15-07-2014 00:00:00 19.91417 C 63.6083 %
892 16-07-2014 00:00:00 21.85917 C 57.9417 %
893 17-07-2014 00:00:00 22.515 C 57.5500 %
894 18-07-2014 00:00:00 24.10833 C 54.2417 %
895 19-07-2014 00:00:00 22.7825 C 59.1583 %
896 20-07-2014 00:00:00 22.22833 C 64.1083 %
897 21-07-2014 00:00:00 21.21667 C 67.0167 %
898 22-07-2014 00:00:00 21.64417 C 68.6583 %
899 23-07-2014 00:00:00 23.08917 C 60.6833 %
900 24-07-2014 00:00:00 22.405 C 57.2167 %
Sensor: Nr:Datum:Temp:Feuchte:
G-T/H 901 25-07-2014 00:00:00 21.54 C 60.4167 %
902 26-07-2014 00:00:00 20.825 C 63.5917 %
903 27-07-2014 00:00:00 20.66417 C 65.7917 %
904 28-07-2014 00:00:00 20.84417 C 66.9333 %
905 29-07-2014 00:00:00 20.55333 C 69.0833 %
906 30-07-2014 00:00:00 20.4 C 67.0083 %
907 31-07-2014 00:00:00 20.0625 C 65.5500 %
908 01-08-2014 00:00:00 19.965 C 68.6333 %
909 02-08-2014 00:00:00 21.05833 C 69.7333 %
910 03-08-2014 00:00:00 21.155 C 70.5750 %
911 04-08-2014 00:00:00 21.04833 C 68.0000 %
912 05-08-2014 00:00:00 20.5525 C 63.7833 %
913 06-08-2014 00:00:00 20.38083 C 62.4333 %
914 07-08-2014 00:00:00 19.99333 C 66.6500 %
915 08-08-2014 00:00:00 20.70084 C 70.2185 %
916 09-08-2014 00:00:00 20.71083 C 69.7333 %
917 10-08-2014 00:00:00 20.08917 C 68.7667 %
918 11-08-2014 00:00:00 19.19 C 65.9083 %
919 12-08-2014 00:00:00 19.14333 C 59.7083 %
920 13-08-2014 00:00:00 18.75333 C 64.9000 %
921 14-08-2014 00:00:00 18.32833 C 65.2750 %
922 15-08-2014 00:00:00 17.98 C 68.0750 %
923 16-08-2014 00:00:00 17.27 C 69.4333 %
924 17-08-2014 00:00:00 17.1775 C 70.0417 %
925 18-08-2014 00:00:00 17.63 C 64.5000 %
Sensor: Nr:Datum:Temp:Feuchte:
G-T/H 926 19-08-2014 00:00:00 17.195 C 63.3167 %
927 20-08-2014 00:00:00 16.40083 C 64.1250 %
928 21-08-2014 00:00:00 15.94583 C 62.9083 %
929 22-08-2014 00:00:00 16.31333 C 64.1083 %
930 23-08-2014 00:00:00 16.15167 C 66.7167 %
931 24-08-2014 00:00:00 15.45 C 68.3750 %
932 25-08-2014 00:00:00 15.32167 C 71.4833 %
933 26-08-2014 00:00:00 15.875 C 73.4333 %
934 27-08-2014 00:00:00 16.25 C 73.1583 %
935 28-08-2014 00:00:00 17.3525 C 73.8417 %
936 29-08-2014 00:00:00 18.265 C 73.5583 %
937 30-08-2014 00:00:00 17.08 C 73.7000 %
938 31-08-2014 00:00:00 17.19667 C 73.1250 %
939 01-09-2014 00:00:00 16.70917 C 71.7167 %
940 02-09-2014 00:00:00 16.52917 C 72.5417 %
941 03-09-2014 00:00:00 16.59417 C 73.4000 %
942 04-09-2014 00:00:00 16.78917 C 74.0333 %
943 05-09-2014 00:00:00 17.9875 C 74.8500 %
944 06-09-2014 00:00:00 18.77417 C 75.6667 %
945 07-09-2014 00:00:00 18.30417 C 76.0083 %
946 08-09-2014 00:00:00 18.67417 C 70.1667 %
947 09-09-2014 00:00:00 18.07667 C 65.7833 %
948 10-09-2014 00:00:00 17.07583 C 66.1333 %
949 11-09-2014 00:00:00 16.73417 C 68.4417 %
950 12-09-2014 00:00:00 16.07417 C 68.7000 %
Sensor: Nr:Datum:Temp:Feuchte:
G-T/H 951 13-09-2014 00:00:00 16.46417 C 72.0000 %
952 14-09-2014 00:00:00 16.74167 C 73.5333 %
953 15-09-2014 00:00:00 16.895 C 74.0417 %
954 16-09-2014 00:00:00 17.9525 C 73.7083 %
955 17-09-2014 00:00:00 18.10833 C 72.9167 %
956 18-09-2014 00:00:00 17.5325 C 75.5083 %
957 19-09-2014 00:00:00 18.6475 C 78.8083 %
958 20-09-2014 00:00:00 17.78667 C 81.2167 %
959 21-09-2014 00:00:00 16.94833 C 80.1833 %
960 22-09-2014 00:00:00 15.92667 C 72.7250 %
961 23-09-2014 00:00:00 14.2925 C 67.6583 %
962 24-09-2014 00:00:00 14.0675 C 69.1583 %
963 25-09-2014 00:00:00 14.93167 C 71.0000 %
964 26-09-2014 00:00:00 15.16667 C 72.6250 %
965 27-09-2014 00:00:00 15.765 C 74.5750 %
966 28-09-2014 00:00:00 15.525 C 75.0750 %
967 29-09-2014 00:00:00 16.46833 C 76.8000 %
968 30-09-2014 00:00:00 16.60417 C 78.0417 %
969 01-10-2014 00:00:00 17.0425 C 77.1500 %
970 02-10-2014 00:00:00 16.42167 C 76.4917 %
971 03-10-2014 00:00:00 15.75333 C 76.9833 %
972 04-10-2014 00:00:00 15.44583 C 75.1333 %
973 05-10-2014 00:00:00 15.09583 C 76.1500 %
974 06-10-2014 00:00:00 15.25 C 77.0000 %
975 07-10-2014 00:00:00 15.26417 C 77.1917 %
Sensor: Nr:Datum:Temp:Feuchte:
G-T/H 976 08-10-2014 00:00:00 14.83083 C 78.1083 %
977 09-10-2014 00:00:00 15.4 C 78.9500 %
978 10-10-2014 00:00:00 15.29167 C 78.4333 %
979 11-10-2014 00:00:00 15.45333 C 79.0000 %
980 12-10-2014 00:00:00 14.96417 C 77.7500 %
981 13-10-2014 00:00:00 15.15833 C 78.6083 %
982 14-10-2014 00:00:00 14.8575 C 78.4500 %
983 15-10-2014 00:00:00 14.27833 C 78.2167 %
984 16-10-2014 00:00:00 14.41667 C 79.4667 %
985 17-10-2014 00:00:00 14.72333 C 79.9833 %
986 18-10-2014 00:00:00 14.7725 C 80.0167 %
987 19-10-2014 00:00:00 14.5575 C 81.0833 %
988 20-10-2014 00:00:00 15.14583 C 78.1083 %
989 21-10-2014 00:00:00 14.3925 C 75.7917 %
990 22-10-2014 00:00:00 12.79583 C 70.0750 %
991 23-10-2014 00:00:00 12.72917 C 76.0667 %
992 24-10-2014 00:00:00 12.91083 C 76.3833 %
993 25-10-2014 00:00:00 13.18833 C 78.3000 %
994 26-10-2014 00:00:00 13.5352 C 78.8400 %
995 27-10-2014 00:00:00 12.75667 C 76.8083 %
996 28-10-2014 00:00:00 12.25083 C 72.4417 %
997 29-10-2014 00:00:00 12.08167 C 73.0250 %
998 30-10-2014 00:00:00 12.88417 C 78.5250 %
999 31-10-2014 00:00:00 13.18333 C 81.5000 %
1000 01-11-2014 00:00:00 13.24833 C 78.9333 %
Sensor: Nr:Datum:Temp:Feuchte:
G-T/H 1001 02-11-2014 00:00:00 13.02083 C 79.7917 %
1002 03-11-2014 00:00:00 13.45833 C 80.7917 %
1003 04-11-2014 00:00:00 13.52417 C 80.6833 %
1004 05-11-2014 00:00:00 12.92083 C 78.7667 %
1005 06-11-2014 00:00:00 11.47917 C 72.8167 %
1006 07-11-2014 00:00:00 10.24417 C 71.2000 %
1007 08-11-2014 00:00:00 10.84917 C 76.0250 %
1008 09-11-2014 00:00:00 10.3475 C 74.0250 %
1009 10-11-2014 00:00:00 11.0125 C 77.2000 %
1010 11-11-2014 00:00:00 10.78333 C 75.6500 %
1011 12-11-2014 00:00:00 11.4225 C 78.0667 %
1012 13-11-2014 00:00:00 11.80667 C 79.0000 %
1013 14-11-2014 00:00:00 12.14 C 78.7833 %
1014 15-11-2014 00:00:00 12.03583 C 78.3833 %
1015 16-11-2014 00:00:00 12.005 C 78.9833 %
1016 17-11-2014 00:00:00 11.45667 C 77.9083 %
1017 18-11-2014 00:00:00 11.54417 C 79.0000 %
1018 19-11-2014 00:00:00 11.5525 C 78.1917 %
1019 20-11-2014 00:00:00 10.72 C 74.5917 %
1020 21-11-2014 00:00:00 9.89917 C 72.6000 %
1021 22-11-2014 00:00:00 9.36583 C 72.9667 %
1022 23-11-2014 00:00:00 9.58667 C 76.2833 %
1023 24-11-2014 00:00:00 9.97333 C 76.4667 %
1024 25-11-2014 00:00:00 8.76 C 71.7500 %
1025 26-11-2014 00:00:00 8.98417 C 73.9000 %
Sensor: Nr:Datum:Temp:Feuchte:
G-T/H 1026 27-11-2014 00:00:00 9.49417 C 75.2417 %
1027 28-11-2014 00:00:00 9.59 C 73.8417 %
1028 29-11-2014 00:00:00 9.135 C 70.1500 %
1029 30-11-2014 00:00:00 8.77083 C 69.6750 %
1030 01-12-2014 00:00:00 7.97083 C 67.7833 %
1031 02-12-2014 00:00:00 6.86667 C 65.2417 %
1032 03-12-2014 00:00:00 7.35583 C 68.5083 %
1033 04-12-2014 00:00:00 7.33083 C 67.9500 %
1034 05-12-2014 00:00:00 7.93583 C 72.6667 %
1035 06-12-2014 00:00:00 8.32333 C 74.1000 %
1036 07-12-2014 00:00:00 8.33083 C 74.1000 %
1037 08-12-2014 00:00:00 7.65833 C 72.2750 %
1038 09-12-2014 00:00:00 7.27917 C 72.7750 %
1039 10-12-2014 00:00:00 7.265 C 72.0833 %
1040 11-12-2014 00:00:00 7.85667 C 75.6500 %
1041 12-12-2014 00:00:00 8.585 C 76.8333 %
1042 13-12-2014 00:00:00 8.79167 C 74.4333 %
1043 14-12-2014 00:00:00 7.87377 C 72.3279 %
1044 15-12-2014 00:00:00 7.2425 C 72.6083 %
1045 16-12-2014 00:00:00 8.05126 C 75.7983 %
1046 17-12-2014 00:00:00 8.30667 C 75.9417 %
1047 18-12-2014 00:00:00 9.53167 C 78.0167 %
1048 19-12-2014 00:00:00 10.68583 C 76.9333 %
1049 20-12-2014 00:00:00 9.35167 C 70.2833 %
1050 21-12-2014 00:00:00 9.10504 C 72.2857 %
Sensor: Nr:Datum:Temp:Feuchte:
G-T/H 1051 22-12-2014 00:00:00 9.60167 C 74.4083 %
1052 23-12-2014 00:00:00 10.33583 C 75.0167 %
1053 24-12-2014 00:00:00 10.54583 C 74.2167 %
1054 25-12-2014 00:00:00 9.69333 C 70.9833 %
1055 26-12-2014 00:00:00 8.54417 C 69.3333 %
1056 27-12-2014 00:00:00 7.8475 C 68.0667 %
1057 28-12-2014 00:00:00 6.70333 C 62.4083 %
1058 29-12-2014 00:00:00 5.9775 C 65.2500 %
1059 30-12-2014 00:00:00 6.58083 C 70.4000 %
1060 31-12-2014 00:00:00 7.3375 C 73.0417 %
1061 01-01-2015 00:00:00 7.6775 C 72.1500 %
1062 02-01-2015 00:00:00 7.65 C 71.8417 %
1063 03-01-2015 00:00:00 7.49667 C 70.3167 %
1064 04-01-2015 00:00:00 7.1875 C 71.9250 %
1065 05-01-2015 00:00:00 6.81167 C 66.4250 %
1066 06-01-2015 00:00:00 6.31417 C 67.2000 %
1067 07-01-2015 00:00:00 6.57833 C 70.2000 %
1068 08-01-2015 00:00:00 7.4925 C 72.5417 %
1069 09-01-2015 00:00:00 8.6825 C 74.9750 %
1070 10-01-2015 00:00:00 10.68083 C 76.1750 %
1071 11-01-2015 00:00:00 9.68667 C 67.1583 %
1072 12-01-2015 00:00:00 9.09 C 70.2500 %
1073 13-01-2015 00:00:00 10.01333 C 71.3250 %
1074 14-01-2015 00:00:00 9.83583 C 68.6667 %
1075 15-01-2015 00:00:00 8.9725 C 69.8000 %
Sensor: Nr:Datum:Temp:Feuchte:
G-T/H 1076 16-01-2015 00:00:00 9.63333 C 72.8000 %
1077 17-01-2015 00:00:00 8.64583 C 69.6333 %
1078 18-01-2015 00:00:00 7.1925 C 63.0917 %
1079 19-01-2015 00:00:00 6.60583 C 62.7917 %
1080 20-01-2015 00:00:00 6.77333 C 62.7167 %
1081 21-01-2015 00:00:00 6.3125 C 61.4667 %
1082 22-01-2015 00:00:00 6.92583 C 62.8250 %
1083 23-01-2015 00:00:00 6.85 C 64.2500 %
1084 24-01-2015 00:00:00 6.90667 C 62.2167 %
1085 25-01-2015 00:00:00 6.98583 C 71.3583 %
1086 26-01-2015 00:00:00 7.25083 C 73.0583 %
1087 27-01-2015 00:00:00 7.69333 C 75.4750 %
1088 28-01-2015 00:00:00 7.8275 C 74.7250 %
1089 29-01-2015 00:00:00 7.26083 C 69.7250 %
1090 30-01-2015 00:00:00 7.1 C 70.6750 %
1091 31-01-2015 00:00:00 6.745 C 66.2500 %
1092 01-02-2015 00:00:00 6.82 C 69.2083 %
1093 02-02-2015 00:00:00 7.1025 C 70.7250 %
1094 03-02-2015 00:00:00 6.69167 C 65.2917 %
1095 04-02-2015 00:00:00 6.07583 C 64.2917 %
1096 05-02-2015 00:00:00 5.6975 C 63.6583 %
1097 06-02-2015 00:00:00 5.63333 C 62.8750 %
1098 07-02-2015 00:00:00 5.60833 C 62.8417 %
1099 08-02-2015 00:00:00 6.08167 C 65.9833 %
1100 09-02-2015 00:00:00 6.77667 C 68.7083 %
Sensor: Nr:Datum:Temp:Feuchte:
G-T/H 1101 10-02-2015 00:00:00 7.82833 C 71.9417 %
1102 11-02-2015 00:00:00 8.04333 C 69.1167 %
1103 12-02-2015 00:00:00 7.75917 C 65.3750 %
1104 13-02-2015 00:00:00 7.4725 C 65.6083 %
1105 14-02-2015 00:00:00 6.9375 C 65.3083 %
1106 15-02-2015 00:00:00 7.18667 C 64.8917 %
1107 16-02-2015 00:00:00 6.68583 C 64.1667 %
1108 17-02-2015 00:00:00 7.5275 C 64.5000 %
1109 18-02-2015 00:00:00 8.185 C 66.7917 %
1110 19-02-2015 00:00:00 7.2275 C 61.3333 %
1111 20-02-2015 00:00:00 7.71083 C 65.6417 %
1112 21-02-2015 00:00:00 8.42 C 67.9667 %
1113 22-02-2015 00:00:00 7.6475 C 65.4583 %
1114 23-02-2015 00:00:00 7.175 C 66.7500 %
1115 24-02-2015 00:00:00 7.2275 C 70.1333 %
1116 25-02-2015 00:00:00 7.2925 C 70.4583 %
1117 26-02-2015 00:00:00 7.8375 C 72.2833 %
1118 27-02-2015 00:00:00 8.30833 C 72.0000 %
1119 28-02-2015 00:00:00 6.84417 C 65.8333 %
1120 01-03-2015 00:00:00 7.38167 C 67.8583 %
1121 02-03-2015 00:00:00 8.42 C 68.2333 %
1122 03-03-2015 00:00:00 7.475 C 65.9000 %
1123 04-03-2015 00:00:00 7.65 C 68.4500 %
1124 05-03-2015 00:00:00 7.585 C 70.0000 %
1125 06-03-2015 00:00:00 7.16583 C 66.8500 %
Sensor: Nr:Datum:Temp:Feuchte:
G-T/H 1126 07-03-2015 00:00:00 7.03667 C 65.6083 %
1127 08-03-2015 00:00:00 7.45917 C 68.0500 %
1128 09-03-2015 00:00:00 8.2575 C 70.6417 %
1129 10-03-2015 00:00:00 8.42833 C 71.6167 %
1130 11-03-2015 00:00:00 8.21667 C 70.0167 %
1131 12-03-2015 00:00:00 7.26833 C 64.0167 %
1132 13-03-2015 00:00:00 7.25417 C 62.8500 %
1133 14-03-2015 00:00:00 7.70583 C 66.7333 %
1134 15-03-2015 00:00:00 8.06667 C 68.9750 %
1135 16-03-2015 00:00:00 7.55 C 64.5833 %
1136 17-03-2015 00:00:00 7.88667 C 68.5583 %
1137 18-03-2015 00:00:00 8.59 C 69.6917 %
1138 19-03-2015 00:00:00 9.43667 C 71.4500 %
1139 20-03-2015 00:00:00 9.5125 C 71.3167 %
1140 21-03-2015 00:00:00 9.23917 C 70.6500 %
1141 22-03-2015 00:00:00 8.74545 C 67.5289 %
1142 23-03-2015 00:00:00 7.59417 C 63.2833 %
1143 24-03-2015 00:00:00 8.16833 C 66.5500 %
1144 25-03-2015 00:00:00 9.2225 C 69.1417 %
1145 26-03-2015 00:00:00 9.5325 C 66.7917 %
1146 27-03-2015 00:00:00 9.40833 C 66.3167 %
1147 28-03-2015 00:00:00 9.67333 C 66.9333 %
1148 29-03-2015 00:00:00 10.45478 C 70.4000 %
1149 30-03-2015 00:00:00 10.31083 C 65.2500 %
1150 31-03-2015 00:00:00 10.28583 C 65.0833 %
Sensor: Nr:Datum:Temp:Feuchte:
G-T/H 1151 01-04-2015 00:00:00 9.45 C 61.7417 %
1152 02-04-2015 00:00:00 9.125 C 62.6750 %
1153 03-04-2015 00:00:00 8.76583 C 61.2667 %
1154 04-04-2015 00:00:00 9.31417 C 63.2083 %
1155 05-04-2015 00:00:00 8.58 C 60.8000 %
1156 06-04-2015 00:00:00 8.60833 C 62.3000 %
1157 07-04-2015 00:00:00 8.61083 C 63.5750 %
1158 08-04-2015 00:00:00 8.96 C 63.3167 %
1159 09-04-2015 00:00:00 9.85667 C 66.9083 %
1160 10-04-2015 00:00:00 10.805 C 67.4500 %
1161 11-04-2015 00:00:00 11.43417 C 66.7167 %
1162 12-04-2015 00:00:00 11.4575 C 66.6917 %
1163 13-04-2015 00:00:00 11.5775 C 66.7250 %
1164 14-04-2015 00:00:00 11.26333 C 65.1250 %
1165 15-04-2015 00:00:00 12.2475 C 67.9333 %
1166 16-04-2015 00:00:00 12.9 C 68.0667 %
1167 17-04-2015 00:00:00 12.79333 C 64.6583 %
1168 18-04-2015 00:00:00 11.38833 C 59.6667 %
1169 19-04-2015 00:00:00 10.67417 C 60.6583 %
1170 20-04-2015 00:00:00 10.87 C 59.7250 %
1171 21-04-2015 00:00:00 13.19083 C 54.3833 %
1172 22-04-2015 00:00:00 12.6975 C 58.9083 %
1173 23-04-2015 00:00:00 11.73833 C 61.1250 %
1174 24-04-2015 00:00:00 11.9775 C 62.2250 %
1175 25-04-2015 00:00:00 12.93167 C 66.2667 %
Sensor: Nr:Datum:Temp:Feuchte:
G-T/H 1176 26-04-2015 00:00:00 13.24583 C 68.6917 %
1177 27-04-2015 00:00:00 13.34833 C 69.2000 %
1178 28-04-2015 00:00:00 11.89083 C 64.3333 %
1179 29-04-2015 00:00:00 11.16667 C 61.7083 %
1180 30-04-2015 00:00:00 12.04333 C 65.8333 %
1181 01-05-2015 00:00:00 11.29333 C 65.6917 %
1182 02-05-2015 00:00:00 11.58667 C 59.4000 %
1183 03-05-2015 00:00:00 12.69833 C 65.7750 %
1184 04-05-2015 00:00:00 13.4175 C 68.9250 %
1185 05-05-2015 00:00:00 14.60308 C 69.0000 %
1186 06-05-2015 00:00:00 14.5625 C 64.7667 %
1187 07-05-2015 00:00:00 13.93583 C 63.4917 %
1188 08-05-2015 00:00:00 13.885 C 63.8667 %
1189 09-05-2015 00:00:00 14.42583 C 67.1250 %
1190 10-05-2015 00:00:00 14.335 C 68.0333 %
1191 11-05-2015 00:00:00 14.62917 C 68.3000 %
1192 12-05-2015 00:00:00 15.545 C 69.8000 %
1193 13-05-2015 00:00:00 14.80917 C 61.9917 %
1194 14-05-2015 00:00:00 14.8 C 64.8583 %
1195 15-05-2015 00:00:00 14.81083 C 67.7083 %
1196 16-05-2015 00:00:00 14.17583 C 64.5750 %
1197 17-05-2015 00:00:00 14.19833 C 66.5000 %
1198 18-05-2015 00:00:00 14.45917 C 65.1583 %
1199 19-05-2015 00:00:00 14.70336 C 62.5882 %
1200 20-05-2015 00:00:00 14.285 C 61.3583 %
Sensor: Nr:Datum:Temp:Feuchte:
G-T/H 1201 21-05-2015 00:00:00 13.67167 C 60.8917 %
1202 22-05-2015 00:00:00 14.2 C 62.6500 %
1203 23-05-2015 00:00:00 15.09417 C 64.1833 %
1204 24-05-2015 00:00:00 15.51167 C 66.0667 %
1205 25-05-2015 00:00:00 15.44167 C 67.6833 %
1206 26-05-2015 00:00:00 14.56583 C 64.3667 %
1207 27-05-2015 00:00:00 13.92167 C 61.9000 %
1208 28-05-2015 00:00:00 14.09667 C 63.4417 %
1209 29-05-2015 00:00:00 14.41083 C 66.2083 %
1210 30-05-2015 00:00:00 14.2725 C 64.4167 %
1211 31-05-2015 00:00:00 13.905 C 62.9500 %
1212 01-06-2015 00:00:00 15 C 67.3083 %
1213 02-06-2015 00:00:00 15.0325 C 66.7583 %
1214 03-06-2015 00:00:00 15.72083 C 67.7250 %
1215 04-06-2015 00:00:00 16.01917 C 67.6000 %
1216 05-06-2015 00:00:00 17.0325 C 68.6917 %
1217 06-06-2015 00:00:00 18.33167 C 69.6917 %
1218 07-06-2015 00:00:00 17.33583 C 63.9667 %
1219 08-06-2015 00:00:00 16.80667 C 62.2833 %
1220 09-06-2015 00:00:00 16.3075 C 60.2500 %
1221 10-06-2015 00:00:00 15.97333 C 63.2417 %
1222 11-06-2015 00:00:00 17.04083 C 65.1750 %
1223 12-06-2015 00:00:00 17.6475 C 66.8667 %
1224 13-06-2015 00:00:00 17.74417 C 69.4250 %
1225 14-06-2015 00:00:00 17.46333 C 68.0500 %
Sensor: Nr:Datum:Temp:Feuchte:
G-T/H 1226 15-06-2015 00:00:00 17.66333 C 67.1417 %
1227 16-06-2015 00:00:00 17.08667 C 62.2083 %
1228 17-06-2015 00:00:00 16.53083 C 59.9583 %
1229 18-06-2015 00:00:00 16.97917 C 64.2333 %
1230 19-06-2015 00:00:00 16.2025 C 63.4083 %
1231 20-06-2015 00:00:00 15.62667 C 66.2917 %
1232 21-06-2015 00:00:00 15.70413 C 68.0579 %
1233 22-06-2015 00:00:00 15.6825 C 68.9417 %
1234 23-06-2015 00:00:00 14.70917 C 69.2083 %
1235 24-06-2015 00:00:00 14.74417 C 70.1583 %
1236 25-06-2015 00:00:00 15.75583 C 70.2250 %
1237 26-06-2015 00:00:00 16.96 C 70.9417 %
1238 27-06-2015 00:00:00 18.00603 C 70.2500 %
1239 28-06-2015 00:00:00 17.55833 C 67.8250 %
1240 29-06-2015 00:00:00 18.61083 C 67.1667 %
1241 30-06-2015 00:00:00 18.97333 C 65.3917 %
1242 01-07-2015 00:00:00 19.56417 C 65.4833 %
1243 02-07-2015 00:00:00 20.71917 C 67.3083 %
1244 03-07-2015 00:00:00 22.09333 C 67.5333 %
1245 04-07-2015 00:00:00 23.02333 C 66.0667 %
1246 05-07-2015 00:00:00 23.00667 C 66.4583 %
1247 06-07-2015 00:00:00 21.73583 C 63.1500 %
1248 07-07-2015 00:00:00 20.9225 C 64.1583 %
1249 08-07-2015 00:00:00 20.17417 C 62.1917 %
1250 09-07-2015 00:00:00 18.86667 C 60.0250 %
Sensor: Nr:Datum:Temp:Feuchte:
G-T/H 1251 10-07-2015 00:00:00 18.11167 C 57.7167 %
1252 11-07-2015 00:00:00 20.0325 C 52.9917 %
1253 12-07-2015 00:00:00 19.95167 C 59.6083 %
1254 13-07-2015 00:00:00 18.8825 C 64.7917 %
1255 14-07-2015 00:00:00 18.82833 C 67.3417 %
1256 15-07-2015 00:00:00 20.49667 C 63.8917 %
1257 16-07-2015 00:00:00 20.81917 C 66.0000 %
1258 17-07-2015 00:00:00 23.54583 C 55.9833 %
1259 18-07-2015 00:00:00 22.705 C 60.1667 %
1260 19-07-2015 00:00:00 21.30417 C 63.4167 %
1261 20-07-2015 00:00:00 21.16667 C 70.0917 %
1262 21-07-2015 00:00:00 22.84 C 66.7833 %
1263 22-07-2015 00:00:00 23.2075 C 64.8667 %
1264 23-07-2015 00:00:00 22.08917 C 55.4167 %
1265 24-07-2015 00:00:00 21.55833 C 57.6333 %
1266 25-07-2015 00:00:00 20.4825 C 59.9167 %
1267 26-07-2015 00:00:00 18.76387 C 59.6723 %
1268 27-07-2015 00:00:00 18.50833 C 64.7833 %
1269 28-07-2015 00:00:00 18.6175 C 55.4750 %
1270 29-07-2015 00:00:00 18.64917 C 50.9833 %
1271 30-07-2015 00:00:00 17.90333 C 55.0083 %
1272 31-07-2015 00:00:00 17.51667 C 56.3750 %
1273 01-08-2015 00:00:00 17.9775 C 60.4250 %
1274 02-08-2015 00:00:00 19.4225 C 58.7000 %
1275 03-08-2015 00:00:00 20.1325 C 58.5833 %
Sensor: Nr:Datum:Temp:Feuchte:
G-T/H 1276 04-08-2015 00:00:00 20.325 C 61.9083 %
1277 05-08-2015 00:00:00 19.47833 C 64.3583 %
1278 06-08-2015 00:00:00 20.25917 C 64.3583 %
1279 07-08-2015 00:00:00 21.64083 C 65.0917 %
1280 08-08-2015 00:00:00 22.08917 C 67.8167 %
1281 09-08-2015 00:00:00 21.58083 C 67.9583 %
1282 10-08-2015 00:00:00 21.44333 C 67.1417 %
1283 11-08-2015 00:00:00 20.96333 C 67.0833 %
1284 12-08-2015 00:00:00 21.32417 C 68.4000 %
1285 13-08-2015 00:00:00 21.7175 C 68.6917 %
1286 14-08-2015 00:00:00 22.36583 C 68.3750 %
1287 15-08-2015 00:00:00 21.69333 C 66.6833 %
1288 16-08-2015 00:00:00 20.2775 C 67.3583 %
1289 17-08-2015 00:00:00 18.54417 C 68.6917 %
1290 18-08-2015 00:00:00 18.02417 C 65.2417 %
1291 19-08-2015 00:00:00 17.90417 C 60.9667 %
1292 20-08-2015 00:00:00 19.13083 C 58.4750 %
1293 21-08-2015 00:00:00 19.29417 C 60.4167 %
1294 22-08-2015 00:00:00 18.915 C 60.9667 %
1295 23-08-2015 00:00:00 18.9 C 61.1250 %
1296 24-08-2015 00:00:00 19.19083 C 65.2833 %
1297 25-08-2015 00:00:00 18.72667 C 64.5750 %
1298 26-08-2015 00:00:00 18.58917 C 65.1833 %
1299 27-08-2015 00:00:00 19.03083 C 67.3000 %
1300 28-08-2015 00:00:00 18.38333 C 69.0250 %
Sensor: Nr:Datum:Temp:Feuchte:
G-T/H 1301 29-08-2015 00:00:00 18.38417 C 70.4583 %
1302 30-08-2015 00:00:00 19.39 C 72.3917 %
1303 31-08-2015 00:00:00 20.6975 C 69.4083 %
1304 01-09-2015 00:00:00 20.15 C 70.1583 %
1305 02-09-2015 00:00:00 18.33167 C 68.7667 %
1306 03-09-2015 00:00:00 17.54583 C 67.2417 %
1307 04-09-2015 00:00:00 16.6275 C 64.0667 %
1308 05-09-2015 00:00:00 14.8325 C 67.1583 %
1309 06-09-2015 00:00:00 15.50833 C 66.5667 %
1310 07-09-2015 00:00:00 15.67333 C 69.1250 %
1311 08-09-2015 00:00:00 16.0075 C 71.3833 %
1312 09-09-2015 00:00:00 16.68 C 65.9000 %
1313 10-09-2015 00:00:00 15.92 C 64.2000 %
1314 11-09-2015 00:00:00 15.59583 C 63.3917 %
1315 12-09-2015 00:00:00 15.57 C 65.8583 %
1316 13-09-2015 00:00:00 16.57667 C 71.0667 %
1317 14-09-2015 00:00:00 16.69 C 71.9500 %
1318 15-09-2015 00:00:00 15.7175 C 69.5500 %
1319 16-09-2015 00:00:00 15.56417 C 72.2167 %
1320 17-09-2015 00:00:00 15.93583 C 73.4417 %
1321 18-09-2015 00:00:00 15.6125 C 73.4833 %
1322 19-09-2015 00:00:00 15.85667 C 71.3750 %
1323 20-09-2015 00:00:00 15.74917 C 72.2333 %
1324 21-09-2015 00:00:00 15.62167 C 69.7583 %
1325 22-09-2015 00:00:00 15.61417 C 71.9750 %
Sensor: Nr:Datum:Temp:Feuchte:
G-T/H 1326 23-09-2015 00:00:00 14.74167 C 72.0667 %
1327 24-09-2015 00:00:00 15.12083 C 72.9833 %
1328 25-09-2015 00:00:00 15.3225 C 73.5083 %
1329 26-09-2015 00:00:00 15.25667 C 72.2500 %
1330 27-09-2015 00:00:00 14.47833 C 70.7250 %
1331 28-09-2015 00:00:00 13.82083 C 63.8500 %
1332 29-09-2015 00:00:00 13.9225 C 64.3833 %
1333 30-09-2015 00:00:00 13.78667 C 63.5833 %
1334 01-10-2015 00:00:00 12.79667 C 62.8583 %
1335 02-10-2015 00:00:00 11.94833 C 64.4333 %
1336 03-10-2015 00:00:00 12.395 C 70.0000 %
1337 04-10-2015 00:00:00 13.28417 C 73.1000 %
1338 05-10-2015 00:00:00 13.6925 C 73.3583 %
1339 06-10-2015 00:00:00 14.75417 C 74.7000 %
1340 07-10-2015 00:00:00 15.23833 C 74.9833 %
1341 08-10-2015 00:00:00 15.18667 C 73.9750 %
1342 09-10-2015 00:00:00 14.90167 C 74.2417 %
1343 10-10-2015 00:00:00 14.54667 C 73.4250 %
1344 11-10-2015 00:00:00 13.0525 C 61.8500 %
1345 12-10-2015 00:00:00 11.29 C 60.7667 %
1346 13-10-2015 00:00:00 10.26417 C 62.5750 %
1347 14-10-2015 00:00:00 10.07 C 64.2000 %
1348 15-10-2015 00:00:00 10.03 C 67.6500 %
1349 16-10-2015 00:00:00 10.35583 C 70.7583 %
1350 17-10-2015 00:00:00 10.84417 C 70.2250 %
Sensor: Nr:Datum:Temp:Feuchte:
G-T/H 1351 18-10-2015 00:00:00 11.1475 C 71.3417 %
1352 19-10-2015 00:00:00 11.18917 C 70.2667 %
1353 20-10-2015 00:00:00 11.92083 C 73.4083 %
1354 21-10-2015 00:00:00 12.1125 C 74.2667 %
1355 22-10-2015 00:00:00 12.43083 C 74.8083 %
1356 23-10-2015 00:00:00 12.8525 C 74.9750 %
1357 24-10-2015 00:00:00 12.94083 C 73.2333 %
1358 25-10-2015 00:00:00 12.9792 C 75.2880 %
1359 26-10-2015 00:00:00 12.87083 C 74.4417 %
1360 27-10-2015 00:00:00 11.90417 C 71.7000 %
1361 28-10-2015 00:00:00 12.22417 C 74.5667 %
1362 29-10-2015 00:00:00 12.4025 C 76.0083 %
1363 30-10-2015 00:00:00 11.73667 C 72.8167 %
1364 31-10-2015 00:00:00 11.19583 C 71.7583 %
1365 01-11-2015 00:00:00 11.01 C 71.9750 %
1366 02-11-2015 00:00:00 10.25583 C 69.3417 %
1367 03-11-2015 00:00:00 9.9 C 70.3417 %
1368 04-11-2015 00:00:00 10.06333 C 72.9667 %
1369 05-11-2015 00:00:00 11.00667 C 76.0333 %
1370 06-11-2015 00:00:00 12.04833 C 77.4500 %
1371 07-11-2015 00:00:00 13.56417 C 78.3083 %
1372 08-11-2015 00:00:00 13.79583 C 78.0000 %
1373 09-11-2015 00:00:00 13.61583 C 78.0000 %
1374 10-11-2015 00:00:00 13.80667 C 77.5667 %
1375 11-11-2015 00:00:00 13.58 C 75.5167 %
Sensor: Nr:Datum:Temp:Feuchte:
G-T/H 1376 12-11-2015 00:00:00 13.18583 C 76.2500 %
1377 13-11-2015 00:00:00 12.58833 C 74.3167 %
1378 14-11-2015 00:00:00 11.79167 C 70.2667 %
1379 15-11-2015 00:00:00 12.18917 C 75.3083 %
1380 16-11-2015 00:00:00 12.73 C 76.3750 %
1381 17-11-2015 00:00:00 13.1775 C 77.0250 %
1382 18-11-2015 00:00:00 13.73417 C 75.3917 %
1383 19-11-2015 00:00:00 13.50583 C 75.1167 %
1384 20-11-2015 00:00:00 12.18583 C 73.3667 %
1385 21-11-2015 00:00:00 10.22417 C 66.4333 %
1386 22-11-2015 00:00:00 8.77167 C 65.9583 %
1387 23-11-2015 00:00:00 8.46833 C 67.1833 %
1388 24-11-2015 00:00:00 8.06917 C 63.9917 %
1389 25-11-2015 00:00:00 8.435 C 70.2917 %
1390 26-11-2015 00:00:00 8.96833 C 72.8250 %
1391 27-11-2015 00:00:00 8.3625 C 67.3417 %
1392 28-11-2015 00:00:00 8.02333 C 67.4417 %
1393 29-11-2015 00:00:00 8.965 C 72.4583 %
1394 30-11-2015 00:00:00 10.345 C 74.4000 %
1395 01-12-2015 00:00:00 11.16167 C 75.7250 %
1396 02-12-2015 00:00:00 11.5875 C 75.8583 %
1397 03-12-2015 00:00:00 11.085 C 72.3083 %
1398 04-12-2015 00:00:00 10.09583 C 70.4250 %
1399 05-12-2015 00:00:00 9.69167 C 72.4167 %
1400 06-12-2015 00:00:00 9.48167 C 73.3917 %
Sensor: Nr:Datum:Temp:Feuchte:
G-T/H 1401 07-12-2015 00:00:00 10.12083 C 75.0750 %
1402 08-12-2015 00:00:00 9.17917 C 71.0417 %
1403 09-12-2015 00:00:00 9.33333 C 74.2750 %
1404 10-12-2015 00:00:00 8.84 C 70.2167 %
1405 11-12-2015 00:00:00 8.05417 C 68.8833 %
1406 12-12-2015 00:00:00 9.27583 C 74.2583 %
1407 13-12-2015 00:00:00 10.04333 C 75.4167 %
1408 14-12-2015 00:00:00 9.92917 C 75.1000 %
1409 15-12-2015 00:00:00 8.91417 C 73.0167 %
1410 16-12-2015 00:00:00 9.75667 C 76.1250 %
1411 17-12-2015 00:00:00 11.36167 C 76.8583 %
1412 18-12-2015 00:00:00 11.77417 C 77.0000 %
1413 19-12-2015 00:00:00 12.04333 C 76.6167 %
1414 20-12-2015 00:00:00 10.83917 C 74.4583 %
1415 21-12-2015 00:00:00 10.93667 C 76.5083 %
1416 22-12-2015 00:00:00 11.40833 C 76.6833 %
1417 23-12-2015 00:00:00 11.51 C 76.4250 %
1418 24-12-2015 00:00:00 10.82167 C 76.2250 %
1419 25-12-2015 00:00:00 11.42167 C 77.0000 %
1420 26-12-2015 00:00:00 11.68 C 77.0000 %
1421 27-12-2015 00:00:00 10.6275 C 76.1250 %
1422 28-12-2015 00:00:00 8.98083 C 70.9167 %
1423 29-12-2015 00:00:00 7.58917 C 69.2083 %
1424 30-12-2015 00:00:00 8.2025 C 73.7833 %
1425 31-12-2015 00:00:00 8.56 C 74.3250 %
Sensor: Nr:Datum:Temp:Feuchte:
G-T/H 1426 01-01-2016 00:00:00 8.00917 C 72.2667 %
1427 02-01-2016 00:00:00 8.71833 C 74.2667 %
1428 03-01-2016 00:00:00 8.725 C 75.2083 %
1429 04-01-2016 00:00:00 8.69917 C 74.9333 %
1430 05-01-2016 00:00:00 9.12417 C 76.0333 %
1431 06-01-2016 00:00:00 9.33417 C 76.5000 %
1432 07-01-2016 00:00:00 8.90667 C 74.1667 %
1433 08-01-2016 00:00:00 7.98 C 70.4583 %
1434 09-01-2016 00:00:00 6.60833 C 68.3250 %
1435 10-01-2016 00:00:00 7.60084 C 74.0504 %
1436 11-01-2016 00:00:00 8.1325 C 75.1500 %
1437 12-01-2016 00:00:00 8.33667 C 75.0583 %
1438 13-01-2016 00:00:00 8.1275 C 74.2917 %
1439 14-01-2016 00:00:00 7.54667 C 70.0167 %
1440 15-01-2016 00:00:00 7.395 C 71.2083 %
1441 16-01-2016 00:00:00 6.98083 C 69.2833 %
1442 17-01-2016 00:00:00 6.295 C 64.9750 %
1443 18-01-2016 00:00:00 5.49917 C 64.8333 %
1444 19-01-2016 00:00:00 4.78917 C 65.5000 %
1445 20-01-2016 00:00:00 4.82833 C 66.9000 %
1446 21-01-2016 00:00:00 5.51167 C 69.6167 %
1447 22-01-2016 00:00:00 5.29667 C 68.5750 %
1448 23-01-2016 00:00:00 5.67667 C 71.7167 %
1449 24-01-2016 00:00:00 6.94167 C 74.3250 %
1450 25-01-2016 00:00:00 8.14667 C 75.6833 %
Sensor: Nr:Datum:Temp:Feuchte:
G-T/H 1451 26-01-2016 00:00:00 8.69 C 76.0750 %
1452 27-01-2016 00:00:00 9.62167 C 75.4667 %
1453 28-01-2016 00:00:00 9.90917 C 71.6667 %
1454 29-01-2016 00:00:00 8.14667 C 68.8333 %
1455 30-01-2016 00:00:00 9.08833 C 72.6167 %
1456 31-01-2016 00:00:00 8.2675 C 70.5417 %
1457 01-02-2016 00:00:00 9.75167 C 74.1417 %
1458 02-02-2016 00:00:00 10.6475 C 74.2833 %
1459 03-02-2016 00:00:00 9.35 C 67.8167 %
1460 04-02-2016 00:00:00 8.42333 C 69.5417 %
1461 05-02-2016 00:00:00 8.7975 C 72.7417 %
1462 06-02-2016 00:00:00 9.6175 C 74.0000 %
1463 07-02-2016 00:00:00 9.48833 C 73.2917 %
1464 08-02-2016 00:00:00 9.44917 C 72.5417 %
1465 09-02-2016 00:00:00 9.0575 C 70.2250 %
1466 10-02-2016 00:00:00 8.62667 C 70.6833 %
1467 11-02-2016 00:00:00 8.3975 C 71.5583 %
1468 12-02-2016 00:00:00 7.87 C 67.5667 %
1469 13-02-2016 00:00:00 7.18917 C 68.7583 %
1470 14-02-2016 00:00:00 7.68417 C 72.7250 %
1471 15-02-2016 00:00:00 7.525 C 70.2000 %
1472 16-02-2016 00:00:00 6.49167 C 61.4583 %
1473 17-02-2016 00:00:00 5.91083 C 64.0333 %
1474 18-02-2016 00:00:00 6.93833 C 65.5917 %
1475 19-02-2016 00:00:00 6.6725 C 64.0250 %
Sensor: Nr:Datum:Temp:Feuchte:
G-T/H 1476 20-02-2016 00:00:00 6.87083 C 67.9667 %
1477 21-02-2016 00:00:00 9.16417 C 72.3250 %
1478 22-02-2016 00:00:00 10.13333 C 71.9167 %
1479 23-02-2016 00:00:00 8.49917 C 67.6583 %
1480 24-02-2016 00:00:00 7.5 C 68.0167 %
1481 25-02-2016 00:00:00 6.74417 C 63.8250 %
1482 26-02-2016 00:00:00 7.16167 C 63.9917 %
1483 27-02-2016 00:00:00 7.0225 C 62.2167 %
1484 28-02-2016 00:00:00 6.65833 C 63.3667 %
1485 29-02-2016 00:00:00 7.045 C 60.9750 %
1486 01-03-2016 00:00:00 6.78 C 60.8000 %
1487 02-03-2016 00:00:00 7.31917 C 67.4500 %
1488 03-03-2016 00:00:00 7.86333 C 68.0000 %
1489 04-03-2016 00:00:00 7.1075 C 67.2583 %
1490 05-03-2016 00:00:00 7.6825 C 73.4167 %
1491 06-03-2016 00:00:00 7.565 C 70.6083 %
1492 07-03-2016 00:00:00 7.475 C 71.4583 %
1493 08-03-2016 00:00:00 6.84833 C 68.9583 %